<?xml version="1.0" encoding="UTF-8" standalone="no" ?>
<gpx xmlns="http://www.topografix.com/GPX/1/1" xmlns:xsi="http://www.w3.org/2001/XMLSchema-instance" xsi:schemaLocation="http://www.topografix.com/GPX/1/1 http://www.topografix.com/GPX/1/1/gpx.xsd" version="1.1" creator="VisuGPX - https://www.visugpx.com">
  <metadata>
    <name>Baudet et retour par le Belsédère</name>
    <desc><![CDATA[Une belle ligne droite la route Belsédère mais attention un peu caillouteuse !]]></desc>
  </metadata>
  <trk>
    <name><![CDATA[Baudet retour par le Besédèe]]></name>
    <trkseg>
      <trkpt lat="48.70665" lon="1.75577">
        <ele>177</ele>
        <time>2014-08-01T08:25:03.000Z</time>
      </trkpt>
      <trkpt lat="48.70662" lon="1.75588">
        <ele>177.39999389648</ele>
        <time>2014-08-01T08:25:09.000Z</time>
      </trkpt>
      <trkpt lat="48.70659" lon="1.75594">
        <ele>177.80000305176</ele>
        <time>2014-08-01T08:25:13.000Z</time>
      </trkpt>
      <trkpt lat="48.70653" lon="1.75602">
        <ele>178.19999694824</ele>
        <time>2014-08-01T08:25:19.000Z</time>
      </trkpt>
      <trkpt lat="48.70652" lon="1.75611">
        <ele>178.39999389648</ele>
        <time>2014-08-01T08:25:24.000Z</time>
      </trkpt>
      <trkpt lat="48.70649" lon="1.7562">
        <ele>178.60000610352</ele>
        <time>2014-08-01T08:25:29.000Z</time>
      </trkpt>
      <trkpt lat="48.70649" lon="1.75623">
        <ele>178.80000305176</ele>
        <time>2014-08-01T08:25:33.000Z</time>
      </trkpt>
      <trkpt lat="48.70647" lon="1.75628">
        <ele>179.19999694824</ele>
        <time>2014-08-01T08:25:38.000Z</time>
      </trkpt>
      <trkpt lat="48.70645" lon="1.75632">
        <ele>179.39999389648</ele>
        <time>2014-08-01T08:25:39.000Z</time>
      </trkpt>
      <trkpt lat="48.70643" lon="1.75647">
        <ele>180.19999694824</ele>
        <time>2014-08-01T08:25:47.000Z</time>
      </trkpt>
      <trkpt lat="48.70644" lon="1.75659">
        <ele>180</ele>
        <time>2014-08-01T08:25:53.000Z</time>
      </trkpt>
      <trkpt lat="48.70645" lon="1.75663">
        <ele>180</ele>
        <time>2014-08-01T08:25:55.000Z</time>
      </trkpt>
      <trkpt lat="48.70646" lon="1.75676">
        <ele>179.60000610352</ele>
        <time>2014-08-01T08:26:03.000Z</time>
      </trkpt>
      <trkpt lat="48.70646" lon="1.75682">
        <ele>179.60000610352</ele>
        <time>2014-08-01T08:26:07.000Z</time>
      </trkpt>
      <trkpt lat="48.70645" lon="1.75686">
        <ele>179.60000610352</ele>
        <time>2014-08-01T08:26:09.000Z</time>
      </trkpt>
      <trkpt lat="48.70644" lon="1.75688">
        <ele>179.80000305176</ele>
        <time>2014-08-01T08:26:11.000Z</time>
      </trkpt>
      <trkpt lat="48.70643" lon="1.75692">
        <ele>179.80000305176</ele>
        <time>2014-08-01T08:26:15.000Z</time>
      </trkpt>
      <trkpt lat="48.70637" lon="1.75708">
        <ele>179.19999694824</ele>
        <time>2014-08-01T08:26:30.000Z</time>
      </trkpt>
      <trkpt lat="48.70633" lon="1.75716">
        <ele>178.80000305176</ele>
        <time>2014-08-01T08:26:34.000Z</time>
      </trkpt>
      <trkpt lat="48.70631" lon="1.75727">
        <ele>178.19999694824</ele>
        <time>2014-08-01T08:26:41.000Z</time>
      </trkpt>
      <trkpt lat="48.70631" lon="1.75728">
        <ele>178</ele>
        <time>2014-08-01T08:26:42.000Z</time>
      </trkpt>
      <trkpt lat="48.70626" lon="1.75733">
        <ele>178</ele>
        <time>2014-08-01T08:26:47.000Z</time>
      </trkpt>
      <trkpt lat="48.70621" lon="1.75738">
        <ele>178</ele>
        <time>2014-08-01T08:26:52.000Z</time>
      </trkpt>
      <trkpt lat="48.70615" lon="1.75746">
        <ele>178.19999694824</ele>
        <time>2014-08-01T08:26:57.000Z</time>
      </trkpt>
      <trkpt lat="48.70613" lon="1.75749">
        <ele>178.19999694824</ele>
        <time>2014-08-01T08:26:59.000Z</time>
      </trkpt>
      <trkpt lat="48.7061" lon="1.75759">
        <ele>177.80000305176</ele>
        <time>2014-08-01T08:27:06.000Z</time>
      </trkpt>
      <trkpt lat="48.70607" lon="1.75764">
        <ele>177.60000610352</ele>
        <time>2014-08-01T08:27:10.000Z</time>
      </trkpt>
      <trkpt lat="48.706" lon="1.75775">
        <ele>177.39999389648</ele>
        <time>2014-08-01T08:27:15.000Z</time>
      </trkpt>
      <trkpt lat="48.70593" lon="1.75783">
        <ele>177.60000610352</ele>
        <time>2014-08-01T08:27:21.000Z</time>
      </trkpt>
      <trkpt lat="48.70591" lon="1.75787">
        <ele>177.60000610352</ele>
        <time>2014-08-01T08:27:25.000Z</time>
      </trkpt>
      <trkpt lat="48.70589" lon="1.75794">
        <ele>177.19999694824</ele>
        <time>2014-08-01T08:27:30.000Z</time>
      </trkpt>
      <trkpt lat="48.70585" lon="1.75802">
        <ele>177.19999694824</ele>
        <time>2014-08-01T08:27:35.000Z</time>
      </trkpt>
      <trkpt lat="48.70582" lon="1.75809">
        <ele>177.39999389648</ele>
        <time>2014-08-01T08:27:40.000Z</time>
      </trkpt>
      <trkpt lat="48.70579" lon="1.7582">
        <ele>177.60000610352</ele>
        <time>2014-08-01T08:27:46.000Z</time>
      </trkpt>
      <trkpt lat="48.70573" lon="1.75825">
        <ele>178.39999389648</ele>
        <time>2014-08-01T08:27:50.000Z</time>
      </trkpt>
      <trkpt lat="48.70569" lon="1.75831">
        <ele>178.80000305176</ele>
        <time>2014-08-01T08:27:55.000Z</time>
      </trkpt>
      <trkpt lat="48.70566" lon="1.75838">
        <ele>179.19999694824</ele>
        <time>2014-08-01T08:28:00.000Z</time>
      </trkpt>
      <trkpt lat="48.70565" lon="1.75841">
        <ele>179.39999389648</ele>
        <time>2014-08-01T08:28:02.000Z</time>
      </trkpt>
      <trkpt lat="48.70562" lon="1.75845">
        <ele>179.80000305176</ele>
        <time>2014-08-01T08:28:06.000Z</time>
      </trkpt>
      <trkpt lat="48.70561" lon="1.75855">
        <ele>180</ele>
        <time>2014-08-01T08:28:11.000Z</time>
      </trkpt>
      <trkpt lat="48.70558" lon="1.75864">
        <ele>180.19999694824</ele>
        <time>2014-08-01T08:28:16.000Z</time>
      </trkpt>
      <trkpt lat="48.70555" lon="1.75871">
        <ele>180.19999694824</ele>
        <time>2014-08-01T08:28:23.000Z</time>
      </trkpt>
      <trkpt lat="48.70551" lon="1.75877">
        <ele>180.39999389648</ele>
        <time>2014-08-01T08:28:32.000Z</time>
      </trkpt>
      <trkpt lat="48.70547" lon="1.75886">
        <ele>180.60000610352</ele>
        <time>2014-08-01T08:28:38.000Z</time>
      </trkpt>
      <trkpt lat="48.70542" lon="1.75899">
        <ele>180.60000610352</ele>
        <time>2014-08-01T08:28:44.000Z</time>
      </trkpt>
      <trkpt lat="48.70539" lon="1.7591">
        <ele>180.39999389648</ele>
        <time>2014-08-01T08:28:51.000Z</time>
      </trkpt>
      <trkpt lat="48.70535" lon="1.7592">
        <ele>180.39999389648</ele>
        <time>2014-08-01T08:28:58.000Z</time>
      </trkpt>
      <trkpt lat="48.7053" lon="1.75928">
        <ele>180.19999694824</ele>
        <time>2014-08-01T08:29:05.000Z</time>
      </trkpt>
      <trkpt lat="48.70527" lon="1.75931">
        <ele>180.19999694824</ele>
        <time>2014-08-01T08:29:08.000Z</time>
      </trkpt>
      <trkpt lat="48.70526" lon="1.75933">
        <ele>180.19999694824</ele>
        <time>2014-08-01T08:29:10.000Z</time>
      </trkpt>
      <trkpt lat="48.70519" lon="1.75942">
        <ele>180.19999694824</ele>
        <time>2014-08-01T08:29:18.000Z</time>
      </trkpt>
      <trkpt lat="48.70513" lon="1.75949">
        <ele>179.80000305176</ele>
        <time>2014-08-01T08:29:24.000Z</time>
      </trkpt>
      <trkpt lat="48.70512" lon="1.75951">
        <ele>179.80000305176</ele>
        <time>2014-08-01T08:29:25.000Z</time>
      </trkpt>
      <trkpt lat="48.70508" lon="1.75957">
        <ele>179.39999389648</ele>
        <time>2014-08-01T08:29:30.000Z</time>
      </trkpt>
      <trkpt lat="48.70505" lon="1.7596">
        <ele>179.39999389648</ele>
        <time>2014-08-01T08:29:33.000Z</time>
      </trkpt>
      <trkpt lat="48.70503" lon="1.75966">
        <ele>179</ele>
        <time>2014-08-01T08:29:37.000Z</time>
      </trkpt>
      <trkpt lat="48.70497" lon="1.75976">
        <ele>179</ele>
        <time>2014-08-01T08:29:44.000Z</time>
      </trkpt>
      <trkpt lat="48.70493" lon="1.75986">
        <ele>179</ele>
        <time>2014-08-01T08:29:50.000Z</time>
      </trkpt>
      <trkpt lat="48.70492" lon="1.75989">
        <ele>179</ele>
        <time>2014-08-01T08:29:53.000Z</time>
      </trkpt>
      <trkpt lat="48.70489" lon="1.75995">
        <ele>178.60000610352</ele>
        <time>2014-08-01T08:30:00.000Z</time>
      </trkpt>
      <trkpt lat="48.70488" lon="1.75997">
        <ele>178.60000610352</ele>
        <time>2014-08-01T08:30:04.000Z</time>
      </trkpt>
      <trkpt lat="48.70484" lon="1.76016">
        <ele>177.60000610352</ele>
        <time>2014-08-01T08:30:21.000Z</time>
      </trkpt>
      <trkpt lat="48.70483" lon="1.76023">
        <ele>177.19999694824</ele>
        <time>2014-08-01T08:30:23.000Z</time>
      </trkpt>
      <trkpt lat="48.7048" lon="1.76041">
        <ele>176.39999389648</ele>
        <time>2014-08-01T08:30:30.000Z</time>
      </trkpt>
      <trkpt lat="48.70478" lon="1.76045">
        <ele>176.19999694824</ele>
        <time>2014-08-01T08:30:33.000Z</time>
      </trkpt>
      <trkpt lat="48.70477" lon="1.76051">
        <ele>176</ele>
        <time>2014-08-01T08:30:37.000Z</time>
      </trkpt>
      <trkpt lat="48.70476" lon="1.76059">
        <ele>175.80000305176</ele>
        <time>2014-08-01T08:30:44.000Z</time>
      </trkpt>
      <trkpt lat="48.70475" lon="1.76065">
        <ele>175.39999389648</ele>
        <time>2014-08-01T08:30:48.000Z</time>
      </trkpt>
      <trkpt lat="48.70474" lon="1.76069">
        <ele>175.39999389648</ele>
        <time>2014-08-01T08:30:50.000Z</time>
      </trkpt>
      <trkpt lat="48.70468" lon="1.76076">
        <ele>175.39999389648</ele>
        <time>2014-08-01T08:30:56.000Z</time>
      </trkpt>
      <trkpt lat="48.70462" lon="1.76083">
        <ele>175.60000610352</ele>
        <time>2014-08-01T08:31:02.000Z</time>
      </trkpt>
      <trkpt lat="48.70462" lon="1.76085">
        <ele>175.60000610352</ele>
        <time>2014-08-01T08:31:06.000Z</time>
      </trkpt>
      <trkpt lat="48.7046" lon="1.76093">
        <ele>175.60000610352</ele>
        <time>2014-08-01T08:31:12.000Z</time>
      </trkpt>
      <trkpt lat="48.70459" lon="1.76101">
        <ele>175.60000610352</ele>
        <time>2014-08-01T08:31:19.000Z</time>
      </trkpt>
      <trkpt lat="48.70459" lon="1.76111">
        <ele>175.39999389648</ele>
        <time>2014-08-01T08:31:24.000Z</time>
      </trkpt>
      <trkpt lat="48.70458" lon="1.7612">
        <ele>175.39999389648</ele>
        <time>2014-08-01T08:31:28.000Z</time>
      </trkpt>
      <trkpt lat="48.70459" lon="1.76135">
        <ele>175.19999694824</ele>
        <time>2014-08-01T08:31:34.000Z</time>
      </trkpt>
      <trkpt lat="48.70458" lon="1.76143">
        <ele>175.19999694824</ele>
        <time>2014-08-01T08:31:38.000Z</time>
      </trkpt>
      <trkpt lat="48.70458" lon="1.76147">
        <ele>175</ele>
        <time>2014-08-01T08:31:40.000Z</time>
      </trkpt>
      <trkpt lat="48.70457" lon="1.76159">
        <ele>174.80000305176</ele>
        <time>2014-08-01T08:31:46.000Z</time>
      </trkpt>
      <trkpt lat="48.70455" lon="1.76168">
        <ele>174.60000610352</ele>
        <time>2014-08-01T08:31:50.000Z</time>
      </trkpt>
      <trkpt lat="48.70457" lon="1.76176">
        <ele>174.19999694824</ele>
        <time>2014-08-01T08:31:55.000Z</time>
      </trkpt>
      <trkpt lat="48.70456" lon="1.76182">
        <ele>174.19999694824</ele>
        <time>2014-08-01T08:31:59.000Z</time>
      </trkpt>
      <trkpt lat="48.70457" lon="1.7619">
        <ele>174</ele>
        <time>2014-08-01T08:32:04.000Z</time>
      </trkpt>
      <trkpt lat="48.70458" lon="1.76195">
        <ele>173.80000305176</ele>
        <time>2014-08-01T08:32:10.000Z</time>
      </trkpt>
      <trkpt lat="48.7046" lon="1.76204">
        <ele>173.39999389648</ele>
        <time>2014-08-01T08:32:16.000Z</time>
      </trkpt>
      <trkpt lat="48.70462" lon="1.76219">
        <ele>173</ele>
        <time>2014-08-01T08:32:23.000Z</time>
      </trkpt>
      <trkpt lat="48.70464" lon="1.76225">
        <ele>172.60000610352</ele>
        <time>2014-08-01T08:32:26.000Z</time>
      </trkpt>
      <trkpt lat="48.70464" lon="1.76232">
        <ele>172.60000610352</ele>
        <time>2014-08-01T08:32:29.000Z</time>
      </trkpt>
      <trkpt lat="48.70465" lon="1.76244">
        <ele>172.39999389648</ele>
        <time>2014-08-01T08:32:35.000Z</time>
      </trkpt>
      <trkpt lat="48.70463" lon="1.76249">
        <ele>172.60000610352</ele>
        <time>2014-08-01T08:32:38.000Z</time>
      </trkpt>
      <trkpt lat="48.70458" lon="1.76259">
        <ele>173.19999694824</ele>
        <time>2014-08-01T08:32:42.000Z</time>
      </trkpt>
      <trkpt lat="48.70455" lon="1.76264">
        <ele>173.39999389648</ele>
        <time>2014-08-01T08:32:46.000Z</time>
      </trkpt>
      <trkpt lat="48.70453" lon="1.76266">
        <ele>173.39999389648</ele>
        <time>2014-08-01T08:32:49.000Z</time>
      </trkpt>
      <trkpt lat="48.70451" lon="1.76273">
        <ele>173.39999389648</ele>
        <time>2014-08-01T08:32:54.000Z</time>
      </trkpt>
      <trkpt lat="48.70451" lon="1.76284">
        <ele>173.39999389648</ele>
        <time>2014-08-01T08:33:00.000Z</time>
      </trkpt>
      <trkpt lat="48.70453" lon="1.76296">
        <ele>173.39999389648</ele>
        <time>2014-08-01T08:33:06.000Z</time>
      </trkpt>
      <trkpt lat="48.70453" lon="1.76298">
        <ele>173.39999389648</ele>
        <time>2014-08-01T08:33:07.000Z</time>
      </trkpt>
      <trkpt lat="48.70452" lon="1.76313">
        <ele>173.39999389648</ele>
        <time>2014-08-01T08:33:15.000Z</time>
      </trkpt>
      <trkpt lat="48.70451" lon="1.76323">
        <ele>173.60000610352</ele>
        <time>2014-08-01T08:33:20.000Z</time>
      </trkpt>
      <trkpt lat="48.70454" lon="1.76331">
        <ele>173.80000305176</ele>
        <time>2014-08-01T08:33:25.000Z</time>
      </trkpt>
      <trkpt lat="48.70454" lon="1.76332">
        <ele>174</ele>
        <time>2014-08-01T08:33:26.000Z</time>
      </trkpt>
      <trkpt lat="48.70455" lon="1.7634">
        <ele>174.19999694824</ele>
        <time>2014-08-01T08:33:33.000Z</time>
      </trkpt>
      <trkpt lat="48.70455" lon="1.76349">
        <ele>174.80000305176</ele>
        <time>2014-08-01T08:33:39.000Z</time>
      </trkpt>
      <trkpt lat="48.70455" lon="1.7635">
        <ele>174.80000305176</ele>
        <time>2014-08-01T08:33:40.000Z</time>
      </trkpt>
      <trkpt lat="48.70455" lon="1.7636">
        <ele>175.19999694824</ele>
        <time>2014-08-01T08:33:47.000Z</time>
      </trkpt>
      <trkpt lat="48.70453" lon="1.76368">
        <ele>175.60000610352</ele>
        <time>2014-08-01T08:33:52.000Z</time>
      </trkpt>
      <trkpt lat="48.70459" lon="1.76383">
        <ele>176.19999694824</ele>
        <time>2014-08-01T08:34:00.000Z</time>
      </trkpt>
      <trkpt lat="48.70464" lon="1.76396">
        <ele>176.60000610352</ele>
        <time>2014-08-01T08:34:06.000Z</time>
      </trkpt>
      <trkpt lat="48.70466" lon="1.76402">
        <ele>176.80000305176</ele>
        <time>2014-08-01T08:34:12.000Z</time>
      </trkpt>
      <trkpt lat="48.70465" lon="1.76411">
        <ele>177</ele>
        <time>2014-08-01T08:34:17.000Z</time>
      </trkpt>
      <trkpt lat="48.70469" lon="1.76427">
        <ele>177.19999694824</ele>
        <time>2014-08-01T08:34:25.000Z</time>
      </trkpt>
      <trkpt lat="48.70468" lon="1.76439">
        <ele>177.39999389648</ele>
        <time>2014-08-01T08:34:30.000Z</time>
      </trkpt>
      <trkpt lat="48.70469" lon="1.7645">
        <ele>177.80000305176</ele>
        <time>2014-08-01T08:34:37.000Z</time>
      </trkpt>
      <trkpt lat="48.70467" lon="1.7646">
        <ele>178.60000610352</ele>
        <time>2014-08-01T08:34:44.000Z</time>
      </trkpt>
      <trkpt lat="48.70461" lon="1.76465">
        <ele>179.19999694824</ele>
        <time>2014-08-01T08:34:50.000Z</time>
      </trkpt>
      <trkpt lat="48.7046" lon="1.76466">
        <ele>179.19999694824</ele>
        <time>2014-08-01T08:34:51.000Z</time>
      </trkpt>
      <trkpt lat="48.70453" lon="1.76476">
        <ele>180.19999694824</ele>
        <time>2014-08-01T08:36:00.000Z</time>
      </trkpt>
      <trkpt lat="48.70453" lon="1.7649">
        <ele>180.80000305176</ele>
        <time>2014-08-01T08:36:05.000Z</time>
      </trkpt>
      <trkpt lat="48.70453" lon="1.76502">
        <ele>181</ele>
        <time>2014-08-01T08:36:12.000Z</time>
      </trkpt>
      <trkpt lat="48.70452" lon="1.76513">
        <ele>181</ele>
        <time>2014-08-01T08:36:19.000Z</time>
      </trkpt>
      <trkpt lat="48.70453" lon="1.76523">
        <ele>180.80000305176</ele>
        <time>2014-08-01T08:36:25.000Z</time>
      </trkpt>
      <trkpt lat="48.70455" lon="1.76529">
        <ele>180.60000610352</ele>
        <time>2014-08-01T08:36:29.000Z</time>
      </trkpt>
      <trkpt lat="48.70455" lon="1.7653">
        <ele>180.60000610352</ele>
        <time>2014-08-01T08:36:30.000Z</time>
      </trkpt>
      <trkpt lat="48.70452" lon="1.76542">
        <ele>180.60000610352</ele>
        <time>2014-08-01T08:36:37.000Z</time>
      </trkpt>
      <trkpt lat="48.70447" lon="1.76553">
        <ele>180.80000305176</ele>
        <time>2014-08-01T08:36:43.000Z</time>
      </trkpt>
      <trkpt lat="48.70444" lon="1.76558">
        <ele>180.80000305176</ele>
        <time>2014-08-01T08:36:47.000Z</time>
      </trkpt>
      <trkpt lat="48.70446" lon="1.76562">
        <ele>180.60000610352</ele>
        <time>2014-08-01T08:36:51.000Z</time>
      </trkpt>
      <trkpt lat="48.70441" lon="1.76571">
        <ele>180.80000305176</ele>
        <time>2014-08-01T08:36:57.000Z</time>
      </trkpt>
      <trkpt lat="48.7044" lon="1.76576">
        <ele>180.80000305176</ele>
        <time>2014-08-01T08:37:01.000Z</time>
      </trkpt>
      <trkpt lat="48.70435" lon="1.76587">
        <ele>180.80000305176</ele>
        <time>2014-08-01T08:37:10.000Z</time>
      </trkpt>
      <trkpt lat="48.70432" lon="1.76588">
        <ele>180.60000610352</ele>
        <time>2014-08-01T08:37:12.000Z</time>
      </trkpt>
      <trkpt lat="48.70429" lon="1.76593">
        <ele>180.39999389648</ele>
        <time>2014-08-01T08:37:16.000Z</time>
      </trkpt>
      <trkpt lat="48.70423" lon="1.7659">
        <ele>180.19999694824</ele>
        <time>2014-08-01T08:37:25.000Z</time>
      </trkpt>
      <trkpt lat="48.70418" lon="1.76592">
        <ele>180</ele>
        <time>2014-08-01T08:37:30.000Z</time>
      </trkpt>
      <trkpt lat="48.70415" lon="1.76596">
        <ele>180</ele>
        <time>2014-08-01T08:37:36.000Z</time>
      </trkpt>
      <trkpt lat="48.70409" lon="1.766">
        <ele>179.60000610352</ele>
        <time>2014-08-01T08:37:42.000Z</time>
      </trkpt>
      <trkpt lat="48.70408" lon="1.76602">
        <ele>179.60000610352</ele>
        <time>2014-08-01T08:37:43.000Z</time>
      </trkpt>
      <trkpt lat="48.70399" lon="1.76608">
        <ele>179.19999694824</ele>
        <time>2014-08-01T08:37:51.000Z</time>
      </trkpt>
      <trkpt lat="48.70393" lon="1.76611">
        <ele>179</ele>
        <time>2014-08-01T08:37:57.000Z</time>
      </trkpt>
      <trkpt lat="48.70388" lon="1.76613">
        <ele>178.80000305176</ele>
        <time>2014-08-01T08:38:03.000Z</time>
      </trkpt>
      <trkpt lat="48.70383" lon="1.76611">
        <ele>178.80000305176</ele>
        <time>2014-08-01T08:38:10.000Z</time>
      </trkpt>
      <trkpt lat="48.70375" lon="1.76617">
        <ele>178.60000610352</ele>
        <time>2014-08-01T08:38:15.000Z</time>
      </trkpt>
      <trkpt lat="48.70368" lon="1.76619">
        <ele>178.39999389648</ele>
        <time>2014-08-01T08:38:20.000Z</time>
      </trkpt>
      <trkpt lat="48.70362" lon="1.76621">
        <ele>178.19999694824</ele>
        <time>2014-08-01T08:38:26.000Z</time>
      </trkpt>
      <trkpt lat="48.70361" lon="1.76622">
        <ele>178.19999694824</ele>
        <time>2014-08-01T08:38:27.000Z</time>
      </trkpt>
      <trkpt lat="48.70355" lon="1.76624">
        <ele>178</ele>
        <time>2014-08-01T08:38:31.000Z</time>
      </trkpt>
      <trkpt lat="48.70348" lon="1.76628">
        <ele>178.19999694824</ele>
        <time>2014-08-01T08:38:38.000Z</time>
      </trkpt>
      <trkpt lat="48.70347" lon="1.76628">
        <ele>178.19999694824</ele>
        <time>2014-08-01T08:38:41.000Z</time>
      </trkpt>
      <trkpt lat="48.70334" lon="1.76642">
        <ele>178.39999389648</ele>
        <time>2014-08-01T08:39:07.000Z</time>
      </trkpt>
      <trkpt lat="48.7033" lon="1.76645">
        <ele>178.60000610352</ele>
        <time>2014-08-01T08:39:10.000Z</time>
      </trkpt>
      <trkpt lat="48.7033" lon="1.7665">
        <ele>178.60000610352</ele>
        <time>2014-08-01T08:39:14.000Z</time>
      </trkpt>
      <trkpt lat="48.70328" lon="1.76663">
        <ele>178.60000610352</ele>
        <time>2014-08-01T08:39:21.000Z</time>
      </trkpt>
      <trkpt lat="48.70328" lon="1.7667">
        <ele>178.60000610352</ele>
        <time>2014-08-01T08:39:25.000Z</time>
      </trkpt>
      <trkpt lat="48.70324" lon="1.76677">
        <ele>178.80000305176</ele>
        <time>2014-08-01T08:39:31.000Z</time>
      </trkpt>
      <trkpt lat="48.70322" lon="1.76678">
        <ele>178.80000305176</ele>
        <time>2014-08-01T08:39:36.000Z</time>
      </trkpt>
      <trkpt lat="48.70326" lon="1.76688">
        <ele>178.60000610352</ele>
        <time>2014-08-01T08:40:13.000Z</time>
      </trkpt>
      <trkpt lat="48.70327" lon="1.76692">
        <ele>178.60000610352</ele>
        <time>2014-08-01T08:40:15.000Z</time>
      </trkpt>
      <trkpt lat="48.70327" lon="1.76704">
        <ele>178.60000610352</ele>
        <time>2014-08-01T08:40:21.000Z</time>
      </trkpt>
      <trkpt lat="48.70328" lon="1.76712">
        <ele>178.60000610352</ele>
        <time>2014-08-01T08:40:26.000Z</time>
      </trkpt>
      <trkpt lat="48.70328" lon="1.76717">
        <ele>178.60000610352</ele>
        <time>2014-08-01T08:40:30.000Z</time>
      </trkpt>
      <trkpt lat="48.70329" lon="1.76725">
        <ele>178.60000610352</ele>
        <time>2014-08-01T08:40:35.000Z</time>
      </trkpt>
      <trkpt lat="48.70329" lon="1.76737">
        <ele>178.60000610352</ele>
        <time>2014-08-01T08:40:41.000Z</time>
      </trkpt>
      <trkpt lat="48.70329" lon="1.76748">
        <ele>178.80000305176</ele>
        <time>2014-08-01T08:40:47.000Z</time>
      </trkpt>
      <trkpt lat="48.7033" lon="1.76759">
        <ele>178.80000305176</ele>
        <time>2014-08-01T08:40:53.000Z</time>
      </trkpt>
      <trkpt lat="48.7033" lon="1.76768">
        <ele>179</ele>
        <time>2014-08-01T08:40:59.000Z</time>
      </trkpt>
      <trkpt lat="48.7033" lon="1.76775">
        <ele>179</ele>
        <time>2014-08-01T08:41:02.000Z</time>
      </trkpt>
      <trkpt lat="48.7033" lon="1.76777">
        <ele>179</ele>
        <time>2014-08-01T08:41:04.000Z</time>
      </trkpt>
      <trkpt lat="48.70331" lon="1.76786">
        <ele>179.19999694824</ele>
        <time>2014-08-01T08:41:11.000Z</time>
      </trkpt>
      <trkpt lat="48.70331" lon="1.76795">
        <ele>179.19999694824</ele>
        <time>2014-08-01T08:41:17.000Z</time>
      </trkpt>
      <trkpt lat="48.70331" lon="1.76801">
        <ele>179.19999694824</ele>
        <time>2014-08-01T08:41:21.000Z</time>
      </trkpt>
      <trkpt lat="48.70332" lon="1.76809">
        <ele>179.19999694824</ele>
        <time>2014-08-01T08:41:26.000Z</time>
      </trkpt>
      <trkpt lat="48.70331" lon="1.76822">
        <ele>179</ele>
        <time>2014-08-01T08:41:34.000Z</time>
      </trkpt>
      <trkpt lat="48.70331" lon="1.76827">
        <ele>179</ele>
        <time>2014-08-01T08:41:37.000Z</time>
      </trkpt>
      <trkpt lat="48.70331" lon="1.76836">
        <ele>179.19999694824</ele>
        <time>2014-08-01T08:41:43.000Z</time>
      </trkpt>
      <trkpt lat="48.70332" lon="1.76843">
        <ele>179.19999694824</ele>
        <time>2014-08-01T08:41:48.000Z</time>
      </trkpt>
      <trkpt lat="48.70332" lon="1.76854">
        <ele>179.39999389648</ele>
        <time>2014-08-01T08:41:54.000Z</time>
      </trkpt>
      <trkpt lat="48.70334" lon="1.76862">
        <ele>179.39999389648</ele>
        <time>2014-08-01T08:41:58.000Z</time>
      </trkpt>
      <trkpt lat="48.70331" lon="1.76866">
        <ele>179.60000610352</ele>
        <time>2014-08-01T08:42:04.000Z</time>
      </trkpt>
      <trkpt lat="48.70333" lon="1.76909">
        <ele>180.39999389648</ele>
        <time>2014-08-01T08:42:41.000Z</time>
      </trkpt>
      <trkpt lat="48.70333" lon="1.76918">
        <ele>180.60000610352</ele>
        <time>2014-08-01T08:42:45.000Z</time>
      </trkpt>
      <trkpt lat="48.70335" lon="1.76929">
        <ele>180.80000305176</ele>
        <time>2014-08-01T08:42:51.000Z</time>
      </trkpt>
      <trkpt lat="48.70335" lon="1.76939">
        <ele>181</ele>
        <time>2014-08-01T08:42:57.000Z</time>
      </trkpt>
      <trkpt lat="48.70335" lon="1.7694">
        <ele>181</ele>
        <time>2014-08-01T08:42:58.000Z</time>
      </trkpt>
      <trkpt lat="48.70335" lon="1.76953">
        <ele>181.39999389648</ele>
        <time>2014-08-01T08:43:06.000Z</time>
      </trkpt>
      <trkpt lat="48.70335" lon="1.76954">
        <ele>181.39999389648</ele>
        <time>2014-08-01T08:43:07.000Z</time>
      </trkpt>
      <trkpt lat="48.70336" lon="1.76964">
        <ele>181.60000610352</ele>
        <time>2014-08-01T08:43:14.000Z</time>
      </trkpt>
      <trkpt lat="48.70337" lon="1.7697">
        <ele>181.80000305176</ele>
        <time>2014-08-01T08:43:18.000Z</time>
      </trkpt>
      <trkpt lat="48.70338" lon="1.76978">
        <ele>182</ele>
        <time>2014-08-01T08:43:24.000Z</time>
      </trkpt>
      <trkpt lat="48.70339" lon="1.76986">
        <ele>182.19999694824</ele>
        <time>2014-08-01T08:43:30.000Z</time>
      </trkpt>
      <trkpt lat="48.7034" lon="1.76995">
        <ele>182.19999694824</ele>
        <time>2014-08-01T08:43:36.000Z</time>
      </trkpt>
      <trkpt lat="48.70341" lon="1.76999">
        <ele>182.19999694824</ele>
        <time>2014-08-01T08:43:38.000Z</time>
      </trkpt>
      <trkpt lat="48.7034" lon="1.77011">
        <ele>182.19999694824</ele>
        <time>2014-08-01T08:43:45.000Z</time>
      </trkpt>
      <trkpt lat="48.7034" lon="1.77022">
        <ele>182.19999694824</ele>
        <time>2014-08-01T08:43:52.000Z</time>
      </trkpt>
      <trkpt lat="48.70341" lon="1.77034">
        <ele>182.19999694824</ele>
        <time>2014-08-01T08:44:00.000Z</time>
      </trkpt>
      <trkpt lat="48.70342" lon="1.77046">
        <ele>182.19999694824</ele>
        <time>2014-08-01T08:44:07.000Z</time>
      </trkpt>
      <trkpt lat="48.70342" lon="1.77047">
        <ele>182.19999694824</ele>
        <time>2014-08-01T08:44:08.000Z</time>
      </trkpt>
      <trkpt lat="48.70343" lon="1.77057">
        <ele>182.19999694824</ele>
        <time>2014-08-01T08:44:15.000Z</time>
      </trkpt>
      <trkpt lat="48.70344" lon="1.7706">
        <ele>182.19999694824</ele>
        <time>2014-08-01T08:44:19.000Z</time>
      </trkpt>
      <trkpt lat="48.70346" lon="1.77079">
        <ele>182.19999694824</ele>
        <time>2014-08-01T08:44:34.000Z</time>
      </trkpt>
      <trkpt lat="48.70347" lon="1.7708">
        <ele>182.19999694824</ele>
        <time>2014-08-01T08:44:35.000Z</time>
      </trkpt>
      <trkpt lat="48.70348" lon="1.77088">
        <ele>182.19999694824</ele>
        <time>2014-08-01T08:44:38.000Z</time>
      </trkpt>
      <trkpt lat="48.70349" lon="1.77101">
        <ele>182.19999694824</ele>
        <time>2014-08-01T08:44:44.000Z</time>
      </trkpt>
      <trkpt lat="48.70349" lon="1.77105">
        <ele>182</ele>
        <time>2014-08-01T08:44:46.000Z</time>
      </trkpt>
      <trkpt lat="48.70351" lon="1.77115">
        <ele>182</ele>
        <time>2014-08-01T08:44:51.000Z</time>
      </trkpt>
      <trkpt lat="48.70351" lon="1.77123">
        <ele>182</ele>
        <time>2014-08-01T08:44:56.000Z</time>
      </trkpt>
      <trkpt lat="48.70351" lon="1.77124">
        <ele>182</ele>
        <time>2014-08-01T08:44:57.000Z</time>
      </trkpt>
      <trkpt lat="48.70353" lon="1.77134">
        <ele>182</ele>
        <time>2014-08-01T08:45:04.000Z</time>
      </trkpt>
      <trkpt lat="48.70355" lon="1.77142">
        <ele>182</ele>
        <time>2014-08-01T08:45:09.000Z</time>
      </trkpt>
      <trkpt lat="48.70355" lon="1.77146">
        <ele>182</ele>
        <time>2014-08-01T08:45:12.000Z</time>
      </trkpt>
      <trkpt lat="48.70357" lon="1.77154">
        <ele>181.80000305176</ele>
        <time>2014-08-01T08:45:17.000Z</time>
      </trkpt>
      <trkpt lat="48.70359" lon="1.77163">
        <ele>181.80000305176</ele>
        <time>2014-08-01T08:45:22.000Z</time>
      </trkpt>
      <trkpt lat="48.7036" lon="1.77177">
        <ele>181.60000610352</ele>
        <time>2014-08-01T08:45:30.000Z</time>
      </trkpt>
      <trkpt lat="48.7036" lon="1.77178">
        <ele>181.60000610352</ele>
        <time>2014-08-01T08:45:31.000Z</time>
      </trkpt>
      <trkpt lat="48.7036" lon="1.77186">
        <ele>181.39999389648</ele>
        <time>2014-08-01T08:45:38.000Z</time>
      </trkpt>
      <trkpt lat="48.7036" lon="1.77192">
        <ele>181.19999694824</ele>
        <time>2014-08-01T08:45:42.000Z</time>
      </trkpt>
      <trkpt lat="48.70361" lon="1.77195">
        <ele>181.19999694824</ele>
        <time>2014-08-01T08:45:44.000Z</time>
      </trkpt>
      <trkpt lat="48.70363" lon="1.77204">
        <ele>181</ele>
        <time>2014-08-01T08:45:48.000Z</time>
      </trkpt>
      <trkpt lat="48.70363" lon="1.77215">
        <ele>180.60000610352</ele>
        <time>2014-08-01T08:45:54.000Z</time>
      </trkpt>
      <trkpt lat="48.70362" lon="1.77223">
        <ele>180.39999389648</ele>
        <time>2014-08-01T08:45:59.000Z</time>
      </trkpt>
      <trkpt lat="48.70363" lon="1.77225">
        <ele>180.39999389648</ele>
        <time>2014-08-01T08:46:01.000Z</time>
      </trkpt>
      <trkpt lat="48.70363" lon="1.77235">
        <ele>180.19999694824</ele>
        <time>2014-08-01T08:46:07.000Z</time>
      </trkpt>
      <trkpt lat="48.70364" lon="1.77242">
        <ele>180.19999694824</ele>
        <time>2014-08-01T08:46:11.000Z</time>
      </trkpt>
      <trkpt lat="48.70367" lon="1.77249">
        <ele>180.39999389648</ele>
        <time>2014-08-01T08:46:15.000Z</time>
      </trkpt>
      <trkpt lat="48.70367" lon="1.77252">
        <ele>180.39999389648</ele>
        <time>2014-08-01T08:46:17.000Z</time>
      </trkpt>
      <trkpt lat="48.70369" lon="1.77262">
        <ele>180.60000610352</ele>
        <time>2014-08-01T08:46:23.000Z</time>
      </trkpt>
      <trkpt lat="48.70369" lon="1.77275">
        <ele>180.80000305176</ele>
        <time>2014-08-01T08:46:30.000Z</time>
      </trkpt>
      <trkpt lat="48.70368" lon="1.77289">
        <ele>181</ele>
        <time>2014-08-01T08:46:37.000Z</time>
      </trkpt>
      <trkpt lat="48.70367" lon="1.77297">
        <ele>181</ele>
        <time>2014-08-01T08:46:40.000Z</time>
      </trkpt>
      <trkpt lat="48.70366" lon="1.7731">
        <ele>181.19999694824</ele>
        <time>2014-08-01T08:46:47.000Z</time>
      </trkpt>
      <trkpt lat="48.70363" lon="1.77316">
        <ele>181.19999694824</ele>
        <time>2014-08-01T08:46:53.000Z</time>
      </trkpt>
      <trkpt lat="48.70362" lon="1.77316">
        <ele>181.19999694824</ele>
        <time>2014-08-01T08:46:56.000Z</time>
      </trkpt>
      <trkpt lat="48.70382" lon="1.77278">
        <ele>181.19999694824</ele>
        <time>2014-08-01T08:49:11.000Z</time>
      </trkpt>
      <trkpt lat="48.70388" lon="1.77276">
        <ele>181.19999694824</ele>
        <time>2014-08-01T08:49:15.000Z</time>
      </trkpt>
      <trkpt lat="48.70391" lon="1.77273">
        <ele>181.19999694824</ele>
        <time>2014-08-01T08:49:18.000Z</time>
      </trkpt>
      <trkpt lat="48.70398" lon="1.77268">
        <ele>181.19999694824</ele>
        <time>2014-08-01T08:49:26.000Z</time>
      </trkpt>
      <trkpt lat="48.70405" lon="1.77261">
        <ele>181.19999694824</ele>
        <time>2014-08-01T08:49:32.000Z</time>
      </trkpt>
      <trkpt lat="48.70415" lon="1.77255">
        <ele>181.19999694824</ele>
        <time>2014-08-01T08:49:39.000Z</time>
      </trkpt>
      <trkpt lat="48.70424" lon="1.77248">
        <ele>181</ele>
        <time>2014-08-01T08:49:46.000Z</time>
      </trkpt>
      <trkpt lat="48.70431" lon="1.77244">
        <ele>181</ele>
        <time>2014-08-01T08:49:51.000Z</time>
      </trkpt>
      <trkpt lat="48.7044" lon="1.77239">
        <ele>181</ele>
        <time>2014-08-01T08:49:58.000Z</time>
      </trkpt>
      <trkpt lat="48.70449" lon="1.77234">
        <ele>181</ele>
        <time>2014-08-01T08:50:05.000Z</time>
      </trkpt>
      <trkpt lat="48.70458" lon="1.77233">
        <ele>181.19999694824</ele>
        <time>2014-08-01T08:50:11.000Z</time>
      </trkpt>
      <trkpt lat="48.70464" lon="1.77232">
        <ele>181.19999694824</ele>
        <time>2014-08-01T08:50:16.000Z</time>
      </trkpt>
      <trkpt lat="48.70469" lon="1.77231">
        <ele>181.19999694824</ele>
        <time>2014-08-01T08:50:19.000Z</time>
      </trkpt>
      <trkpt lat="48.70477" lon="1.77233">
        <ele>181.39999389648</ele>
        <time>2014-08-01T08:50:26.000Z</time>
      </trkpt>
      <trkpt lat="48.70487" lon="1.77231">
        <ele>181.39999389648</ele>
        <time>2014-08-01T08:50:33.000Z</time>
      </trkpt>
      <trkpt lat="48.70488" lon="1.77232">
        <ele>181.39999389648</ele>
        <time>2014-08-01T08:50:34.000Z</time>
      </trkpt>
      <trkpt lat="48.70495" lon="1.77233">
        <ele>181.60000610352</ele>
        <time>2014-08-01T08:50:40.000Z</time>
      </trkpt>
      <trkpt lat="48.70499" lon="1.77233">
        <ele>181.60000610352</ele>
        <time>2014-08-01T08:50:45.000Z</time>
      </trkpt>
      <trkpt lat="48.70505" lon="1.77232">
        <ele>181.60000610352</ele>
        <time>2014-08-01T08:50:51.000Z</time>
      </trkpt>
      <trkpt lat="48.70513" lon="1.77233">
        <ele>181.80000305176</ele>
        <time>2014-08-01T08:50:57.000Z</time>
      </trkpt>
      <trkpt lat="48.70515" lon="1.77233">
        <ele>181.80000305176</ele>
        <time>2014-08-01T08:50:58.000Z</time>
      </trkpt>
      <trkpt lat="48.70519" lon="1.77234">
        <ele>181.80000305176</ele>
        <time>2014-08-01T08:51:02.000Z</time>
      </trkpt>
      <trkpt lat="48.7053" lon="1.77235">
        <ele>181.60000610352</ele>
        <time>2014-08-01T08:51:10.000Z</time>
      </trkpt>
      <trkpt lat="48.70538" lon="1.77236">
        <ele>181.60000610352</ele>
        <time>2014-08-01T08:51:17.000Z</time>
      </trkpt>
      <trkpt lat="48.70547" lon="1.77237">
        <ele>181.60000610352</ele>
        <time>2014-08-01T08:51:24.000Z</time>
      </trkpt>
      <trkpt lat="48.70552" lon="1.77239">
        <ele>181.60000610352</ele>
        <time>2014-08-01T08:51:28.000Z</time>
      </trkpt>
      <trkpt lat="48.7056" lon="1.77239">
        <ele>181.60000610352</ele>
        <time>2014-08-01T08:51:33.000Z</time>
      </trkpt>
      <trkpt lat="48.7057" lon="1.77238">
        <ele>181.39999389648</ele>
        <time>2014-08-01T08:51:39.000Z</time>
      </trkpt>
      <trkpt lat="48.70573" lon="1.77237">
        <ele>181.39999389648</ele>
        <time>2014-08-01T08:51:41.000Z</time>
      </trkpt>
      <trkpt lat="48.70578" lon="1.77238">
        <ele>181.39999389648</ele>
        <time>2014-08-01T08:51:45.000Z</time>
      </trkpt>
      <trkpt lat="48.70589" lon="1.77239">
        <ele>181.19999694824</ele>
        <time>2014-08-01T08:51:53.000Z</time>
      </trkpt>
      <trkpt lat="48.70596" lon="1.77241">
        <ele>181</ele>
        <time>2014-08-01T08:51:57.000Z</time>
      </trkpt>
      <trkpt lat="48.70603" lon="1.77241">
        <ele>181</ele>
        <time>2014-08-01T08:52:02.000Z</time>
      </trkpt>
      <trkpt lat="48.70608" lon="1.77241">
        <ele>180.80000305176</ele>
        <time>2014-08-01T08:52:06.000Z</time>
      </trkpt>
      <trkpt lat="48.70617" lon="1.77244">
        <ele>180.39999389648</ele>
        <time>2014-08-01T08:52:14.000Z</time>
      </trkpt>
      <trkpt lat="48.70626" lon="1.77243">
        <ele>180</ele>
        <time>2014-08-01T08:52:20.000Z</time>
      </trkpt>
      <trkpt lat="48.70636" lon="1.77244">
        <ele>179.60000610352</ele>
        <time>2014-08-01T08:52:27.000Z</time>
      </trkpt>
      <trkpt lat="48.7064" lon="1.77244">
        <ele>179.39999389648</ele>
        <time>2014-08-01T08:52:30.000Z</time>
      </trkpt>
      <trkpt lat="48.70647" lon="1.77247">
        <ele>179.19999694824</ele>
        <time>2014-08-01T08:52:36.000Z</time>
      </trkpt>
      <trkpt lat="48.70658" lon="1.77249">
        <ele>178.60000610352</ele>
        <time>2014-08-01T08:52:44.000Z</time>
      </trkpt>
      <trkpt lat="48.70666" lon="1.77249">
        <ele>178.19999694824</ele>
        <time>2014-08-01T08:52:50.000Z</time>
      </trkpt>
      <trkpt lat="48.70673" lon="1.7725">
        <ele>178</ele>
        <time>2014-08-01T08:52:55.000Z</time>
      </trkpt>
      <trkpt lat="48.70679" lon="1.77252">
        <ele>177.80000305176</ele>
        <time>2014-08-01T08:53:00.000Z</time>
      </trkpt>
      <trkpt lat="48.70689" lon="1.77252">
        <ele>177.19999694824</ele>
        <time>2014-08-01T08:53:08.000Z</time>
      </trkpt>
      <trkpt lat="48.70693" lon="1.77253">
        <ele>177.19999694824</ele>
        <time>2014-08-01T08:53:12.000Z</time>
      </trkpt>
      <trkpt lat="48.70694" lon="1.77254">
        <ele>177.19999694824</ele>
        <time>2014-08-01T08:53:14.000Z</time>
      </trkpt>
      <trkpt lat="48.70701" lon="1.77254">
        <ele>176.80000305176</ele>
        <time>2014-08-01T08:53:20.000Z</time>
      </trkpt>
      <trkpt lat="48.7071" lon="1.77252">
        <ele>176.80000305176</ele>
        <time>2014-08-01T08:53:26.000Z</time>
      </trkpt>
      <trkpt lat="48.70712" lon="1.77252">
        <ele>176.60000610352</ele>
        <time>2014-08-01T08:53:28.000Z</time>
      </trkpt>
      <trkpt lat="48.70721" lon="1.77252">
        <ele>176.60000610352</ele>
        <time>2014-08-01T08:53:34.000Z</time>
      </trkpt>
      <trkpt lat="48.70728" lon="1.77254">
        <ele>176.60000610352</ele>
        <time>2014-08-01T08:53:40.000Z</time>
      </trkpt>
      <trkpt lat="48.70733" lon="1.77253">
        <ele>176.39999389648</ele>
        <time>2014-08-01T08:53:43.000Z</time>
      </trkpt>
      <trkpt lat="48.70735" lon="1.77254">
        <ele>176.39999389648</ele>
        <time>2014-08-01T08:53:45.000Z</time>
      </trkpt>
      <trkpt lat="48.70745" lon="1.77251">
        <ele>176.39999389648</ele>
        <time>2014-08-01T08:53:53.000Z</time>
      </trkpt>
      <trkpt lat="48.70752" lon="1.7725">
        <ele>176.19999694824</ele>
        <time>2014-08-01T08:54:00.000Z</time>
      </trkpt>
      <trkpt lat="48.70753" lon="1.7725">
        <ele>176.19999694824</ele>
        <time>2014-08-01T08:54:01.000Z</time>
      </trkpt>
      <trkpt lat="48.70759" lon="1.7725">
        <ele>176.19999694824</ele>
        <time>2014-08-01T08:54:05.000Z</time>
      </trkpt>
      <trkpt lat="48.70764" lon="1.77249">
        <ele>176</ele>
        <time>2014-08-01T08:54:09.000Z</time>
      </trkpt>
      <trkpt lat="48.70769" lon="1.77247">
        <ele>176</ele>
        <time>2014-08-01T08:54:13.000Z</time>
      </trkpt>
      <trkpt lat="48.7078" lon="1.77246">
        <ele>176</ele>
        <time>2014-08-01T08:54:21.000Z</time>
      </trkpt>
      <trkpt lat="48.70791" lon="1.77247">
        <ele>176.19999694824</ele>
        <time>2014-08-01T08:54:29.000Z</time>
      </trkpt>
      <trkpt lat="48.708" lon="1.77247">
        <ele>176.19999694824</ele>
        <time>2014-08-01T08:54:36.000Z</time>
      </trkpt>
      <trkpt lat="48.70802" lon="1.77248">
        <ele>176.19999694824</ele>
        <time>2014-08-01T08:54:38.000Z</time>
      </trkpt>
      <trkpt lat="48.70806" lon="1.77247">
        <ele>176.19999694824</ele>
        <time>2014-08-01T08:54:42.000Z</time>
      </trkpt>
      <trkpt lat="48.70808" lon="1.77246">
        <ele>176</ele>
        <time>2014-08-01T08:54:44.000Z</time>
      </trkpt>
      <trkpt lat="48.70816" lon="1.77244">
        <ele>176</ele>
        <time>2014-08-01T08:54:49.000Z</time>
      </trkpt>
      <trkpt lat="48.7082" lon="1.77245">
        <ele>176</ele>
        <time>2014-08-01T08:54:52.000Z</time>
      </trkpt>
      <trkpt lat="48.70822" lon="1.77245">
        <ele>176</ele>
        <time>2014-08-01T08:54:55.000Z</time>
      </trkpt>
      <trkpt lat="48.70829" lon="1.77243">
        <ele>176</ele>
        <time>2014-08-01T08:55:03.000Z</time>
      </trkpt>
      <trkpt lat="48.70833" lon="1.77242">
        <ele>176</ele>
        <time>2014-08-01T08:55:06.000Z</time>
      </trkpt>
      <trkpt lat="48.70839" lon="1.77241">
        <ele>176</ele>
        <time>2014-08-01T08:55:11.000Z</time>
      </trkpt>
      <trkpt lat="48.70845" lon="1.77241">
        <ele>176</ele>
        <time>2014-08-01T08:55:16.000Z</time>
      </trkpt>
      <trkpt lat="48.70852" lon="1.77242">
        <ele>176</ele>
        <time>2014-08-01T08:55:23.000Z</time>
      </trkpt>
      <trkpt lat="48.7086" lon="1.77244">
        <ele>176.19999694824</ele>
        <time>2014-08-01T08:55:30.000Z</time>
      </trkpt>
      <trkpt lat="48.70863" lon="1.77245">
        <ele>176.19999694824</ele>
        <time>2014-08-01T08:55:33.000Z</time>
      </trkpt>
      <trkpt lat="48.70866" lon="1.77246">
        <ele>176.19999694824</ele>
        <time>2014-08-01T08:55:36.000Z</time>
      </trkpt>
      <trkpt lat="48.70872" lon="1.7725">
        <ele>176.19999694824</ele>
        <time>2014-08-01T08:55:40.000Z</time>
      </trkpt>
      <trkpt lat="48.7088" lon="1.77261">
        <ele>176.60000610352</ele>
        <time>2014-08-01T08:55:47.000Z</time>
      </trkpt>
      <trkpt lat="48.70885" lon="1.77272">
        <ele>176.80000305176</ele>
        <time>2014-08-01T08:55:52.000Z</time>
      </trkpt>
      <trkpt lat="48.70886" lon="1.77275">
        <ele>176.80000305176</ele>
        <time>2014-08-01T08:55:54.000Z</time>
      </trkpt>
      <trkpt lat="48.70893" lon="1.77294">
        <ele>177.19999694824</ele>
        <time>2014-08-01T08:56:04.000Z</time>
      </trkpt>
      <trkpt lat="48.70894" lon="1.77303">
        <ele>177.19999694824</ele>
        <time>2014-08-01T08:56:11.000Z</time>
      </trkpt>
      <trkpt lat="48.70894" lon="1.77304">
        <ele>177.19999694824</ele>
        <time>2014-08-01T08:56:12.000Z</time>
      </trkpt>
      <trkpt lat="48.70902" lon="1.77327">
        <ele>177.39999389648</ele>
        <time>2014-08-01T08:56:40.000Z</time>
      </trkpt>
      <trkpt lat="48.70904" lon="1.77332">
        <ele>177.19999694824</ele>
        <time>2014-08-01T08:56:43.000Z</time>
      </trkpt>
      <trkpt lat="48.70907" lon="1.77337">
        <ele>177</ele>
        <time>2014-08-01T08:56:46.000Z</time>
      </trkpt>
      <trkpt lat="48.7091" lon="1.77345">
        <ele>176.80000305176</ele>
        <time>2014-08-01T08:56:51.000Z</time>
      </trkpt>
      <trkpt lat="48.70915" lon="1.77354">
        <ele>176.60000610352</ele>
        <time>2014-08-01T08:56:57.000Z</time>
      </trkpt>
      <trkpt lat="48.70919" lon="1.77364">
        <ele>176.19999694824</ele>
        <time>2014-08-01T08:57:04.000Z</time>
      </trkpt>
      <trkpt lat="48.70924" lon="1.77372">
        <ele>176</ele>
        <time>2014-08-01T08:57:12.000Z</time>
      </trkpt>
      <trkpt lat="48.70929" lon="1.77382">
        <ele>175.80000305176</ele>
        <time>2014-08-01T08:57:19.000Z</time>
      </trkpt>
      <trkpt lat="48.70931" lon="1.77385">
        <ele>175.60000610352</ele>
        <time>2014-08-01T08:57:21.000Z</time>
      </trkpt>
      <trkpt lat="48.70935" lon="1.77389">
        <ele>175.60000610352</ele>
        <time>2014-08-01T08:57:25.000Z</time>
      </trkpt>
      <trkpt lat="48.70937" lon="1.77394">
        <ele>175.39999389648</ele>
        <time>2014-08-01T08:57:28.000Z</time>
      </trkpt>
      <trkpt lat="48.70941" lon="1.77404">
        <ele>175</ele>
        <time>2014-08-01T08:57:34.000Z</time>
      </trkpt>
      <trkpt lat="48.70948" lon="1.77419">
        <ele>174.80000305176</ele>
        <time>2014-08-01T08:57:43.000Z</time>
      </trkpt>
      <trkpt lat="48.70953" lon="1.7743">
        <ele>174.60000610352</ele>
        <time>2014-08-01T08:57:49.000Z</time>
      </trkpt>
      <trkpt lat="48.70959" lon="1.77439">
        <ele>174.60000610352</ele>
        <time>2014-08-01T08:57:54.000Z</time>
      </trkpt>
      <trkpt lat="48.70963" lon="1.77448">
        <ele>174.39999389648</ele>
        <time>2014-08-01T08:58:00.000Z</time>
      </trkpt>
      <trkpt lat="48.70964" lon="1.7745">
        <ele>174.39999389648</ele>
        <time>2014-08-01T08:58:01.000Z</time>
      </trkpt>
      <trkpt lat="48.70969" lon="1.7746">
        <ele>174.39999389648</ele>
        <time>2014-08-01T08:58:08.000Z</time>
      </trkpt>
      <trkpt lat="48.7097" lon="1.7746">
        <ele>174.39999389648</ele>
        <time>2014-08-01T08:58:09.000Z</time>
      </trkpt>
      <trkpt lat="48.70974" lon="1.77467">
        <ele>174.19999694824</ele>
        <time>2014-08-01T08:58:17.000Z</time>
      </trkpt>
      <trkpt lat="48.70975" lon="1.77469">
        <ele>174.19999694824</ele>
        <time>2014-08-01T08:58:18.000Z</time>
      </trkpt>
      <trkpt lat="48.70979" lon="1.77477">
        <ele>174.19999694824</ele>
        <time>2014-08-01T08:58:22.000Z</time>
      </trkpt>
      <trkpt lat="48.70982" lon="1.77483">
        <ele>174</ele>
        <time>2014-08-01T08:58:26.000Z</time>
      </trkpt>
      <trkpt lat="48.70987" lon="1.77497">
        <ele>173.80000305176</ele>
        <time>2014-08-01T08:58:35.000Z</time>
      </trkpt>
      <trkpt lat="48.70992" lon="1.77506">
        <ele>173.60000610352</ele>
        <time>2014-08-01T08:58:41.000Z</time>
      </trkpt>
      <trkpt lat="48.70995" lon="1.77512">
        <ele>173.39999389648</ele>
        <time>2014-08-01T08:58:44.000Z</time>
      </trkpt>
      <trkpt lat="48.70998" lon="1.77519">
        <ele>173.19999694824</ele>
        <time>2014-08-01T08:58:49.000Z</time>
      </trkpt>
      <trkpt lat="48.71001" lon="1.77527">
        <ele>173</ele>
        <time>2014-08-01T08:58:54.000Z</time>
      </trkpt>
      <trkpt lat="48.71006" lon="1.77541">
        <ele>172.80000305176</ele>
        <time>2014-08-01T08:59:02.000Z</time>
      </trkpt>
      <trkpt lat="48.71008" lon="1.77546">
        <ele>172.60000610352</ele>
        <time>2014-08-01T08:59:05.000Z</time>
      </trkpt>
      <trkpt lat="48.71015" lon="1.77556">
        <ele>172.39999389648</ele>
        <time>2014-08-01T08:59:11.000Z</time>
      </trkpt>
      <trkpt lat="48.71016" lon="1.77564">
        <ele>172.19999694824</ele>
        <time>2014-08-01T08:59:16.000Z</time>
      </trkpt>
      <trkpt lat="48.71019" lon="1.77573">
        <ele>172</ele>
        <time>2014-08-01T08:59:21.000Z</time>
      </trkpt>
      <trkpt lat="48.71024" lon="1.77586">
        <ele>172</ele>
        <time>2014-08-01T08:59:27.000Z</time>
      </trkpt>
      <trkpt lat="48.71027" lon="1.77597">
        <ele>171.80000305176</ele>
        <time>2014-08-01T08:59:33.000Z</time>
      </trkpt>
      <trkpt lat="48.71032" lon="1.7761">
        <ele>171.80000305176</ele>
        <time>2014-08-01T08:59:40.000Z</time>
      </trkpt>
      <trkpt lat="48.71037" lon="1.77622">
        <ele>171.60000610352</ele>
        <time>2014-08-01T08:59:47.000Z</time>
      </trkpt>
      <trkpt lat="48.71043" lon="1.77631">
        <ele>171.39999389648</ele>
        <time>2014-08-01T08:59:52.000Z</time>
      </trkpt>
      <trkpt lat="48.71048" lon="1.7764">
        <ele>171.39999389648</ele>
        <time>2014-08-01T08:59:58.000Z</time>
      </trkpt>
      <trkpt lat="48.7105" lon="1.77647">
        <ele>171.19999694824</ele>
        <time>2014-08-01T09:00:03.000Z</time>
      </trkpt>
      <trkpt lat="48.71052" lon="1.77655">
        <ele>171.19999694824</ele>
        <time>2014-08-01T09:00:08.000Z</time>
      </trkpt>
      <trkpt lat="48.71056" lon="1.77669">
        <ele>171</ele>
        <time>2014-08-01T09:00:16.000Z</time>
      </trkpt>
      <trkpt lat="48.71058" lon="1.77674">
        <ele>170.80000305176</ele>
        <time>2014-08-01T09:00:20.000Z</time>
      </trkpt>
      <trkpt lat="48.71061" lon="1.77683">
        <ele>170.60000610352</ele>
        <time>2014-08-01T09:00:26.000Z</time>
      </trkpt>
      <trkpt lat="48.71061" lon="1.7769">
        <ele>170.60000610352</ele>
        <time>2014-08-01T09:00:30.000Z</time>
      </trkpt>
      <trkpt lat="48.71065" lon="1.77695">
        <ele>170.39999389648</ele>
        <time>2014-08-01T09:00:34.000Z</time>
      </trkpt>
      <trkpt lat="48.71071" lon="1.77707">
        <ele>170.19999694824</ele>
        <time>2014-08-01T09:00:42.000Z</time>
      </trkpt>
      <trkpt lat="48.71073" lon="1.77712">
        <ele>170</ele>
        <time>2014-08-01T09:00:45.000Z</time>
      </trkpt>
      <trkpt lat="48.71078" lon="1.77721">
        <ele>169.80000305176</ele>
        <time>2014-08-01T09:00:50.000Z</time>
      </trkpt>
      <trkpt lat="48.7108" lon="1.77723">
        <ele>169.80000305176</ele>
        <time>2014-08-01T09:00:52.000Z</time>
      </trkpt>
      <trkpt lat="48.71085" lon="1.77734">
        <ele>169.60000610352</ele>
        <time>2014-08-01T09:00:57.000Z</time>
      </trkpt>
      <trkpt lat="48.71089" lon="1.77747">
        <ele>169.39999389648</ele>
        <time>2014-08-01T09:01:04.000Z</time>
      </trkpt>
      <trkpt lat="48.71091" lon="1.77756">
        <ele>169.60000610352</ele>
        <time>2014-08-01T09:01:10.000Z</time>
      </trkpt>
      <trkpt lat="48.71098" lon="1.77768">
        <ele>169.39999389648</ele>
        <time>2014-08-01T09:01:18.000Z</time>
      </trkpt>
      <trkpt lat="48.71099" lon="1.77772">
        <ele>169.60000610352</ele>
        <time>2014-08-01T09:01:20.000Z</time>
      </trkpt>
      <trkpt lat="48.71105" lon="1.77785">
        <ele>169.60000610352</ele>
        <time>2014-08-01T09:01:27.000Z</time>
      </trkpt>
      <trkpt lat="48.71105" lon="1.77795">
        <ele>169.60000610352</ele>
        <time>2014-08-01T09:01:33.000Z</time>
      </trkpt>
      <trkpt lat="48.71107" lon="1.77803">
        <ele>169.80000305176</ele>
        <time>2014-08-01T09:01:37.000Z</time>
      </trkpt>
      <trkpt lat="48.71107" lon="1.77807">
        <ele>169.80000305176</ele>
        <time>2014-08-01T09:01:39.000Z</time>
      </trkpt>
      <trkpt lat="48.71108" lon="1.77817">
        <ele>170</ele>
        <time>2014-08-01T09:01:44.000Z</time>
      </trkpt>
      <trkpt lat="48.7111" lon="1.77828">
        <ele>170.19999694824</ele>
        <time>2014-08-01T09:01:50.000Z</time>
      </trkpt>
      <trkpt lat="48.71111" lon="1.77837">
        <ele>170</ele>
        <time>2014-08-01T09:01:56.000Z</time>
      </trkpt>
      <trkpt lat="48.7111" lon="1.77841">
        <ele>170</ele>
        <time>2014-08-01T09:01:58.000Z</time>
      </trkpt>
      <trkpt lat="48.71112" lon="1.77851">
        <ele>170</ele>
        <time>2014-08-01T09:02:03.000Z</time>
      </trkpt>
      <trkpt lat="48.71115" lon="1.77861">
        <ele>170</ele>
        <time>2014-08-01T09:02:09.000Z</time>
      </trkpt>
      <trkpt lat="48.71116" lon="1.7787">
        <ele>169.80000305176</ele>
        <time>2014-08-01T09:02:15.000Z</time>
      </trkpt>
      <trkpt lat="48.71117" lon="1.77874">
        <ele>169.80000305176</ele>
        <time>2014-08-01T09:02:18.000Z</time>
      </trkpt>
      <trkpt lat="48.7112" lon="1.77879">
        <ele>170</ele>
        <time>2014-08-01T09:02:21.000Z</time>
      </trkpt>
      <trkpt lat="48.71123" lon="1.77892">
        <ele>169.80000305176</ele>
        <time>2014-08-01T09:02:28.000Z</time>
      </trkpt>
      <trkpt lat="48.71124" lon="1.77905">
        <ele>169.80000305176</ele>
        <time>2014-08-01T09:02:35.000Z</time>
      </trkpt>
      <trkpt lat="48.71128" lon="1.77916">
        <ele>169.80000305176</ele>
        <time>2014-08-01T09:02:41.000Z</time>
      </trkpt>
      <trkpt lat="48.71131" lon="1.77921">
        <ele>169.80000305176</ele>
        <time>2014-08-01T09:02:45.000Z</time>
      </trkpt>
      <trkpt lat="48.71134" lon="1.7793">
        <ele>169.80000305176</ele>
        <time>2014-08-01T09:02:52.000Z</time>
      </trkpt>
      <trkpt lat="48.71135" lon="1.77932">
        <ele>169.80000305176</ele>
        <time>2014-08-01T09:02:53.000Z</time>
      </trkpt>
      <trkpt lat="48.71138" lon="1.77937">
        <ele>169.80000305176</ele>
        <time>2014-08-01T09:02:57.000Z</time>
      </trkpt>
      <trkpt lat="48.7114" lon="1.77953">
        <ele>170.19999694824</ele>
        <time>2014-08-01T09:03:06.000Z</time>
      </trkpt>
      <trkpt lat="48.71138" lon="1.77965">
        <ele>170.80000305176</ele>
        <time>2014-08-01T09:03:13.000Z</time>
      </trkpt>
      <trkpt lat="48.71135" lon="1.77976">
        <ele>171.19999694824</ele>
        <time>2014-08-01T09:03:18.000Z</time>
      </trkpt>
      <trkpt lat="48.71132" lon="1.77989">
        <ele>171.60000610352</ele>
        <time>2014-08-01T09:03:26.000Z</time>
      </trkpt>
      <trkpt lat="48.71134" lon="1.77999">
        <ele>172</ele>
        <time>2014-08-01T09:03:31.000Z</time>
      </trkpt>
      <trkpt lat="48.71137" lon="1.7801">
        <ele>172.39999389648</ele>
        <time>2014-08-01T09:03:38.000Z</time>
      </trkpt>
      <trkpt lat="48.71137" lon="1.78018">
        <ele>172.60000610352</ele>
        <time>2014-08-01T09:03:44.000Z</time>
      </trkpt>
      <trkpt lat="48.71138" lon="1.78023">
        <ele>172.80000305176</ele>
        <time>2014-08-01T09:03:49.000Z</time>
      </trkpt>
      <trkpt lat="48.71145" lon="1.78028">
        <ele>173</ele>
        <time>2014-08-01T09:03:55.000Z</time>
      </trkpt>
      <trkpt lat="48.7115" lon="1.78036">
        <ele>173.19999694824</ele>
        <time>2014-08-01T09:04:00.000Z</time>
      </trkpt>
      <trkpt lat="48.71155" lon="1.7804">
        <ele>173.19999694824</ele>
        <time>2014-08-01T09:04:06.000Z</time>
      </trkpt>
      <trkpt lat="48.71161" lon="1.78039">
        <ele>173.19999694824</ele>
        <time>2014-08-01T09:04:13.000Z</time>
      </trkpt>
      <trkpt lat="48.71166" lon="1.78047">
        <ele>173.39999389648</ele>
        <time>2014-08-01T09:04:19.000Z</time>
      </trkpt>
      <trkpt lat="48.71167" lon="1.78052">
        <ele>173.60000610352</ele>
        <time>2014-08-01T09:04:22.000Z</time>
      </trkpt>
      <trkpt lat="48.71169" lon="1.78056">
        <ele>173.60000610352</ele>
        <time>2014-08-01T09:04:26.000Z</time>
      </trkpt>
      <trkpt lat="48.71175" lon="1.78064">
        <ele>173.80000305176</ele>
        <time>2014-08-01T09:04:33.000Z</time>
      </trkpt>
      <trkpt lat="48.71176" lon="1.78066">
        <ele>173.80000305176</ele>
        <time>2014-08-01T09:04:35.000Z</time>
      </trkpt>
      <trkpt lat="48.71179" lon="1.78072">
        <ele>174</ele>
        <time>2014-08-01T09:04:41.000Z</time>
      </trkpt>
      <trkpt lat="48.71181" lon="1.78079">
        <ele>174.19999694824</ele>
        <time>2014-08-01T09:04:48.000Z</time>
      </trkpt>
      <trkpt lat="48.71183" lon="1.78087">
        <ele>174.39999389648</ele>
        <time>2014-08-01T09:04:54.000Z</time>
      </trkpt>
      <trkpt lat="48.71186" lon="1.78091">
        <ele>174.39999389648</ele>
        <time>2014-08-01T09:04:58.000Z</time>
      </trkpt>
      <trkpt lat="48.71188" lon="1.78095">
        <ele>174.60000610352</ele>
        <time>2014-08-01T09:05:02.000Z</time>
      </trkpt>
      <trkpt lat="48.71197" lon="1.78104">
        <ele>174.60000610352</ele>
        <time>2014-08-01T09:05:08.000Z</time>
      </trkpt>
      <trkpt lat="48.71201" lon="1.78108">
        <ele>174.80000305176</ele>
        <time>2014-08-01T09:05:12.000Z</time>
      </trkpt>
      <trkpt lat="48.71207" lon="1.78122">
        <ele>175</ele>
        <time>2014-08-01T09:05:19.000Z</time>
      </trkpt>
      <trkpt lat="48.71212" lon="1.78126">
        <ele>175</ele>
        <time>2014-08-01T09:05:22.000Z</time>
      </trkpt>
      <trkpt lat="48.71213" lon="1.78129">
        <ele>175</ele>
        <time>2014-08-01T09:05:24.000Z</time>
      </trkpt>
      <trkpt lat="48.71223" lon="1.78135">
        <ele>175.19999694824</ele>
        <time>2014-08-01T09:05:32.000Z</time>
      </trkpt>
      <trkpt lat="48.71233" lon="1.78141">
        <ele>175.19999694824</ele>
        <time>2014-08-01T09:05:40.000Z</time>
      </trkpt>
      <trkpt lat="48.71237" lon="1.78146">
        <ele>175.19999694824</ele>
        <time>2014-08-01T09:05:45.000Z</time>
      </trkpt>
      <trkpt lat="48.71241" lon="1.78159">
        <ele>175.39999389648</ele>
        <time>2014-08-01T09:05:54.000Z</time>
      </trkpt>
      <trkpt lat="48.71241" lon="1.78161">
        <ele>175.39999389648</ele>
        <time>2014-08-01T09:05:55.000Z</time>
      </trkpt>
      <trkpt lat="48.71247" lon="1.7817">
        <ele>175.60000610352</ele>
        <time>2014-08-01T09:06:04.000Z</time>
      </trkpt>
      <trkpt lat="48.7125" lon="1.78175">
        <ele>175.80000305176</ele>
        <time>2014-08-01T09:06:09.000Z</time>
      </trkpt>
      <trkpt lat="48.71261" lon="1.78187">
        <ele>175.80000305176</ele>
        <time>2014-08-01T09:06:19.000Z</time>
      </trkpt>
      <trkpt lat="48.71273" lon="1.78192">
        <ele>176</ele>
        <time>2014-08-01T09:06:25.000Z</time>
      </trkpt>
      <trkpt lat="48.71279" lon="1.78197">
        <ele>176.39999389648</ele>
        <time>2014-08-01T09:06:30.000Z</time>
      </trkpt>
      <trkpt lat="48.71288" lon="1.78202">
        <ele>176.80000305176</ele>
        <time>2014-08-01T09:06:38.000Z</time>
      </trkpt>
      <trkpt lat="48.71298" lon="1.78204">
        <ele>177.19999694824</ele>
        <time>2014-08-01T09:06:45.000Z</time>
      </trkpt>
      <trkpt lat="48.71302" lon="1.78206">
        <ele>177.39999389648</ele>
        <time>2014-08-01T09:06:48.000Z</time>
      </trkpt>
      <trkpt lat="48.71309" lon="1.78211">
        <ele>177.80000305176</ele>
        <time>2014-08-01T09:06:54.000Z</time>
      </trkpt>
      <trkpt lat="48.7131" lon="1.78213">
        <ele>177.80000305176</ele>
        <time>2014-08-01T09:06:59.000Z</time>
      </trkpt>
      <trkpt lat="48.71317" lon="1.78214">
        <ele>178.19999694824</ele>
        <time>2014-08-01T09:07:09.000Z</time>
      </trkpt>
      <trkpt lat="48.71329" lon="1.78213">
        <ele>178.39999389648</ele>
        <time>2014-08-01T09:07:14.000Z</time>
      </trkpt>
      <trkpt lat="48.71341" lon="1.78217">
        <ele>179</ele>
        <time>2014-08-01T09:07:21.000Z</time>
      </trkpt>
      <trkpt lat="48.71346" lon="1.78221">
        <ele>179.39999389648</ele>
        <time>2014-08-01T09:07:26.000Z</time>
      </trkpt>
      <trkpt lat="48.71346" lon="1.78221">
        <ele>179.39999389648</ele>
        <time>2014-08-01T09:07:28.000Z</time>
      </trkpt>
      <trkpt lat="48.71352" lon="1.78224">
        <ele>179.60000610352</ele>
        <time>2014-08-01T09:07:42.000Z</time>
      </trkpt>
      <trkpt lat="48.71356" lon="1.78223">
        <ele>179.60000610352</ele>
        <time>2014-08-01T09:07:45.000Z</time>
      </trkpt>
      <trkpt lat="48.7137" lon="1.78227">
        <ele>179.19999694824</ele>
        <time>2014-08-01T09:07:56.000Z</time>
      </trkpt>
      <trkpt lat="48.71374" lon="1.78228">
        <ele>179</ele>
        <time>2014-08-01T09:07:59.000Z</time>
      </trkpt>
      <trkpt lat="48.71378" lon="1.7823">
        <ele>179</ele>
        <time>2014-08-01T09:08:07.000Z</time>
      </trkpt>
      <trkpt lat="48.71383" lon="1.78232">
        <ele>178.80000305176</ele>
        <time>2014-08-01T09:08:12.000Z</time>
      </trkpt>
      <trkpt lat="48.71387" lon="1.78234">
        <ele>178.60000610352</ele>
        <time>2014-08-01T09:08:16.000Z</time>
      </trkpt>
      <trkpt lat="48.71393" lon="1.78235">
        <ele>178.60000610352</ele>
        <time>2014-08-01T09:08:20.000Z</time>
      </trkpt>
      <trkpt lat="48.71396" lon="1.78238">
        <ele>178.39999389648</ele>
        <time>2014-08-01T09:08:25.000Z</time>
      </trkpt>
      <trkpt lat="48.71396" lon="1.78238">
        <ele>178.39999389648</ele>
        <time>2014-08-01T09:08:26.000Z</time>
      </trkpt>
      <trkpt lat="48.71402" lon="1.78239">
        <ele>178.19999694824</ele>
        <time>2014-08-01T09:08:33.000Z</time>
      </trkpt>
      <trkpt lat="48.71407" lon="1.78243">
        <ele>178.19999694824</ele>
        <time>2014-08-01T09:08:39.000Z</time>
      </trkpt>
      <trkpt lat="48.71413" lon="1.78249">
        <ele>178.19999694824</ele>
        <time>2014-08-01T09:08:45.000Z</time>
      </trkpt>
      <trkpt lat="48.71419" lon="1.78249">
        <ele>178</ele>
        <time>2014-08-01T09:08:51.000Z</time>
      </trkpt>
      <trkpt lat="48.71427" lon="1.78255">
        <ele>178</ele>
        <time>2014-08-01T09:09:08.000Z</time>
      </trkpt>
      <trkpt lat="48.71443" lon="1.78261">
        <ele>177.80000305176</ele>
        <time>2014-08-01T09:09:27.000Z</time>
      </trkpt>
      <trkpt lat="48.71447" lon="1.78265">
        <ele>178</ele>
        <time>2014-08-01T09:09:33.000Z</time>
      </trkpt>
      <trkpt lat="48.71455" lon="1.78269">
        <ele>178.19999694824</ele>
        <time>2014-08-01T09:09:56.000Z</time>
      </trkpt>
      <trkpt lat="48.71458" lon="1.78269">
        <ele>178.19999694824</ele>
        <time>2014-08-01T09:10:00.000Z</time>
      </trkpt>
      <trkpt lat="48.71468" lon="1.78276">
        <ele>178.39999389648</ele>
        <time>2014-08-01T09:10:36.000Z</time>
      </trkpt>
      <trkpt lat="48.71478" lon="1.7828">
        <ele>178.60000610352</ele>
        <time>2014-08-01T09:10:41.000Z</time>
      </trkpt>
      <trkpt lat="48.71492" lon="1.78286">
        <ele>178.60000610352</ele>
        <time>2014-08-01T09:10:47.000Z</time>
      </trkpt>
      <trkpt lat="48.71511" lon="1.78291">
        <ele>178.60000610352</ele>
        <time>2014-08-01T09:10:53.000Z</time>
      </trkpt>
      <trkpt lat="48.71532" lon="1.78295">
        <ele>178.60000610352</ele>
        <time>2014-08-01T09:10:59.000Z</time>
      </trkpt>
      <trkpt lat="48.71555" lon="1.78305">
        <ele>178.80000305176</ele>
        <time>2014-08-01T09:11:06.000Z</time>
      </trkpt>
      <trkpt lat="48.71566" lon="1.7831">
        <ele>178.80000305176</ele>
        <time>2014-08-01T09:11:11.000Z</time>
      </trkpt>
      <trkpt lat="48.71578" lon="1.78319">
        <ele>179.19999694824</ele>
        <time>2014-08-01T09:11:16.000Z</time>
      </trkpt>
      <trkpt lat="48.7159" lon="1.78327">
        <ele>179.39999389648</ele>
        <time>2014-08-01T09:11:21.000Z</time>
      </trkpt>
      <trkpt lat="48.71603" lon="1.78335">
        <ele>179.39999389648</ele>
        <time>2014-08-01T09:11:26.000Z</time>
      </trkpt>
      <trkpt lat="48.71618" lon="1.78341">
        <ele>179</ele>
        <time>2014-08-01T09:11:31.000Z</time>
      </trkpt>
      <trkpt lat="48.71637" lon="1.78354">
        <ele>178.60000610352</ele>
        <time>2014-08-01T09:11:38.000Z</time>
      </trkpt>
      <trkpt lat="48.71646" lon="1.78379">
        <ele>179</ele>
        <time>2014-08-01T09:11:44.000Z</time>
      </trkpt>
      <trkpt lat="48.71647" lon="1.7839">
        <ele>179.39999389648</ele>
        <time>2014-08-01T09:11:46.000Z</time>
      </trkpt>
      <trkpt lat="48.71652" lon="1.78421">
        <ele>180.60000610352</ele>
        <time>2014-08-01T09:11:52.000Z</time>
      </trkpt>
      <trkpt lat="48.71654" lon="1.78445">
        <ele>182</ele>
        <time>2014-08-01T09:11:57.000Z</time>
      </trkpt>
      <trkpt lat="48.71654" lon="1.78463">
        <ele>182.80000305176</ele>
        <time>2014-08-01T09:12:01.000Z</time>
      </trkpt>
      <trkpt lat="48.71657" lon="1.78478">
        <ele>183.39999389648</ele>
        <time>2014-08-01T09:12:05.000Z</time>
      </trkpt>
      <trkpt lat="48.71666" lon="1.78494">
        <ele>183.60000610352</ele>
        <time>2014-08-01T09:12:10.000Z</time>
      </trkpt>
      <trkpt lat="48.71686" lon="1.7851">
        <ele>183.19999694824</ele>
        <time>2014-08-01T09:12:16.000Z</time>
      </trkpt>
      <trkpt lat="48.71707" lon="1.78523">
        <ele>182.19999694824</ele>
        <time>2014-08-01T09:12:22.000Z</time>
      </trkpt>
      <trkpt lat="48.71722" lon="1.78537">
        <ele>181.39999389648</ele>
        <time>2014-08-01T09:12:28.000Z</time>
      </trkpt>
      <trkpt lat="48.71729" lon="1.78549">
        <ele>181.19999694824</ele>
        <time>2014-08-01T09:12:34.000Z</time>
      </trkpt>
      <trkpt lat="48.71735" lon="1.78559">
        <ele>181</ele>
        <time>2014-08-01T09:12:41.000Z</time>
      </trkpt>
      <trkpt lat="48.71735" lon="1.7856">
        <ele>181</ele>
        <time>2014-08-01T09:12:42.000Z</time>
      </trkpt>
      <trkpt lat="48.71735" lon="1.78569">
        <ele>181.19999694824</ele>
        <time>2014-08-01T09:12:46.000Z</time>
      </trkpt>
      <trkpt lat="48.71737" lon="1.78579">
        <ele>181.19999694824</ele>
        <time>2014-08-01T09:12:50.000Z</time>
      </trkpt>
      <trkpt lat="48.71741" lon="1.78591">
        <ele>181.39999389648</ele>
        <time>2014-08-01T09:12:56.000Z</time>
      </trkpt>
      <trkpt lat="48.71743" lon="1.78598">
        <ele>181.60000610352</ele>
        <time>2014-08-01T09:12:59.000Z</time>
      </trkpt>
      <trkpt lat="48.71744" lon="1.78604">
        <ele>181.80000305176</ele>
        <time>2014-08-01T09:13:04.000Z</time>
      </trkpt>
      <trkpt lat="48.71747" lon="1.7861">
        <ele>181.80000305176</ele>
        <time>2014-08-01T09:13:24.000Z</time>
      </trkpt>
      <trkpt lat="48.71744" lon="1.78617">
        <ele>182.19999694824</ele>
        <time>2014-08-01T09:13:26.000Z</time>
      </trkpt>
      <trkpt lat="48.71737" lon="1.78636">
        <ele>182.60000610352</ele>
        <time>2014-08-01T09:13:32.000Z</time>
      </trkpt>
      <trkpt lat="48.71733" lon="1.78652">
        <ele>182.39999389648</ele>
        <time>2014-08-01T09:13:37.000Z</time>
      </trkpt>
      <trkpt lat="48.7173" lon="1.78666">
        <ele>182.19999694824</ele>
        <time>2014-08-01T09:13:41.000Z</time>
      </trkpt>
      <trkpt lat="48.71721" lon="1.78692">
        <ele>181.60000610352</ele>
        <time>2014-08-01T09:13:47.000Z</time>
      </trkpt>
      <trkpt lat="48.71713" lon="1.78719">
        <ele>181.19999694824</ele>
        <time>2014-08-01T09:13:53.000Z</time>
      </trkpt>
      <trkpt lat="48.71704" lon="1.78741">
        <ele>180.80000305176</ele>
        <time>2014-08-01T09:13:58.000Z</time>
      </trkpt>
      <trkpt lat="48.71697" lon="1.78765">
        <ele>180.60000610352</ele>
        <time>2014-08-01T09:14:03.000Z</time>
      </trkpt>
      <trkpt lat="48.71685" lon="1.78798">
        <ele>180.39999389648</ele>
        <time>2014-08-01T09:14:11.000Z</time>
      </trkpt>
      <trkpt lat="48.71677" lon="1.78835">
        <ele>180.19999694824</ele>
        <time>2014-08-01T09:14:19.000Z</time>
      </trkpt>
      <trkpt lat="48.71666" lon="1.78868">
        <ele>180.19999694824</ele>
        <time>2014-08-01T09:14:27.000Z</time>
      </trkpt>
      <trkpt lat="48.71656" lon="1.78893">
        <ele>180</ele>
        <time>2014-08-01T09:14:33.000Z</time>
      </trkpt>
      <trkpt lat="48.71644" lon="1.7893">
        <ele>180</ele>
        <time>2014-08-01T09:14:41.000Z</time>
      </trkpt>
      <trkpt lat="48.71632" lon="1.7896">
        <ele>180.39999389648</ele>
        <time>2014-08-01T09:14:48.000Z</time>
      </trkpt>
      <trkpt lat="48.71624" lon="1.78988">
        <ele>180.60000610352</ele>
        <time>2014-08-01T09:14:54.000Z</time>
      </trkpt>
      <trkpt lat="48.7162" lon="1.79012">
        <ele>180.19999694824</ele>
        <time>2014-08-01T09:14:59.000Z</time>
      </trkpt>
      <trkpt lat="48.71611" lon="1.79038">
        <ele>180.19999694824</ele>
        <time>2014-08-01T09:15:05.000Z</time>
      </trkpt>
      <trkpt lat="48.71604" lon="1.79065">
        <ele>180</ele>
        <time>2014-08-01T09:15:11.000Z</time>
      </trkpt>
      <trkpt lat="48.71595" lon="1.79091">
        <ele>180.60000610352</ele>
        <time>2014-08-01T09:15:17.000Z</time>
      </trkpt>
      <trkpt lat="48.71588" lon="1.79118">
        <ele>181.39999389648</ele>
        <time>2014-08-01T09:15:23.000Z</time>
      </trkpt>
      <trkpt lat="48.71578" lon="1.79146">
        <ele>182.19999694824</ele>
        <time>2014-08-01T09:15:29.000Z</time>
      </trkpt>
      <trkpt lat="48.71568" lon="1.79178">
        <ele>182.60000610352</ele>
        <time>2014-08-01T09:15:36.000Z</time>
      </trkpt>
      <trkpt lat="48.71564" lon="1.79194">
        <ele>182.80000305176</ele>
        <time>2014-08-01T09:15:40.000Z</time>
      </trkpt>
      <trkpt lat="48.71557" lon="1.79223">
        <ele>182.80000305176</ele>
        <time>2014-08-01T09:15:46.000Z</time>
      </trkpt>
      <trkpt lat="48.71548" lon="1.79252">
        <ele>182.60000610352</ele>
        <time>2014-08-01T09:15:53.000Z</time>
      </trkpt>
      <trkpt lat="48.71539" lon="1.79276">
        <ele>182</ele>
        <time>2014-08-01T09:15:59.000Z</time>
      </trkpt>
      <trkpt lat="48.71533" lon="1.79296">
        <ele>181</ele>
        <time>2014-08-01T09:16:04.000Z</time>
      </trkpt>
      <trkpt lat="48.71534" lon="1.79312">
        <ele>180.39999389648</ele>
        <time>2014-08-01T09:16:09.000Z</time>
      </trkpt>
      <trkpt lat="48.71534" lon="1.79314">
        <ele>180.19999694824</ele>
        <time>2014-08-01T09:16:10.000Z</time>
      </trkpt>
      <trkpt lat="48.71539" lon="1.7932">
        <ele>179.80000305176</ele>
        <time>2014-08-01T09:16:16.000Z</time>
      </trkpt>
      <trkpt lat="48.71549" lon="1.79321">
        <ele>179.60000610352</ele>
        <time>2014-08-01T09:16:22.000Z</time>
      </trkpt>
      <trkpt lat="48.71556" lon="1.79327">
        <ele>179.39999389648</ele>
        <time>2014-08-01T09:16:28.000Z</time>
      </trkpt>
      <trkpt lat="48.71561" lon="1.79331">
        <ele>179.19999694824</ele>
        <time>2014-08-01T09:16:33.000Z</time>
      </trkpt>
      <trkpt lat="48.71573" lon="1.79338">
        <ele>178.80000305176</ele>
        <time>2014-08-01T09:16:43.000Z</time>
      </trkpt>
      <trkpt lat="48.71584" lon="1.79346">
        <ele>178.39999389648</ele>
        <time>2014-08-01T09:16:52.000Z</time>
      </trkpt>
      <trkpt lat="48.71594" lon="1.79353">
        <ele>178</ele>
        <time>2014-08-01T09:16:59.000Z</time>
      </trkpt>
      <trkpt lat="48.71607" lon="1.79362">
        <ele>177.39999389648</ele>
        <time>2014-08-01T09:17:10.000Z</time>
      </trkpt>
      <trkpt lat="48.71619" lon="1.79369">
        <ele>177.19999694824</ele>
        <time>2014-08-01T09:17:19.000Z</time>
      </trkpt>
      <trkpt lat="48.7163" lon="1.79378">
        <ele>176.60000610352</ele>
        <time>2014-08-01T09:17:28.000Z</time>
      </trkpt>
      <trkpt lat="48.71642" lon="1.79384">
        <ele>176.19999694824</ele>
        <time>2014-08-01T09:17:37.000Z</time>
      </trkpt>
      <trkpt lat="48.71653" lon="1.79393">
        <ele>175.80000305176</ele>
        <time>2014-08-01T09:17:46.000Z</time>
      </trkpt>
      <trkpt lat="48.71663" lon="1.79401">
        <ele>175.39999389648</ele>
        <time>2014-08-01T09:17:54.000Z</time>
      </trkpt>
      <trkpt lat="48.71669" lon="1.79406">
        <ele>175.19999694824</ele>
        <time>2014-08-01T09:18:00.000Z</time>
      </trkpt>
      <trkpt lat="48.71673" lon="1.79409">
        <ele>175</ele>
        <time>2014-08-01T09:18:04.000Z</time>
      </trkpt>
      <trkpt lat="48.71683" lon="1.79417">
        <ele>174.80000305176</ele>
        <time>2014-08-01T09:18:13.000Z</time>
      </trkpt>
      <trkpt lat="48.71693" lon="1.79424">
        <ele>174.60000610352</ele>
        <time>2014-08-01T09:18:21.000Z</time>
      </trkpt>
      <trkpt lat="48.71698" lon="1.79429">
        <ele>174.39999389648</ele>
        <time>2014-08-01T09:18:26.000Z</time>
      </trkpt>
      <trkpt lat="48.71706" lon="1.79434">
        <ele>174.19999694824</ele>
        <time>2014-08-01T09:18:33.000Z</time>
      </trkpt>
      <trkpt lat="48.71707" lon="1.79435">
        <ele>174.19999694824</ele>
        <time>2014-08-01T09:18:34.000Z</time>
      </trkpt>
      <trkpt lat="48.71712" lon="1.79439">
        <ele>174.19999694824</ele>
        <time>2014-08-01T09:18:38.000Z</time>
      </trkpt>
      <trkpt lat="48.71718" lon="1.7944">
        <ele>174.19999694824</ele>
        <time>2014-08-01T09:18:42.000Z</time>
      </trkpt>
      <trkpt lat="48.71729" lon="1.79446">
        <ele>174</ele>
        <time>2014-08-01T09:18:51.000Z</time>
      </trkpt>
      <trkpt lat="48.71737" lon="1.79448">
        <ele>174.19999694824</ele>
        <time>2014-08-01T09:18:56.000Z</time>
      </trkpt>
      <trkpt lat="48.71747" lon="1.79454">
        <ele>174</ele>
        <time>2014-08-01T09:19:03.000Z</time>
      </trkpt>
      <trkpt lat="48.71754" lon="1.79461">
        <ele>174</ele>
        <time>2014-08-01T09:19:09.000Z</time>
      </trkpt>
      <trkpt lat="48.71757" lon="1.79463">
        <ele>174</ele>
        <time>2014-08-01T09:19:14.000Z</time>
      </trkpt>
      <trkpt lat="48.71767" lon="1.7947">
        <ele>173.80000305176</ele>
        <time>2014-08-01T09:19:32.000Z</time>
      </trkpt>
      <trkpt lat="48.71778" lon="1.79477">
        <ele>173.80000305176</ele>
        <time>2014-08-01T09:19:39.000Z</time>
      </trkpt>
      <trkpt lat="48.71785" lon="1.79486">
        <ele>173.60000610352</ele>
        <time>2014-08-01T09:19:48.000Z</time>
      </trkpt>
      <trkpt lat="48.71792" lon="1.7949">
        <ele>173.80000305176</ele>
        <time>2014-08-01T09:19:55.000Z</time>
      </trkpt>
      <trkpt lat="48.71802" lon="1.795">
        <ele>173.60000610352</ele>
        <time>2014-08-01T09:20:05.000Z</time>
      </trkpt>
      <trkpt lat="48.71811" lon="1.79507">
        <ele>173.60000610352</ele>
        <time>2014-08-01T09:20:13.000Z</time>
      </trkpt>
      <trkpt lat="48.71818" lon="1.79511">
        <ele>173.60000610352</ele>
        <time>2014-08-01T09:20:20.000Z</time>
      </trkpt>
      <trkpt lat="48.71823" lon="1.79515">
        <ele>173.60000610352</ele>
        <time>2014-08-01T09:20:24.000Z</time>
      </trkpt>
      <trkpt lat="48.71831" lon="1.79518">
        <ele>173.80000305176</ele>
        <time>2014-08-01T09:20:30.000Z</time>
      </trkpt>
      <trkpt lat="48.71839" lon="1.79524">
        <ele>173.80000305176</ele>
        <time>2014-08-01T09:20:37.000Z</time>
      </trkpt>
      <trkpt lat="48.71849" lon="1.7953">
        <ele>173.80000305176</ele>
        <time>2014-08-01T09:20:45.000Z</time>
      </trkpt>
      <trkpt lat="48.71857" lon="1.79535">
        <ele>174</ele>
        <time>2014-08-01T09:20:52.000Z</time>
      </trkpt>
      <trkpt lat="48.71869" lon="1.79544">
        <ele>174.60000610352</ele>
        <time>2014-08-01T09:21:03.000Z</time>
      </trkpt>
      <trkpt lat="48.7188" lon="1.79551">
        <ele>175.19999694824</ele>
        <time>2014-08-01T09:21:12.000Z</time>
      </trkpt>
      <trkpt lat="48.71888" lon="1.79556">
        <ele>175.60000610352</ele>
        <time>2014-08-01T09:21:20.000Z</time>
      </trkpt>
      <trkpt lat="48.71894" lon="1.79562">
        <ele>175.80000305176</ele>
        <time>2014-08-01T09:21:28.000Z</time>
      </trkpt>
      <trkpt lat="48.71905" lon="1.79566">
        <ele>176.60000610352</ele>
        <time>2014-08-01T09:21:35.000Z</time>
      </trkpt>
      <trkpt lat="48.71915" lon="1.79572">
        <ele>177.19999694824</ele>
        <time>2014-08-01T09:21:41.000Z</time>
      </trkpt>
      <trkpt lat="48.71923" lon="1.79574">
        <ele>177.80000305176</ele>
        <time>2014-08-01T09:21:47.000Z</time>
      </trkpt>
      <trkpt lat="48.71932" lon="1.79583">
        <ele>178.39999389648</ele>
        <time>2014-08-01T09:21:56.000Z</time>
      </trkpt>
      <trkpt lat="48.71941" lon="1.79589">
        <ele>179</ele>
        <time>2014-08-01T09:22:03.000Z</time>
      </trkpt>
      <trkpt lat="48.71946" lon="1.79594">
        <ele>179.19999694824</ele>
        <time>2014-08-01T09:22:07.000Z</time>
      </trkpt>
      <trkpt lat="48.71949" lon="1.79598">
        <ele>179.19999694824</ele>
        <time>2014-08-01T09:22:10.000Z</time>
      </trkpt>
      <trkpt lat="48.71954" lon="1.79599">
        <ele>179.39999389648</ele>
        <time>2014-08-01T09:22:17.000Z</time>
      </trkpt>
      <trkpt lat="48.71957" lon="1.79598">
        <ele>179.60000610352</ele>
        <time>2014-08-01T09:22:22.000Z</time>
      </trkpt>
      <trkpt lat="48.71966" lon="1.79601">
        <ele>180</ele>
        <time>2014-08-01T09:22:28.000Z</time>
      </trkpt>
      <trkpt lat="48.71967" lon="1.79601">
        <ele>180</ele>
        <time>2014-08-01T09:22:29.000Z</time>
      </trkpt>
      <trkpt lat="48.71969" lon="1.79607">
        <ele>180</ele>
        <time>2014-08-01T09:22:36.000Z</time>
      </trkpt>
      <trkpt lat="48.71978" lon="1.79616">
        <ele>180.39999389648</ele>
        <time>2014-08-01T09:22:45.000Z</time>
      </trkpt>
      <trkpt lat="48.71981" lon="1.79623">
        <ele>180.60000610352</ele>
        <time>2014-08-01T09:22:50.000Z</time>
      </trkpt>
      <trkpt lat="48.71986" lon="1.79627">
        <ele>180.60000610352</ele>
        <time>2014-08-01T09:22:56.000Z</time>
      </trkpt>
      <trkpt lat="48.71996" lon="1.79634">
        <ele>181</ele>
        <time>2014-08-01T09:23:03.000Z</time>
      </trkpt>
      <trkpt lat="48.71999" lon="1.79634">
        <ele>181.19999694824</ele>
        <time>2014-08-01T09:23:05.000Z</time>
      </trkpt>
      <trkpt lat="48.72004" lon="1.79635">
        <ele>181.39999389648</ele>
        <time>2014-08-01T09:23:10.000Z</time>
      </trkpt>
      <trkpt lat="48.72004" lon="1.79635">
        <ele>181.39999389648</ele>
        <time>2014-08-01T09:23:13.000Z</time>
      </trkpt>
      <trkpt lat="48.72009" lon="1.79635">
        <ele>181.80000305176</ele>
        <time>2014-08-01T09:23:24.000Z</time>
      </trkpt>
      <trkpt lat="48.72014" lon="1.79641">
        <ele>182</ele>
        <time>2014-08-01T09:23:34.000Z</time>
      </trkpt>
      <trkpt lat="48.72018" lon="1.79647">
        <ele>182</ele>
        <time>2014-08-01T09:23:40.000Z</time>
      </trkpt>
      <trkpt lat="48.72025" lon="1.79654">
        <ele>182.19999694824</ele>
        <time>2014-08-01T09:23:47.000Z</time>
      </trkpt>
      <trkpt lat="48.72027" lon="1.79655">
        <ele>182.39999389648</ele>
        <time>2014-08-01T09:23:49.000Z</time>
      </trkpt>
      <trkpt lat="48.72036" lon="1.79658">
        <ele>182.60000610352</ele>
        <time>2014-08-01T09:23:57.000Z</time>
      </trkpt>
      <trkpt lat="48.72044" lon="1.79666">
        <ele>182.39999389648</ele>
        <time>2014-08-01T09:24:05.000Z</time>
      </trkpt>
      <trkpt lat="48.72045" lon="1.79667">
        <ele>182.39999389648</ele>
        <time>2014-08-01T09:24:06.000Z</time>
      </trkpt>
      <trkpt lat="48.72054" lon="1.79671">
        <ele>182.39999389648</ele>
        <time>2014-08-01T09:24:13.000Z</time>
      </trkpt>
      <trkpt lat="48.72056" lon="1.79673">
        <ele>182.39999389648</ele>
        <time>2014-08-01T09:24:15.000Z</time>
      </trkpt>
      <trkpt lat="48.72063" lon="1.79678">
        <ele>182.39999389648</ele>
        <time>2014-08-01T09:24:21.000Z</time>
      </trkpt>
      <trkpt lat="48.72065" lon="1.79682">
        <ele>182.19999694824</ele>
        <time>2014-08-01T09:24:23.000Z</time>
      </trkpt>
      <trkpt lat="48.72065" lon="1.79684">
        <ele>182</ele>
        <time>2014-08-01T09:24:26.000Z</time>
      </trkpt>
      <trkpt lat="48.72071" lon="1.79684">
        <ele>182.39999389648</ele>
        <time>2014-08-01T09:24:33.000Z</time>
      </trkpt>
      <trkpt lat="48.72075" lon="1.79685">
        <ele>182.39999389648</ele>
        <time>2014-08-01T09:24:35.000Z</time>
      </trkpt>
      <trkpt lat="48.72083" lon="1.79687">
        <ele>182.60000610352</ele>
        <time>2014-08-01T09:24:41.000Z</time>
      </trkpt>
      <trkpt lat="48.72087" lon="1.79692">
        <ele>182.60000610352</ele>
        <time>2014-08-01T09:24:45.000Z</time>
      </trkpt>
      <trkpt lat="48.72096" lon="1.79697">
        <ele>182.60000610352</ele>
        <time>2014-08-01T09:24:51.000Z</time>
      </trkpt>
      <trkpt lat="48.721" lon="1.79699">
        <ele>182.60000610352</ele>
        <time>2014-08-01T09:24:54.000Z</time>
      </trkpt>
      <trkpt lat="48.72104" lon="1.79703">
        <ele>182.60000610352</ele>
        <time>2014-08-01T09:24:59.000Z</time>
      </trkpt>
      <trkpt lat="48.72112" lon="1.7971">
        <ele>182.19999694824</ele>
        <time>2014-08-01T09:25:07.000Z</time>
      </trkpt>
      <trkpt lat="48.7212" lon="1.79715">
        <ele>182</ele>
        <time>2014-08-01T09:25:14.000Z</time>
      </trkpt>
      <trkpt lat="48.72127" lon="1.79719">
        <ele>182</ele>
        <time>2014-08-01T09:25:20.000Z</time>
      </trkpt>
      <trkpt lat="48.72129" lon="1.79721">
        <ele>181.80000305176</ele>
        <time>2014-08-01T09:25:22.000Z</time>
      </trkpt>
      <trkpt lat="48.72132" lon="1.79726">
        <ele>181.60000610352</ele>
        <time>2014-08-01T09:25:26.000Z</time>
      </trkpt>
      <trkpt lat="48.72143" lon="1.79735">
        <ele>181.19999694824</ele>
        <time>2014-08-01T09:25:35.000Z</time>
      </trkpt>
      <trkpt lat="48.72151" lon="1.79741">
        <ele>181</ele>
        <time>2014-08-01T09:25:42.000Z</time>
      </trkpt>
      <trkpt lat="48.72155" lon="1.79746">
        <ele>181</ele>
        <time>2014-08-01T09:25:48.000Z</time>
      </trkpt>
      <trkpt lat="48.72163" lon="1.79754">
        <ele>180.80000305176</ele>
        <time>2014-08-01T09:25:55.000Z</time>
      </trkpt>
      <trkpt lat="48.72164" lon="1.79756">
        <ele>180.80000305176</ele>
        <time>2014-08-01T09:25:56.000Z</time>
      </trkpt>
      <trkpt lat="48.72165" lon="1.79758">
        <ele>180.80000305176</ele>
        <time>2014-08-01T09:25:58.000Z</time>
      </trkpt>
      <trkpt lat="48.72171" lon="1.79764">
        <ele>180.80000305176</ele>
        <time>2014-08-01T09:26:03.000Z</time>
      </trkpt>
      <trkpt lat="48.7218" lon="1.79769">
        <ele>180.80000305176</ele>
        <time>2014-08-01T09:26:09.000Z</time>
      </trkpt>
      <trkpt lat="48.72187" lon="1.79773">
        <ele>180.80000305176</ele>
        <time>2014-08-01T09:26:14.000Z</time>
      </trkpt>
      <trkpt lat="48.7219" lon="1.79773">
        <ele>180.80000305176</ele>
        <time>2014-08-01T09:26:17.000Z</time>
      </trkpt>
      <trkpt lat="48.722" lon="1.79775">
        <ele>181.19999694824</ele>
        <time>2014-08-01T09:26:25.000Z</time>
      </trkpt>
      <trkpt lat="48.72203" lon="1.79777">
        <ele>181.19999694824</ele>
        <time>2014-08-01T09:26:27.000Z</time>
      </trkpt>
      <trkpt lat="48.72209" lon="1.79782">
        <ele>181.19999694824</ele>
        <time>2014-08-01T09:26:32.000Z</time>
      </trkpt>
      <trkpt lat="48.7222" lon="1.79786">
        <ele>181.39999389648</ele>
        <time>2014-08-01T09:26:38.000Z</time>
      </trkpt>
      <trkpt lat="48.7223" lon="1.79792">
        <ele>181.60000610352</ele>
        <time>2014-08-01T09:26:45.000Z</time>
      </trkpt>
      <trkpt lat="48.72235" lon="1.79795">
        <ele>181.60000610352</ele>
        <time>2014-08-01T09:26:50.000Z</time>
      </trkpt>
      <trkpt lat="48.72239" lon="1.79798">
        <ele>181.80000305176</ele>
        <time>2014-08-01T09:26:54.000Z</time>
      </trkpt>
      <trkpt lat="48.72245" lon="1.79802">
        <ele>181.80000305176</ele>
        <time>2014-08-01T09:26:59.000Z</time>
      </trkpt>
      <trkpt lat="48.72254" lon="1.79807">
        <ele>182</ele>
        <time>2014-08-01T09:27:06.000Z</time>
      </trkpt>
      <trkpt lat="48.72264" lon="1.79815">
        <ele>182</ele>
        <time>2014-08-01T09:27:14.000Z</time>
      </trkpt>
      <trkpt lat="48.72271" lon="1.7982">
        <ele>182.19999694824</ele>
        <time>2014-08-01T09:27:20.000Z</time>
      </trkpt>
      <trkpt lat="48.72279" lon="1.79823">
        <ele>182.19999694824</ele>
        <time>2014-08-01T09:27:26.000Z</time>
      </trkpt>
      <trkpt lat="48.72281" lon="1.79824">
        <ele>182.19999694824</ele>
        <time>2014-08-01T09:27:28.000Z</time>
      </trkpt>
      <trkpt lat="48.72286" lon="1.7983">
        <ele>182.19999694824</ele>
        <time>2014-08-01T09:27:36.000Z</time>
      </trkpt>
      <trkpt lat="48.72297" lon="1.79844">
        <ele>181.80000305176</ele>
        <time>2014-08-01T09:27:45.000Z</time>
      </trkpt>
      <trkpt lat="48.72303" lon="1.79848">
        <ele>182</ele>
        <time>2014-08-01T09:27:51.000Z</time>
      </trkpt>
      <trkpt lat="48.72314" lon="1.79853">
        <ele>182</ele>
        <time>2014-08-01T09:28:00.000Z</time>
      </trkpt>
      <trkpt lat="48.7232" lon="1.79859">
        <ele>182</ele>
        <time>2014-08-01T09:28:07.000Z</time>
      </trkpt>
      <trkpt lat="48.72326" lon="1.79865">
        <ele>182</ele>
        <time>2014-08-01T09:28:12.000Z</time>
      </trkpt>
      <trkpt lat="48.72332" lon="1.7987">
        <ele>182</ele>
        <time>2014-08-01T09:28:17.000Z</time>
      </trkpt>
      <trkpt lat="48.72333" lon="1.79871">
        <ele>181.80000305176</ele>
        <time>2014-08-01T09:28:20.000Z</time>
      </trkpt>
      <trkpt lat="48.72343" lon="1.79874">
        <ele>182.19999694824</ele>
        <time>2014-08-01T09:28:27.000Z</time>
      </trkpt>
      <trkpt lat="48.72349" lon="1.79877">
        <ele>182.19999694824</ele>
        <time>2014-08-01T09:28:31.000Z</time>
      </trkpt>
      <trkpt lat="48.72357" lon="1.79883">
        <ele>182.19999694824</ele>
        <time>2014-08-01T09:28:37.000Z</time>
      </trkpt>
      <trkpt lat="48.72365" lon="1.79889">
        <ele>182.19999694824</ele>
        <time>2014-08-01T09:28:44.000Z</time>
      </trkpt>
      <trkpt lat="48.72372" lon="1.79893">
        <ele>182.39999389648</ele>
        <time>2014-08-01T09:28:50.000Z</time>
      </trkpt>
      <trkpt lat="48.72383" lon="1.79898">
        <ele>182.80000305176</ele>
        <time>2014-08-01T09:28:58.000Z</time>
      </trkpt>
      <trkpt lat="48.72388" lon="1.79901">
        <ele>182.80000305176</ele>
        <time>2014-08-01T09:29:02.000Z</time>
      </trkpt>
      <trkpt lat="48.72395" lon="1.79906">
        <ele>183</ele>
        <time>2014-08-01T09:29:08.000Z</time>
      </trkpt>
      <trkpt lat="48.72402" lon="1.79913">
        <ele>183</ele>
        <time>2014-08-01T09:29:15.000Z</time>
      </trkpt>
      <trkpt lat="48.72408" lon="1.79918">
        <ele>183</ele>
        <time>2014-08-01T09:29:21.000Z</time>
      </trkpt>
      <trkpt lat="48.72414" lon="1.79923">
        <ele>183</ele>
        <time>2014-08-01T09:29:28.000Z</time>
      </trkpt>
      <trkpt lat="48.72415" lon="1.79924">
        <ele>183</ele>
        <time>2014-08-01T09:29:29.000Z</time>
      </trkpt>
      <trkpt lat="48.72419" lon="1.79927">
        <ele>183</ele>
        <time>2014-08-01T09:29:33.000Z</time>
      </trkpt>
      <trkpt lat="48.72427" lon="1.79933">
        <ele>183.19999694824</ele>
        <time>2014-08-01T09:29:41.000Z</time>
      </trkpt>
      <trkpt lat="48.72433" lon="1.7994">
        <ele>183.19999694824</ele>
        <time>2014-08-01T09:29:49.000Z</time>
      </trkpt>
      <trkpt lat="48.72442" lon="1.79948">
        <ele>183.19999694824</ele>
        <time>2014-08-01T09:29:56.000Z</time>
      </trkpt>
      <trkpt lat="48.72452" lon="1.79954">
        <ele>183.19999694824</ele>
        <time>2014-08-01T09:30:04.000Z</time>
      </trkpt>
      <trkpt lat="48.72453" lon="1.79955">
        <ele>183.19999694824</ele>
        <time>2014-08-01T09:30:05.000Z</time>
      </trkpt>
      <trkpt lat="48.7246" lon="1.79956">
        <ele>183.39999389648</ele>
        <time>2014-08-01T09:30:09.000Z</time>
      </trkpt>
      <trkpt lat="48.72464" lon="1.79957">
        <ele>183.39999389648</ele>
        <time>2014-08-01T09:30:11.000Z</time>
      </trkpt>
      <trkpt lat="48.7247" lon="1.79961">
        <ele>183.39999389648</ele>
        <time>2014-08-01T09:30:16.000Z</time>
      </trkpt>
      <trkpt lat="48.72471" lon="1.79961">
        <ele>183.60000610352</ele>
        <time>2014-08-01T09:30:17.000Z</time>
      </trkpt>
      <trkpt lat="48.72472" lon="1.79963">
        <ele>183.39999389648</ele>
        <time>2014-08-01T09:30:20.000Z</time>
      </trkpt>
      <trkpt lat="48.72476" lon="1.79966">
        <ele>183.39999389648</ele>
        <time>2014-08-01T09:30:28.000Z</time>
      </trkpt>
      <trkpt lat="48.72484" lon="1.79971">
        <ele>183.60000610352</ele>
        <time>2014-08-01T09:30:35.000Z</time>
      </trkpt>
      <trkpt lat="48.72492" lon="1.79978">
        <ele>183.39999389648</ele>
        <time>2014-08-01T09:30:42.000Z</time>
      </trkpt>
      <trkpt lat="48.72499" lon="1.79985">
        <ele>183.39999389648</ele>
        <time>2014-08-01T09:30:48.000Z</time>
      </trkpt>
      <trkpt lat="48.72513" lon="1.79991">
        <ele>183.60000610352</ele>
        <time>2014-08-01T09:30:54.000Z</time>
      </trkpt>
      <trkpt lat="48.72523" lon="1.79996">
        <ele>183.39999389648</ele>
        <time>2014-08-01T09:31:01.000Z</time>
      </trkpt>
      <trkpt lat="48.72529" lon="1.79999">
        <ele>183.19999694824</ele>
        <time>2014-08-01T09:31:06.000Z</time>
      </trkpt>
      <trkpt lat="48.72536" lon="1.80006">
        <ele>182.80000305176</ele>
        <time>2014-08-01T09:31:12.000Z</time>
      </trkpt>
      <trkpt lat="48.72544" lon="1.80014">
        <ele>182.19999694824</ele>
        <time>2014-08-01T09:31:20.000Z</time>
      </trkpt>
      <trkpt lat="48.72552" lon="1.80023">
        <ele>181.60000610352</ele>
        <time>2014-08-01T09:31:28.000Z</time>
      </trkpt>
      <trkpt lat="48.72561" lon="1.8003">
        <ele>181</ele>
        <time>2014-08-01T09:31:36.000Z</time>
      </trkpt>
      <trkpt lat="48.72569" lon="1.80035">
        <ele>180.60000610352</ele>
        <time>2014-08-01T09:31:43.000Z</time>
      </trkpt>
      <trkpt lat="48.72578" lon="1.80041">
        <ele>180.19999694824</ele>
        <time>2014-08-01T09:31:51.000Z</time>
      </trkpt>
      <trkpt lat="48.72586" lon="1.80047">
        <ele>179.60000610352</ele>
        <time>2014-08-01T09:31:59.000Z</time>
      </trkpt>
      <trkpt lat="48.72595" lon="1.80054">
        <ele>179.19999694824</ele>
        <time>2014-08-01T09:32:08.000Z</time>
      </trkpt>
      <trkpt lat="48.72604" lon="1.80057">
        <ele>179</ele>
        <time>2014-08-01T09:32:14.000Z</time>
      </trkpt>
      <trkpt lat="48.72614" lon="1.80064">
        <ele>178.60000610352</ele>
        <time>2014-08-01T09:32:22.000Z</time>
      </trkpt>
      <trkpt lat="48.72622" lon="1.8007">
        <ele>178.39999389648</ele>
        <time>2014-08-01T09:32:28.000Z</time>
      </trkpt>
      <trkpt lat="48.72631" lon="1.80074">
        <ele>178.19999694824</ele>
        <time>2014-08-01T09:32:34.000Z</time>
      </trkpt>
      <trkpt lat="48.72632" lon="1.80075">
        <ele>178.19999694824</ele>
        <time>2014-08-01T09:32:35.000Z</time>
      </trkpt>
      <trkpt lat="48.72638" lon="1.80079">
        <ele>178.19999694824</ele>
        <time>2014-08-01T09:32:40.000Z</time>
      </trkpt>
      <trkpt lat="48.72647" lon="1.80087">
        <ele>178</ele>
        <time>2014-08-01T09:32:48.000Z</time>
      </trkpt>
      <trkpt lat="48.72652" lon="1.80093">
        <ele>177.80000305176</ele>
        <time>2014-08-01T09:32:53.000Z</time>
      </trkpt>
      <trkpt lat="48.72657" lon="1.80094">
        <ele>177.80000305176</ele>
        <time>2014-08-01T09:32:57.000Z</time>
      </trkpt>
      <trkpt lat="48.72662" lon="1.80092">
        <ele>178</ele>
        <time>2014-08-01T09:33:01.000Z</time>
      </trkpt>
      <trkpt lat="48.72671" lon="1.801">
        <ele>177.80000305176</ele>
        <time>2014-08-01T09:33:08.000Z</time>
      </trkpt>
      <trkpt lat="48.72677" lon="1.80104">
        <ele>177.80000305176</ele>
        <time>2014-08-01T09:33:13.000Z</time>
      </trkpt>
      <trkpt lat="48.72684" lon="1.80113">
        <ele>177.39999389648</ele>
        <time>2014-08-01T09:33:21.000Z</time>
      </trkpt>
      <trkpt lat="48.72685" lon="1.80114">
        <ele>177.39999389648</ele>
        <time>2014-08-01T09:33:22.000Z</time>
      </trkpt>
      <trkpt lat="48.72693" lon="1.80116">
        <ele>177.19999694824</ele>
        <time>2014-08-01T09:33:28.000Z</time>
      </trkpt>
      <trkpt lat="48.72698" lon="1.80117">
        <ele>176.80000305176</ele>
        <time>2014-08-01T09:33:31.000Z</time>
      </trkpt>
      <trkpt lat="48.72699" lon="1.8012">
        <ele>176.60000610352</ele>
        <time>2014-08-01T09:33:36.000Z</time>
      </trkpt>
      <trkpt lat="48.72708" lon="1.80124">
        <ele>176.19999694824</ele>
        <time>2014-08-01T09:33:52.000Z</time>
      </trkpt>
      <trkpt lat="48.72712" lon="1.80128">
        <ele>175.80000305176</ele>
        <time>2014-08-01T09:33:55.000Z</time>
      </trkpt>
      <trkpt lat="48.7272" lon="1.80136">
        <ele>175.19999694824</ele>
        <time>2014-08-01T09:34:03.000Z</time>
      </trkpt>
      <trkpt lat="48.72728" lon="1.80143">
        <ele>174.39999389648</ele>
        <time>2014-08-01T09:34:11.000Z</time>
      </trkpt>
      <trkpt lat="48.72737" lon="1.8015">
        <ele>173.80000305176</ele>
        <time>2014-08-01T09:34:19.000Z</time>
      </trkpt>
      <trkpt lat="48.72744" lon="1.80156">
        <ele>173.19999694824</ele>
        <time>2014-08-01T09:34:25.000Z</time>
      </trkpt>
      <trkpt lat="48.72751" lon="1.80161">
        <ele>173</ele>
        <time>2014-08-01T09:34:31.000Z</time>
      </trkpt>
      <trkpt lat="48.72756" lon="1.80164">
        <ele>172.80000305176</ele>
        <time>2014-08-01T09:34:36.000Z</time>
      </trkpt>
      <trkpt lat="48.72756" lon="1.80164">
        <ele>172.60000610352</ele>
        <time>2014-08-01T09:34:37.000Z</time>
      </trkpt>
      <trkpt lat="48.72758" lon="1.80165">
        <ele>172.60000610352</ele>
        <time>2014-08-01T09:34:43.000Z</time>
      </trkpt>
      <trkpt lat="48.7276" lon="1.80167">
        <ele>172.39999389648</ele>
        <time>2014-08-01T09:34:44.000Z</time>
      </trkpt>
      <trkpt lat="48.72768" lon="1.80171">
        <ele>172.19999694824</ele>
        <time>2014-08-01T09:34:51.000Z</time>
      </trkpt>
      <trkpt lat="48.72776" lon="1.80177">
        <ele>172</ele>
        <time>2014-08-01T09:34:58.000Z</time>
      </trkpt>
      <trkpt lat="48.7278" lon="1.8018">
        <ele>172</ele>
        <time>2014-08-01T09:35:01.000Z</time>
      </trkpt>
      <trkpt lat="48.72788" lon="1.80185">
        <ele>172</ele>
        <time>2014-08-01T09:35:07.000Z</time>
      </trkpt>
      <trkpt lat="48.72791" lon="1.80186">
        <ele>172</ele>
        <time>2014-08-01T09:35:09.000Z</time>
      </trkpt>
      <trkpt lat="48.72794" lon="1.80188">
        <ele>172</ele>
        <time>2014-08-01T09:35:12.000Z</time>
      </trkpt>
      <trkpt lat="48.72802" lon="1.80193">
        <ele>172</ele>
        <time>2014-08-01T09:35:18.000Z</time>
      </trkpt>
      <trkpt lat="48.72814" lon="1.80202">
        <ele>172</ele>
        <time>2014-08-01T09:35:29.000Z</time>
      </trkpt>
      <trkpt lat="48.72827" lon="1.80212">
        <ele>172</ele>
        <time>2014-08-01T09:35:40.000Z</time>
      </trkpt>
      <trkpt lat="48.72829" lon="1.80213">
        <ele>172</ele>
        <time>2014-08-01T09:35:42.000Z</time>
      </trkpt>
      <trkpt lat="48.72836" lon="1.80217">
        <ele>172</ele>
        <time>2014-08-01T09:35:48.000Z</time>
      </trkpt>
      <trkpt lat="48.72843" lon="1.80221">
        <ele>172</ele>
        <time>2014-08-01T09:35:54.000Z</time>
      </trkpt>
      <trkpt lat="48.72845" lon="1.80223">
        <ele>172</ele>
        <time>2014-08-01T09:35:56.000Z</time>
      </trkpt>
      <trkpt lat="48.72853" lon="1.8023">
        <ele>172</ele>
        <time>2014-08-01T09:36:04.000Z</time>
      </trkpt>
      <trkpt lat="48.72861" lon="1.80233">
        <ele>172.60000610352</ele>
        <time>2014-08-01T09:36:10.000Z</time>
      </trkpt>
      <trkpt lat="48.72867" lon="1.80238">
        <ele>173</ele>
        <time>2014-08-01T09:36:15.000Z</time>
      </trkpt>
      <trkpt lat="48.72871" lon="1.80242">
        <ele>173.19999694824</ele>
        <time>2014-08-01T09:36:19.000Z</time>
      </trkpt>
      <trkpt lat="48.7288" lon="1.80249">
        <ele>173.80000305176</ele>
        <time>2014-08-01T09:36:27.000Z</time>
      </trkpt>
      <trkpt lat="48.72892" lon="1.80257">
        <ele>174.39999389648</ele>
        <time>2014-08-01T09:36:37.000Z</time>
      </trkpt>
      <trkpt lat="48.729" lon="1.80262">
        <ele>175</ele>
        <time>2014-08-01T09:36:44.000Z</time>
      </trkpt>
      <trkpt lat="48.72912" lon="1.80271">
        <ele>175.80000305176</ele>
        <time>2014-08-01T09:36:55.000Z</time>
      </trkpt>
      <trkpt lat="48.7292" lon="1.80276">
        <ele>176.19999694824</ele>
        <time>2014-08-01T09:37:01.000Z</time>
      </trkpt>
      <trkpt lat="48.72924" lon="1.80279">
        <ele>176.60000610352</ele>
        <time>2014-08-01T09:37:06.000Z</time>
      </trkpt>
      <trkpt lat="48.72933" lon="1.80287">
        <ele>177.19999694824</ele>
        <time>2014-08-01T09:37:14.000Z</time>
      </trkpt>
      <trkpt lat="48.7294" lon="1.80293">
        <ele>177.39999389648</ele>
        <time>2014-08-01T09:37:21.000Z</time>
      </trkpt>
      <trkpt lat="48.72946" lon="1.80294">
        <ele>177.39999389648</ele>
        <time>2014-08-01T09:37:28.000Z</time>
      </trkpt>
      <trkpt lat="48.7295" lon="1.80299">
        <ele>177.39999389648</ele>
        <time>2014-08-01T09:37:36.000Z</time>
      </trkpt>
      <trkpt lat="48.72955" lon="1.80304">
        <ele>177.39999389648</ele>
        <time>2014-08-01T09:37:44.000Z</time>
      </trkpt>
      <trkpt lat="48.7296" lon="1.80306">
        <ele>177.39999389648</ele>
        <time>2014-08-01T09:37:50.000Z</time>
      </trkpt>
      <trkpt lat="48.72966" lon="1.80309">
        <ele>177.39999389648</ele>
        <time>2014-08-01T09:37:56.000Z</time>
      </trkpt>
      <trkpt lat="48.72969" lon="1.80313">
        <ele>177.39999389648</ele>
        <time>2014-08-01T09:38:02.000Z</time>
      </trkpt>
      <trkpt lat="48.72976" lon="1.80319">
        <ele>177.60000610352</ele>
        <time>2014-08-01T09:38:09.000Z</time>
      </trkpt>
      <trkpt lat="48.72988" lon="1.80323">
        <ele>177.60000610352</ele>
        <time>2014-08-01T09:38:15.000Z</time>
      </trkpt>
      <trkpt lat="48.7299" lon="1.80325">
        <ele>177.60000610352</ele>
        <time>2014-08-01T09:38:17.000Z</time>
      </trkpt>
      <trkpt lat="48.72997" lon="1.80329">
        <ele>177.80000305176</ele>
        <time>2014-08-01T09:38:22.000Z</time>
      </trkpt>
      <trkpt lat="48.73007" lon="1.80332">
        <ele>177.80000305176</ele>
        <time>2014-08-01T09:38:29.000Z</time>
      </trkpt>
      <trkpt lat="48.7301" lon="1.80334">
        <ele>177.80000305176</ele>
        <time>2014-08-01T09:38:32.000Z</time>
      </trkpt>
      <trkpt lat="48.73016" lon="1.80338">
        <ele>178</ele>
        <time>2014-08-01T09:38:38.000Z</time>
      </trkpt>
      <trkpt lat="48.73018" lon="1.8034">
        <ele>178</ele>
        <time>2014-08-01T09:38:40.000Z</time>
      </trkpt>
      <trkpt lat="48.73025" lon="1.80343">
        <ele>178.19999694824</ele>
        <time>2014-08-01T09:38:45.000Z</time>
      </trkpt>
      <trkpt lat="48.73034" lon="1.80352">
        <ele>178.39999389648</ele>
        <time>2014-08-01T09:38:53.000Z</time>
      </trkpt>
      <trkpt lat="48.73039" lon="1.80358">
        <ele>178.60000610352</ele>
        <time>2014-08-01T09:39:00.000Z</time>
      </trkpt>
      <trkpt lat="48.73045" lon="1.80361">
        <ele>178.80000305176</ele>
        <time>2014-08-01T09:39:04.000Z</time>
      </trkpt>
      <trkpt lat="48.73051" lon="1.80365">
        <ele>179</ele>
        <time>2014-08-01T09:39:10.000Z</time>
      </trkpt>
      <trkpt lat="48.73052" lon="1.80365">
        <ele>179.19999694824</ele>
        <time>2014-08-01T09:39:11.000Z</time>
      </trkpt>
      <trkpt lat="48.73056" lon="1.80366">
        <ele>179.19999694824</ele>
        <time>2014-08-01T09:39:15.000Z</time>
      </trkpt>
      <trkpt lat="48.73058" lon="1.80368">
        <ele>179.39999389648</ele>
        <time>2014-08-01T09:39:18.000Z</time>
      </trkpt>
      <trkpt lat="48.73064" lon="1.80372">
        <ele>179.60000610352</ele>
        <time>2014-08-01T09:39:24.000Z</time>
      </trkpt>
      <trkpt lat="48.73071" lon="1.80376">
        <ele>179.80000305176</ele>
        <time>2014-08-01T09:39:29.000Z</time>
      </trkpt>
      <trkpt lat="48.73082" lon="1.80383">
        <ele>180.19999694824</ele>
        <time>2014-08-01T09:39:37.000Z</time>
      </trkpt>
      <trkpt lat="48.73092" lon="1.80386">
        <ele>180.39999389648</ele>
        <time>2014-08-01T09:39:43.000Z</time>
      </trkpt>
      <trkpt lat="48.73098" lon="1.80391">
        <ele>180.60000610352</ele>
        <time>2014-08-01T09:39:48.000Z</time>
      </trkpt>
      <trkpt lat="48.731" lon="1.80394">
        <ele>180.80000305176</ele>
        <time>2014-08-01T09:39:50.000Z</time>
      </trkpt>
      <trkpt lat="48.73108" lon="1.804">
        <ele>181</ele>
        <time>2014-08-01T09:39:57.000Z</time>
      </trkpt>
      <trkpt lat="48.73109" lon="1.804">
        <ele>181</ele>
        <time>2014-08-01T09:39:58.000Z</time>
      </trkpt>
      <trkpt lat="48.73112" lon="1.80403">
        <ele>181</ele>
        <time>2014-08-01T09:40:02.000Z</time>
      </trkpt>
      <trkpt lat="48.73122" lon="1.80412">
        <ele>181.19999694824</ele>
        <time>2014-08-01T09:40:10.000Z</time>
      </trkpt>
      <trkpt lat="48.73123" lon="1.80416">
        <ele>181.39999389648</ele>
        <time>2014-08-01T09:40:12.000Z</time>
      </trkpt>
      <trkpt lat="48.7313" lon="1.80422">
        <ele>181.60000610352</ele>
        <time>2014-08-01T09:40:19.000Z</time>
      </trkpt>
      <trkpt lat="48.73134" lon="1.80428">
        <ele>181.80000305176</ele>
        <time>2014-08-01T09:40:24.000Z</time>
      </trkpt>
      <trkpt lat="48.7314" lon="1.80432">
        <ele>182</ele>
        <time>2014-08-01T09:40:29.000Z</time>
      </trkpt>
      <trkpt lat="48.73142" lon="1.80433">
        <ele>182</ele>
        <time>2014-08-01T09:40:30.000Z</time>
      </trkpt>
      <trkpt lat="48.73148" lon="1.80438">
        <ele>182.19999694824</ele>
        <time>2014-08-01T09:40:35.000Z</time>
      </trkpt>
      <trkpt lat="48.73161" lon="1.80446">
        <ele>182.39999389648</ele>
        <time>2014-08-01T09:40:44.000Z</time>
      </trkpt>
      <trkpt lat="48.73166" lon="1.8045">
        <ele>182.60000610352</ele>
        <time>2014-08-01T09:40:48.000Z</time>
      </trkpt>
      <trkpt lat="48.73169" lon="1.80454">
        <ele>182.80000305176</ele>
        <time>2014-08-01T09:40:52.000Z</time>
      </trkpt>
      <trkpt lat="48.73176" lon="1.80459">
        <ele>183</ele>
        <time>2014-08-01T09:40:58.000Z</time>
      </trkpt>
      <trkpt lat="48.73185" lon="1.80465">
        <ele>183.19999694824</ele>
        <time>2014-08-01T09:41:06.000Z</time>
      </trkpt>
      <trkpt lat="48.73188" lon="1.80466">
        <ele>183.19999694824</ele>
        <time>2014-08-01T09:41:08.000Z</time>
      </trkpt>
      <trkpt lat="48.73197" lon="1.80474">
        <ele>184.39999389648</ele>
        <time>2014-08-01T09:41:17.000Z</time>
      </trkpt>
      <trkpt lat="48.732" lon="1.80478">
        <ele>184.80000305176</ele>
        <time>2014-08-01T09:41:20.000Z</time>
      </trkpt>
      <trkpt lat="48.73205" lon="1.80481">
        <ele>185.39999389648</ele>
        <time>2014-08-01T09:41:24.000Z</time>
      </trkpt>
      <trkpt lat="48.73213" lon="1.80495">
        <ele>186.60000610352</ele>
        <time>2014-08-01T09:41:33.000Z</time>
      </trkpt>
      <trkpt lat="48.73222" lon="1.80503">
        <ele>187.39999389648</ele>
        <time>2014-08-01T09:41:39.000Z</time>
      </trkpt>
      <trkpt lat="48.73228" lon="1.80508">
        <ele>188</ele>
        <time>2014-08-01T09:41:46.000Z</time>
      </trkpt>
      <trkpt lat="48.73228" lon="1.80507">
        <ele>188.19999694824</ele>
        <time>2014-08-01T09:41:47.000Z</time>
      </trkpt>
      <trkpt lat="48.73237" lon="1.80514">
        <ele>189.19999694824</ele>
        <time>2014-08-01T09:42:04.000Z</time>
      </trkpt>
      <trkpt lat="48.73238" lon="1.80515">
        <ele>189.19999694824</ele>
        <time>2014-08-01T09:42:05.000Z</time>
      </trkpt>
      <trkpt lat="48.73245" lon="1.80522">
        <ele>190</ele>
        <time>2014-08-01T09:42:11.000Z</time>
      </trkpt>
      <trkpt lat="48.73245" lon="1.80522">
        <ele>190</ele>
        <time>2014-08-01T09:42:13.000Z</time>
      </trkpt>
      <trkpt lat="48.7325" lon="1.80527">
        <ele>190.60000610352</ele>
        <time>2014-08-01T09:42:20.000Z</time>
      </trkpt>
      <trkpt lat="48.73252" lon="1.80528">
        <ele>190.60000610352</ele>
        <time>2014-08-01T09:42:21.000Z</time>
      </trkpt>
      <trkpt lat="48.7326" lon="1.80534">
        <ele>191.60000610352</ele>
        <time>2014-08-01T09:42:26.000Z</time>
      </trkpt>
      <trkpt lat="48.73272" lon="1.80546">
        <ele>192.80000305176</ele>
        <time>2014-08-01T09:42:34.000Z</time>
      </trkpt>
      <trkpt lat="48.73277" lon="1.8055">
        <ele>193</ele>
        <time>2014-08-01T09:42:38.000Z</time>
      </trkpt>
      <trkpt lat="48.73285" lon="1.80557">
        <ele>193.19999694824</ele>
        <time>2014-08-01T09:42:45.000Z</time>
      </trkpt>
      <trkpt lat="48.73287" lon="1.80559">
        <ele>193.19999694824</ele>
        <time>2014-08-01T09:42:48.000Z</time>
      </trkpt>
      <trkpt lat="48.73289" lon="1.80565">
        <ele>193.39999389648</ele>
        <time>2014-08-01T09:42:52.000Z</time>
      </trkpt>
      <trkpt lat="48.73295" lon="1.80571">
        <ele>193.60000610352</ele>
        <time>2014-08-01T09:42:58.000Z</time>
      </trkpt>
      <trkpt lat="48.733" lon="1.8058">
        <ele>193.80000305176</ele>
        <time>2014-08-01T09:43:05.000Z</time>
      </trkpt>
      <trkpt lat="48.73308" lon="1.80588">
        <ele>194</ele>
        <time>2014-08-01T09:43:13.000Z</time>
      </trkpt>
      <trkpt lat="48.73316" lon="1.80596">
        <ele>194.39999389648</ele>
        <time>2014-08-01T09:43:20.000Z</time>
      </trkpt>
      <trkpt lat="48.73324" lon="1.80602">
        <ele>194.60000610352</ele>
        <time>2014-08-01T09:43:26.000Z</time>
      </trkpt>
      <trkpt lat="48.73331" lon="1.80609">
        <ele>194.80000305176</ele>
        <time>2014-08-01T09:43:33.000Z</time>
      </trkpt>
      <trkpt lat="48.73337" lon="1.80616">
        <ele>195.19999694824</ele>
        <time>2014-08-01T09:43:40.000Z</time>
      </trkpt>
      <trkpt lat="48.73342" lon="1.8062">
        <ele>195.19999694824</ele>
        <time>2014-08-01T09:43:45.000Z</time>
      </trkpt>
      <trkpt lat="48.73343" lon="1.80621">
        <ele>195.39999389648</ele>
        <time>2014-08-01T09:43:48.000Z</time>
      </trkpt>
      <trkpt lat="48.7335" lon="1.80628">
        <ele>195.60000610352</ele>
        <time>2014-08-01T09:44:00.000Z</time>
      </trkpt>
      <trkpt lat="48.73359" lon="1.80635">
        <ele>195.60000610352</ele>
        <time>2014-08-01T09:44:06.000Z</time>
      </trkpt>
      <trkpt lat="48.73366" lon="1.80644">
        <ele>195.39999389648</ele>
        <time>2014-08-01T09:44:13.000Z</time>
      </trkpt>
      <trkpt lat="48.73375" lon="1.80651">
        <ele>195.19999694824</ele>
        <time>2014-08-01T09:44:20.000Z</time>
      </trkpt>
      <trkpt lat="48.7338" lon="1.80654">
        <ele>195</ele>
        <time>2014-08-01T09:44:25.000Z</time>
      </trkpt>
      <trkpt lat="48.73384" lon="1.80662">
        <ele>195</ele>
        <time>2014-08-01T09:44:30.000Z</time>
      </trkpt>
      <trkpt lat="48.7339" lon="1.80671">
        <ele>195</ele>
        <time>2014-08-01T09:44:37.000Z</time>
      </trkpt>
      <trkpt lat="48.73392" lon="1.80674">
        <ele>195</ele>
        <time>2014-08-01T09:44:40.000Z</time>
      </trkpt>
      <trkpt lat="48.73396" lon="1.80681">
        <ele>195.19999694824</ele>
        <time>2014-08-01T09:44:47.000Z</time>
      </trkpt>
      <trkpt lat="48.73407" lon="1.80688">
        <ele>194.80000305176</ele>
        <time>2014-08-01T09:44:53.000Z</time>
      </trkpt>
      <trkpt lat="48.73419" lon="1.80693">
        <ele>194.60000610352</ele>
        <time>2014-08-01T09:45:01.000Z</time>
      </trkpt>
      <trkpt lat="48.73425" lon="1.80695">
        <ele>194.39999389648</ele>
        <time>2014-08-01T09:45:07.000Z</time>
      </trkpt>
      <trkpt lat="48.73424" lon="1.80697">
        <ele>194.39999389648</ele>
        <time>2014-08-01T09:45:12.000Z</time>
      </trkpt>
      <trkpt lat="48.73428" lon="1.80701">
        <ele>194.39999389648</ele>
        <time>2014-08-01T09:45:16.000Z</time>
      </trkpt>
      <trkpt lat="48.73429" lon="1.80702">
        <ele>194.39999389648</ele>
        <time>2014-08-01T09:45:17.000Z</time>
      </trkpt>
      <trkpt lat="48.73435" lon="1.80708">
        <ele>194.39999389648</ele>
        <time>2014-08-01T09:45:22.000Z</time>
      </trkpt>
      <trkpt lat="48.73439" lon="1.8071">
        <ele>194.19999694824</ele>
        <time>2014-08-01T09:45:30.000Z</time>
      </trkpt>
      <trkpt lat="48.73442" lon="1.80713">
        <ele>194.19999694824</ele>
        <time>2014-08-01T09:45:34.000Z</time>
      </trkpt>
      <trkpt lat="48.73455" lon="1.80721">
        <ele>194.19999694824</ele>
        <time>2014-08-01T09:45:43.000Z</time>
      </trkpt>
      <trkpt lat="48.73463" lon="1.80725">
        <ele>194</ele>
        <time>2014-08-01T09:45:49.000Z</time>
      </trkpt>
      <trkpt lat="48.73464" lon="1.80727">
        <ele>194</ele>
        <time>2014-08-01T09:45:52.000Z</time>
      </trkpt>
      <trkpt lat="48.73468" lon="1.80744">
        <ele>194.39999389648</ele>
        <time>2014-08-01T09:46:36.000Z</time>
      </trkpt>
      <trkpt lat="48.73468" lon="1.80745">
        <ele>194.39999389648</ele>
        <time>2014-08-01T09:46:37.000Z</time>
      </trkpt>
      <trkpt lat="48.73478" lon="1.8075">
        <ele>194.19999694824</ele>
        <time>2014-08-01T09:46:43.000Z</time>
      </trkpt>
      <trkpt lat="48.73482" lon="1.80753">
        <ele>194.19999694824</ele>
        <time>2014-08-01T09:46:49.000Z</time>
      </trkpt>
      <trkpt lat="48.73489" lon="1.80763">
        <ele>194.39999389648</ele>
        <time>2014-08-01T09:47:00.000Z</time>
      </trkpt>
      <trkpt lat="48.73494" lon="1.80769">
        <ele>194.39999389648</ele>
        <time>2014-08-01T09:47:05.000Z</time>
      </trkpt>
      <trkpt lat="48.73497" lon="1.80771">
        <ele>194.39999389648</ele>
        <time>2014-08-01T09:47:08.000Z</time>
      </trkpt>
      <trkpt lat="48.73503" lon="1.80776">
        <ele>194.39999389648</ele>
        <time>2014-08-01T09:47:15.000Z</time>
      </trkpt>
      <trkpt lat="48.73511" lon="1.80784">
        <ele>194.39999389648</ele>
        <time>2014-08-01T09:47:21.000Z</time>
      </trkpt>
      <trkpt lat="48.73516" lon="1.80787">
        <ele>194.19999694824</ele>
        <time>2014-08-01T09:47:25.000Z</time>
      </trkpt>
      <trkpt lat="48.73518" lon="1.8079">
        <ele>194.39999389648</ele>
        <time>2014-08-01T09:47:27.000Z</time>
      </trkpt>
      <trkpt lat="48.73525" lon="1.80795">
        <ele>194.19999694824</ele>
        <time>2014-08-01T09:47:34.000Z</time>
      </trkpt>
      <trkpt lat="48.73526" lon="1.80796">
        <ele>194.19999694824</ele>
        <time>2014-08-01T09:47:35.000Z</time>
      </trkpt>
      <trkpt lat="48.73531" lon="1.80799">
        <ele>194</ele>
        <time>2014-08-01T09:47:38.000Z</time>
      </trkpt>
      <trkpt lat="48.73536" lon="1.80805">
        <ele>194</ele>
        <time>2014-08-01T09:47:43.000Z</time>
      </trkpt>
      <trkpt lat="48.73548" lon="1.80812">
        <ele>193.80000305176</ele>
        <time>2014-08-01T09:47:51.000Z</time>
      </trkpt>
      <trkpt lat="48.73559" lon="1.80822">
        <ele>193.60000610352</ele>
        <time>2014-08-01T09:48:00.000Z</time>
      </trkpt>
      <trkpt lat="48.7357" lon="1.80829">
        <ele>193.19999694824</ele>
        <time>2014-08-01T09:48:08.000Z</time>
      </trkpt>
      <trkpt lat="48.73578" lon="1.8084">
        <ele>193</ele>
        <time>2014-08-01T09:48:16.000Z</time>
      </trkpt>
      <trkpt lat="48.73579" lon="1.8084">
        <ele>192.80000305176</ele>
        <time>2014-08-01T09:48:19.000Z</time>
      </trkpt>
      <trkpt lat="48.73573" lon="1.80841">
        <ele>193.19999694824</ele>
        <time>2014-08-01T09:49:13.000Z</time>
      </trkpt>
      <trkpt lat="48.73577" lon="1.80839">
        <ele>193</ele>
        <time>2014-08-01T09:49:21.000Z</time>
      </trkpt>
      <trkpt lat="48.73577" lon="1.80842">
        <ele>193</ele>
        <time>2014-08-01T09:49:43.000Z</time>
      </trkpt>
      <trkpt lat="48.73567" lon="1.80855">
        <ele>193.39999389648</ele>
        <time>2014-08-01T09:49:48.000Z</time>
      </trkpt>
      <trkpt lat="48.73564" lon="1.80858">
        <ele>193.39999389648</ele>
        <time>2014-08-01T09:49:50.000Z</time>
      </trkpt>
      <trkpt lat="48.73564" lon="1.80862">
        <ele>193.39999389648</ele>
        <time>2014-08-01T09:49:52.000Z</time>
      </trkpt>
      <trkpt lat="48.73565" lon="1.80865">
        <ele>193.39999389648</ele>
        <time>2014-08-01T09:49:59.000Z</time>
      </trkpt>
      <trkpt lat="48.73561" lon="1.80867">
        <ele>193.39999389648</ele>
        <time>2014-08-01T09:50:06.000Z</time>
      </trkpt>
      <trkpt lat="48.73556" lon="1.80863">
        <ele>193.60000610352</ele>
        <time>2014-08-01T09:50:32.000Z</time>
      </trkpt>
      <trkpt lat="48.73554" lon="1.80863">
        <ele>193.80000305176</ele>
        <time>2014-08-01T09:50:33.000Z</time>
      </trkpt>
      <trkpt lat="48.73556" lon="1.80852">
        <ele>193.80000305176</ele>
        <time>2014-08-01T09:50:39.000Z</time>
      </trkpt>
      <trkpt lat="48.73561" lon="1.80851">
        <ele>193.60000610352</ele>
        <time>2014-08-01T09:50:45.000Z</time>
      </trkpt>
      <trkpt lat="48.73572" lon="1.80846">
        <ele>193.19999694824</ele>
        <time>2014-08-01T09:50:51.000Z</time>
      </trkpt>
      <trkpt lat="48.73575" lon="1.80848">
        <ele>193</ele>
        <time>2014-08-01T09:50:55.000Z</time>
      </trkpt>
      <trkpt lat="48.73574" lon="1.8085">
        <ele>193</ele>
        <time>2014-08-01T09:51:01.000Z</time>
      </trkpt>
      <trkpt lat="48.73574" lon="1.80851">
        <ele>193</ele>
        <time>2014-08-01T09:51:03.000Z</time>
      </trkpt>
      <trkpt lat="48.73594" lon="1.8084">
        <ele>192.39999389648</ele>
        <time>2014-08-01T09:52:22.000Z</time>
      </trkpt>
      <trkpt lat="48.73596" lon="1.80839">
        <ele>192.19999694824</ele>
        <time>2014-08-01T09:52:23.000Z</time>
      </trkpt>
      <trkpt lat="48.73599" lon="1.80836">
        <ele>192.19999694824</ele>
        <time>2014-08-01T09:52:26.000Z</time>
      </trkpt>
      <trkpt lat="48.7361" lon="1.80839">
        <ele>192.19999694824</ele>
        <time>2014-08-01T09:52:34.000Z</time>
      </trkpt>
      <trkpt lat="48.73617" lon="1.80841">
        <ele>192.39999389648</ele>
        <time>2014-08-01T09:52:40.000Z</time>
      </trkpt>
      <trkpt lat="48.73619" lon="1.80841">
        <ele>192.39999389648</ele>
        <time>2014-08-01T09:52:42.000Z</time>
      </trkpt>
      <trkpt lat="48.73628" lon="1.8084">
        <ele>192.80000305176</ele>
        <time>2014-08-01T09:52:49.000Z</time>
      </trkpt>
      <trkpt lat="48.73633" lon="1.80838">
        <ele>193</ele>
        <time>2014-08-01T09:52:54.000Z</time>
      </trkpt>
      <trkpt lat="48.73639" lon="1.80834">
        <ele>193.39999389648</ele>
        <time>2014-08-01T09:52:56.000Z</time>
      </trkpt>
      <trkpt lat="48.73649" lon="1.80831">
        <ele>194</ele>
        <time>2014-08-01T09:53:01.000Z</time>
      </trkpt>
      <trkpt lat="48.73656" lon="1.80832">
        <ele>194.19999694824</ele>
        <time>2014-08-01T09:53:07.000Z</time>
      </trkpt>
      <trkpt lat="48.73659" lon="1.80831">
        <ele>194.39999389648</ele>
        <time>2014-08-01T09:53:10.000Z</time>
      </trkpt>
      <trkpt lat="48.73663" lon="1.8083">
        <ele>194.60000610352</ele>
        <time>2014-08-01T09:53:14.000Z</time>
      </trkpt>
      <trkpt lat="48.73667" lon="1.80829">
        <ele>194.80000305176</ele>
        <time>2014-08-01T09:53:20.000Z</time>
      </trkpt>
      <trkpt lat="48.73673" lon="1.8083">
        <ele>195.19999694824</ele>
        <time>2014-08-01T09:53:26.000Z</time>
      </trkpt>
      <trkpt lat="48.73683" lon="1.80828">
        <ele>195.60000610352</ele>
        <time>2014-08-01T09:53:33.000Z</time>
      </trkpt>
      <trkpt lat="48.73691" lon="1.80828">
        <ele>196</ele>
        <time>2014-08-01T09:53:40.000Z</time>
      </trkpt>
      <trkpt lat="48.73699" lon="1.80827">
        <ele>196</ele>
        <time>2014-08-01T09:53:46.000Z</time>
      </trkpt>
      <trkpt lat="48.73704" lon="1.80828">
        <ele>196</ele>
        <time>2014-08-01T09:53:51.000Z</time>
      </trkpt>
      <trkpt lat="48.73711" lon="1.80826">
        <ele>195.80000305176</ele>
        <time>2014-08-01T09:53:56.000Z</time>
      </trkpt>
      <trkpt lat="48.73716" lon="1.80825">
        <ele>195.80000305176</ele>
        <time>2014-08-01T09:54:02.000Z</time>
      </trkpt>
      <trkpt lat="48.73723" lon="1.80825">
        <ele>195.60000610352</ele>
        <time>2014-08-01T09:54:06.000Z</time>
      </trkpt>
      <trkpt lat="48.73734" lon="1.80823">
        <ele>195.39999389648</ele>
        <time>2014-08-01T09:54:12.000Z</time>
      </trkpt>
      <trkpt lat="48.73737" lon="1.80824">
        <ele>195.39999389648</ele>
        <time>2014-08-01T09:54:16.000Z</time>
      </trkpt>
      <trkpt lat="48.73743" lon="1.8082">
        <ele>195.39999389648</ele>
        <time>2014-08-01T09:54:20.000Z</time>
      </trkpt>
      <trkpt lat="48.73746" lon="1.80817">
        <ele>195.39999389648</ele>
        <time>2014-08-01T09:54:22.000Z</time>
      </trkpt>
      <trkpt lat="48.73756" lon="1.80815">
        <ele>195.19999694824</ele>
        <time>2014-08-01T09:54:27.000Z</time>
      </trkpt>
      <trkpt lat="48.73764" lon="1.80811">
        <ele>195.19999694824</ele>
        <time>2014-08-01T09:54:33.000Z</time>
      </trkpt>
      <trkpt lat="48.73769" lon="1.80809">
        <ele>195.19999694824</ele>
        <time>2014-08-01T09:54:40.000Z</time>
      </trkpt>
      <trkpt lat="48.73774" lon="1.80806">
        <ele>195.19999694824</ele>
        <time>2014-08-01T09:54:44.000Z</time>
      </trkpt>
      <trkpt lat="48.73785" lon="1.80799">
        <ele>195.39999389648</ele>
        <time>2014-08-01T09:54:51.000Z</time>
      </trkpt>
      <trkpt lat="48.73794" lon="1.80797">
        <ele>195.60000610352</ele>
        <time>2014-08-01T09:54:57.000Z</time>
      </trkpt>
      <trkpt lat="48.73801" lon="1.80797">
        <ele>195.60000610352</ele>
        <time>2014-08-01T09:55:02.000Z</time>
      </trkpt>
      <trkpt lat="48.73803" lon="1.80797">
        <ele>195.60000610352</ele>
        <time>2014-08-01T09:55:04.000Z</time>
      </trkpt>
      <trkpt lat="48.7381" lon="1.80797">
        <ele>195.80000305176</ele>
        <time>2014-08-01T09:55:09.000Z</time>
      </trkpt>
      <trkpt lat="48.73812" lon="1.80797">
        <ele>195.80000305176</ele>
        <time>2014-08-01T09:55:11.000Z</time>
      </trkpt>
      <trkpt lat="48.73822" lon="1.80797">
        <ele>196</ele>
        <time>2014-08-01T09:55:18.000Z</time>
      </trkpt>
      <trkpt lat="48.73827" lon="1.80797">
        <ele>196</ele>
        <time>2014-08-01T09:55:23.000Z</time>
      </trkpt>
      <trkpt lat="48.73829" lon="1.80796">
        <ele>196</ele>
        <time>2014-08-01T09:55:24.000Z</time>
      </trkpt>
      <trkpt lat="48.73837" lon="1.80792">
        <ele>195.80000305176</ele>
        <time>2014-08-01T09:55:31.000Z</time>
      </trkpt>
      <trkpt lat="48.7385" lon="1.80792">
        <ele>195.60000610352</ele>
        <time>2014-08-01T09:55:39.000Z</time>
      </trkpt>
      <trkpt lat="48.73857" lon="1.80795">
        <ele>195.60000610352</ele>
        <time>2014-08-01T09:55:45.000Z</time>
      </trkpt>
      <trkpt lat="48.73863" lon="1.80797">
        <ele>195.80000305176</ele>
        <time>2014-08-01T09:55:50.000Z</time>
      </trkpt>
      <trkpt lat="48.7387" lon="1.80797">
        <ele>195.80000305176</ele>
        <time>2014-08-01T09:55:57.000Z</time>
      </trkpt>
      <trkpt lat="48.73877" lon="1.80796">
        <ele>195.60000610352</ele>
        <time>2014-08-01T09:56:02.000Z</time>
      </trkpt>
      <trkpt lat="48.73882" lon="1.80796">
        <ele>195.60000610352</ele>
        <time>2014-08-01T09:56:06.000Z</time>
      </trkpt>
      <trkpt lat="48.73887" lon="1.80792">
        <ele>195.60000610352</ele>
        <time>2014-08-01T09:56:10.000Z</time>
      </trkpt>
      <trkpt lat="48.73895" lon="1.80789">
        <ele>195.60000610352</ele>
        <time>2014-08-01T09:56:17.000Z</time>
      </trkpt>
      <trkpt lat="48.73904" lon="1.80781">
        <ele>195.39999389648</ele>
        <time>2014-08-01T09:56:24.000Z</time>
      </trkpt>
      <trkpt lat="48.73913" lon="1.80777">
        <ele>195</ele>
        <time>2014-08-01T09:56:30.000Z</time>
      </trkpt>
      <trkpt lat="48.73919" lon="1.80774">
        <ele>194.80000305176</ele>
        <time>2014-08-01T09:56:36.000Z</time>
      </trkpt>
      <trkpt lat="48.73928" lon="1.80769">
        <ele>194.39999389648</ele>
        <time>2014-08-01T09:56:41.000Z</time>
      </trkpt>
      <trkpt lat="48.73932" lon="1.8077">
        <ele>194.19999694824</ele>
        <time>2014-08-01T09:56:44.000Z</time>
      </trkpt>
      <trkpt lat="48.73944" lon="1.80771">
        <ele>194</ele>
        <time>2014-08-01T09:56:51.000Z</time>
      </trkpt>
      <trkpt lat="48.73953" lon="1.8077">
        <ele>193.80000305176</ele>
        <time>2014-08-01T09:56:56.000Z</time>
      </trkpt>
      <trkpt lat="48.73959" lon="1.8077">
        <ele>193.60000610352</ele>
        <time>2014-08-01T09:57:00.000Z</time>
      </trkpt>
      <trkpt lat="48.73965" lon="1.80771">
        <ele>193.60000610352</ele>
        <time>2014-08-01T09:57:05.000Z</time>
      </trkpt>
      <trkpt lat="48.73968" lon="1.80772">
        <ele>193.39999389648</ele>
        <time>2014-08-01T09:57:08.000Z</time>
      </trkpt>
      <trkpt lat="48.73976" lon="1.80773">
        <ele>193.19999694824</ele>
        <time>2014-08-01T09:57:14.000Z</time>
      </trkpt>
      <trkpt lat="48.73982" lon="1.80772">
        <ele>193</ele>
        <time>2014-08-01T09:57:19.000Z</time>
      </trkpt>
      <trkpt lat="48.73988" lon="1.80772">
        <ele>192.80000305176</ele>
        <time>2014-08-01T09:57:23.000Z</time>
      </trkpt>
      <trkpt lat="48.73997" lon="1.80769">
        <ele>192.39999389648</ele>
        <time>2014-08-01T09:57:28.000Z</time>
      </trkpt>
      <trkpt lat="48.74005" lon="1.80767">
        <ele>192</ele>
        <time>2014-08-01T09:57:34.000Z</time>
      </trkpt>
      <trkpt lat="48.74012" lon="1.80766">
        <ele>191.60000610352</ele>
        <time>2014-08-01T09:57:41.000Z</time>
      </trkpt>
      <trkpt lat="48.74022" lon="1.80766">
        <ele>191.39999389648</ele>
        <time>2014-08-01T09:57:47.000Z</time>
      </trkpt>
      <trkpt lat="48.74029" lon="1.80766">
        <ele>191.39999389648</ele>
        <time>2014-08-01T09:57:53.000Z</time>
      </trkpt>
      <trkpt lat="48.74034" lon="1.80764">
        <ele>191.39999389648</ele>
        <time>2014-08-01T09:57:57.000Z</time>
      </trkpt>
      <trkpt lat="48.74042" lon="1.80757">
        <ele>191.19999694824</ele>
        <time>2014-08-01T09:58:02.000Z</time>
      </trkpt>
      <trkpt lat="48.74051" lon="1.80746">
        <ele>190.39999389648</ele>
        <time>2014-08-01T09:58:11.000Z</time>
      </trkpt>
      <trkpt lat="48.74054" lon="1.80743">
        <ele>190.19999694824</ele>
        <time>2014-08-01T09:58:16.000Z</time>
      </trkpt>
      <trkpt lat="48.74055" lon="1.80744">
        <ele>190.39999389648</ele>
        <time>2014-08-01T09:58:18.000Z</time>
      </trkpt>
      <trkpt lat="48.74058" lon="1.80745">
        <ele>190.39999389648</ele>
        <time>2014-08-01T09:58:21.000Z</time>
      </trkpt>
      <trkpt lat="48.74063" lon="1.80744">
        <ele>190.39999389648</ele>
        <time>2014-08-01T09:58:23.000Z</time>
      </trkpt>
      <trkpt lat="48.74071" lon="1.8074">
        <ele>190.19999694824</ele>
        <time>2014-08-01T09:58:28.000Z</time>
      </trkpt>
      <trkpt lat="48.74082" lon="1.80741">
        <ele>190.19999694824</ele>
        <time>2014-08-01T09:58:35.000Z</time>
      </trkpt>
      <trkpt lat="48.74091" lon="1.80741">
        <ele>190.19999694824</ele>
        <time>2014-08-01T09:58:41.000Z</time>
      </trkpt>
      <trkpt lat="48.74099" lon="1.80736">
        <ele>190</ele>
        <time>2014-08-01T09:58:46.000Z</time>
      </trkpt>
      <trkpt lat="48.7411" lon="1.80737">
        <ele>190.19999694824</ele>
        <time>2014-08-01T09:58:52.000Z</time>
      </trkpt>
      <trkpt lat="48.74116" lon="1.80741">
        <ele>190.60000610352</ele>
        <time>2014-08-01T09:58:59.000Z</time>
      </trkpt>
      <trkpt lat="48.74118" lon="1.80741">
        <ele>190.60000610352</ele>
        <time>2014-08-01T09:59:04.000Z</time>
      </trkpt>
      <trkpt lat="48.74119" lon="1.80741">
        <ele>190.60000610352</ele>
        <time>2014-08-01T09:59:15.000Z</time>
      </trkpt>
      <trkpt lat="48.74125" lon="1.80741">
        <ele>190.80000305176</ele>
        <time>2014-08-01T09:59:18.000Z</time>
      </trkpt>
      <trkpt lat="48.74131" lon="1.80737">
        <ele>191</ele>
        <time>2014-08-01T09:59:23.000Z</time>
      </trkpt>
      <trkpt lat="48.74137" lon="1.80736">
        <ele>191.19999694824</ele>
        <time>2014-08-01T09:59:27.000Z</time>
      </trkpt>
      <trkpt lat="48.74147" lon="1.80732">
        <ele>191.39999389648</ele>
        <time>2014-08-01T09:59:34.000Z</time>
      </trkpt>
      <trkpt lat="48.74157" lon="1.80728">
        <ele>191.60000610352</ele>
        <time>2014-08-01T09:59:41.000Z</time>
      </trkpt>
      <trkpt lat="48.74165" lon="1.8073">
        <ele>192</ele>
        <time>2014-08-01T09:59:48.000Z</time>
      </trkpt>
      <trkpt lat="48.74167" lon="1.8073">
        <ele>192</ele>
        <time>2014-08-01T09:59:49.000Z</time>
      </trkpt>
      <trkpt lat="48.74175" lon="1.80731">
        <ele>192.39999389648</ele>
        <time>2014-08-01T09:59:55.000Z</time>
      </trkpt>
      <trkpt lat="48.74183" lon="1.80725">
        <ele>192.39999389648</ele>
        <time>2014-08-01T10:00:02.000Z</time>
      </trkpt>
      <trkpt lat="48.74186" lon="1.80724">
        <ele>192.19999694824</ele>
        <time>2014-08-01T10:00:05.000Z</time>
      </trkpt>
      <trkpt lat="48.74194" lon="1.80722">
        <ele>192.19999694824</ele>
        <time>2014-08-01T10:00:11.000Z</time>
      </trkpt>
      <trkpt lat="48.74203" lon="1.80722">
        <ele>192</ele>
        <time>2014-08-01T10:00:18.000Z</time>
      </trkpt>
      <trkpt lat="48.74215" lon="1.80721">
        <ele>191.80000305176</ele>
        <time>2014-08-01T10:00:25.000Z</time>
      </trkpt>
      <trkpt lat="48.74223" lon="1.80721">
        <ele>191.80000305176</ele>
        <time>2014-08-01T10:00:30.000Z</time>
      </trkpt>
      <trkpt lat="48.74232" lon="1.80717">
        <ele>191.39999389648</ele>
        <time>2014-08-01T10:00:35.000Z</time>
      </trkpt>
      <trkpt lat="48.74244" lon="1.80715">
        <ele>191.19999694824</ele>
        <time>2014-08-01T10:00:41.000Z</time>
      </trkpt>
      <trkpt lat="48.74254" lon="1.80717">
        <ele>191.19999694824</ele>
        <time>2014-08-01T10:00:47.000Z</time>
      </trkpt>
      <trkpt lat="48.74262" lon="1.80716">
        <ele>191.39999389648</ele>
        <time>2014-08-01T10:00:52.000Z</time>
      </trkpt>
      <trkpt lat="48.7427" lon="1.80714">
        <ele>191.39999389648</ele>
        <time>2014-08-01T10:00:58.000Z</time>
      </trkpt>
      <trkpt lat="48.74272" lon="1.80712">
        <ele>191.39999389648</ele>
        <time>2014-08-01T10:01:00.000Z</time>
      </trkpt>
      <trkpt lat="48.74278" lon="1.80712">
        <ele>191.39999389648</ele>
        <time>2014-08-01T10:01:04.000Z</time>
      </trkpt>
      <trkpt lat="48.74287" lon="1.8071">
        <ele>191.60000610352</ele>
        <time>2014-08-01T10:01:09.000Z</time>
      </trkpt>
      <trkpt lat="48.74293" lon="1.8071">
        <ele>191.60000610352</ele>
        <time>2014-08-01T10:01:15.000Z</time>
      </trkpt>
      <trkpt lat="48.74303" lon="1.80703">
        <ele>191.60000610352</ele>
        <time>2014-08-01T10:01:22.000Z</time>
      </trkpt>
      <trkpt lat="48.74307" lon="1.80703">
        <ele>191.60000610352</ele>
        <time>2014-08-01T10:01:24.000Z</time>
      </trkpt>
      <trkpt lat="48.74316" lon="1.80705">
        <ele>191.80000305176</ele>
        <time>2014-08-01T10:01:29.000Z</time>
      </trkpt>
      <trkpt lat="48.74323" lon="1.80706">
        <ele>191.80000305176</ele>
        <time>2014-08-01T10:01:34.000Z</time>
      </trkpt>
      <trkpt lat="48.74331" lon="1.80704">
        <ele>191.39999389648</ele>
        <time>2014-08-01T10:01:40.000Z</time>
      </trkpt>
      <trkpt lat="48.74345" lon="1.80697">
        <ele>190.80000305176</ele>
        <time>2014-08-01T10:01:48.000Z</time>
      </trkpt>
      <trkpt lat="48.74353" lon="1.80697">
        <ele>190.60000610352</ele>
        <time>2014-08-01T10:01:53.000Z</time>
      </trkpt>
      <trkpt lat="48.74355" lon="1.80696">
        <ele>190.39999389648</ele>
        <time>2014-08-01T10:01:55.000Z</time>
      </trkpt>
      <trkpt lat="48.74366" lon="1.80698">
        <ele>190.39999389648</ele>
        <time>2014-08-01T10:02:03.000Z</time>
      </trkpt>
      <trkpt lat="48.74374" lon="1.80697">
        <ele>190.19999694824</ele>
        <time>2014-08-01T10:02:09.000Z</time>
      </trkpt>
      <trkpt lat="48.74383" lon="1.80695">
        <ele>190</ele>
        <time>2014-08-01T10:02:15.000Z</time>
      </trkpt>
      <trkpt lat="48.74393" lon="1.80692">
        <ele>189.80000305176</ele>
        <time>2014-08-01T10:02:21.000Z</time>
      </trkpt>
      <trkpt lat="48.744" lon="1.8069">
        <ele>189.80000305176</ele>
        <time>2014-08-01T10:02:26.000Z</time>
      </trkpt>
      <trkpt lat="48.74407" lon="1.80683">
        <ele>189.60000610352</ele>
        <time>2014-08-01T10:02:31.000Z</time>
      </trkpt>
      <trkpt lat="48.74413" lon="1.80676">
        <ele>189.39999389648</ele>
        <time>2014-08-01T10:02:36.000Z</time>
      </trkpt>
      <trkpt lat="48.74418" lon="1.80675">
        <ele>189.39999389648</ele>
        <time>2014-08-01T10:02:41.000Z</time>
      </trkpt>
      <trkpt lat="48.74423" lon="1.80673">
        <ele>189.39999389648</ele>
        <time>2014-08-01T10:02:48.000Z</time>
      </trkpt>
      <trkpt lat="48.74431" lon="1.8067">
        <ele>189.39999389648</ele>
        <time>2014-08-01T10:02:54.000Z</time>
      </trkpt>
      <trkpt lat="48.74437" lon="1.80676">
        <ele>189.80000305176</ele>
        <time>2014-08-01T10:03:00.000Z</time>
      </trkpt>
      <trkpt lat="48.74444" lon="1.80679">
        <ele>189.80000305176</ele>
        <time>2014-08-01T10:03:08.000Z</time>
      </trkpt>
      <trkpt lat="48.74445" lon="1.80679">
        <ele>189.80000305176</ele>
        <time>2014-08-01T10:03:12.000Z</time>
      </trkpt>
      <trkpt lat="48.74446" lon="1.80679">
        <ele>189.80000305176</ele>
        <time>2014-08-01T10:03:13.000Z</time>
      </trkpt>
      <trkpt lat="48.74449" lon="1.80679">
        <ele>189.80000305176</ele>
        <time>2014-08-01T10:03:15.000Z</time>
      </trkpt>
      <trkpt lat="48.74471" lon="1.8068">
        <ele>190.19999694824</ele>
        <time>2014-08-01T10:03:24.000Z</time>
      </trkpt>
      <trkpt lat="48.74481" lon="1.8069">
        <ele>190.60000610352</ele>
        <time>2014-08-01T10:03:31.000Z</time>
      </trkpt>
      <trkpt lat="48.74491" lon="1.80697">
        <ele>191</ele>
        <time>2014-08-01T10:03:37.000Z</time>
      </trkpt>
      <trkpt lat="48.74498" lon="1.80699">
        <ele>191.19999694824</ele>
        <time>2014-08-01T10:03:41.000Z</time>
      </trkpt>
      <trkpt lat="48.74508" lon="1.80696">
        <ele>191.60000610352</ele>
        <time>2014-08-01T10:03:48.000Z</time>
      </trkpt>
      <trkpt lat="48.74512" lon="1.80692">
        <ele>191.60000610352</ele>
        <time>2014-08-01T10:03:53.000Z</time>
      </trkpt>
      <trkpt lat="48.74517" lon="1.80698">
        <ele>191.80000305176</ele>
        <time>2014-08-01T10:04:00.000Z</time>
      </trkpt>
      <trkpt lat="48.74517" lon="1.807">
        <ele>191.80000305176</ele>
        <time>2014-08-01T10:04:04.000Z</time>
      </trkpt>
      <trkpt lat="48.74521" lon="1.807">
        <ele>192</ele>
        <time>2014-08-01T10:04:21.000Z</time>
      </trkpt>
      <trkpt lat="48.74528" lon="1.80704">
        <ele>192</ele>
        <time>2014-08-01T10:04:25.000Z</time>
      </trkpt>
      <trkpt lat="48.74537" lon="1.80712">
        <ele>191.80000305176</ele>
        <time>2014-08-01T10:04:32.000Z</time>
      </trkpt>
      <trkpt lat="48.74542" lon="1.80722">
        <ele>191.80000305176</ele>
        <time>2014-08-01T10:04:38.000Z</time>
      </trkpt>
      <trkpt lat="48.74544" lon="1.80725">
        <ele>191.80000305176</ele>
        <time>2014-08-01T10:04:41.000Z</time>
      </trkpt>
      <trkpt lat="48.74547" lon="1.8073">
        <ele>191.60000610352</ele>
        <time>2014-08-01T10:04:45.000Z</time>
      </trkpt>
      <trkpt lat="48.74548" lon="1.80737">
        <ele>191.60000610352</ele>
        <time>2014-08-01T10:04:48.000Z</time>
      </trkpt>
      <trkpt lat="48.74559" lon="1.80742">
        <ele>191.60000610352</ele>
        <time>2014-08-01T10:04:54.000Z</time>
      </trkpt>
      <trkpt lat="48.74562" lon="1.80751">
        <ele>192</ele>
        <time>2014-08-01T10:04:59.000Z</time>
      </trkpt>
      <trkpt lat="48.74565" lon="1.80753">
        <ele>192</ele>
        <time>2014-08-01T10:05:01.000Z</time>
      </trkpt>
      <trkpt lat="48.74574" lon="1.80766">
        <ele>192.39999389648</ele>
        <time>2014-08-01T10:05:10.000Z</time>
      </trkpt>
      <trkpt lat="48.74583" lon="1.80771">
        <ele>192.39999389648</ele>
        <time>2014-08-01T10:05:16.000Z</time>
      </trkpt>
      <trkpt lat="48.74589" lon="1.80776">
        <ele>192.60000610352</ele>
        <time>2014-08-01T10:05:22.000Z</time>
      </trkpt>
      <trkpt lat="48.7459" lon="1.80781">
        <ele>192.60000610352</ele>
        <time>2014-08-01T10:05:25.000Z</time>
      </trkpt>
      <trkpt lat="48.74595" lon="1.80791">
        <ele>193</ele>
        <time>2014-08-01T10:05:31.000Z</time>
      </trkpt>
      <trkpt lat="48.746" lon="1.80804">
        <ele>193.39999389648</ele>
        <time>2014-08-01T10:05:39.000Z</time>
      </trkpt>
      <trkpt lat="48.74607" lon="1.80812">
        <ele>193.39999389648</ele>
        <time>2014-08-01T10:05:45.000Z</time>
      </trkpt>
      <trkpt lat="48.74609" lon="1.80815">
        <ele>193.39999389648</ele>
        <time>2014-08-01T10:05:47.000Z</time>
      </trkpt>
      <trkpt lat="48.74612" lon="1.8082">
        <ele>193.39999389648</ele>
        <time>2014-08-01T10:05:51.000Z</time>
      </trkpt>
      <trkpt lat="48.74616" lon="1.80825">
        <ele>193.19999694824</ele>
        <time>2014-08-01T10:05:55.000Z</time>
      </trkpt>
      <trkpt lat="48.74625" lon="1.80833">
        <ele>192.60000610352</ele>
        <time>2014-08-01T10:06:02.000Z</time>
      </trkpt>
      <trkpt lat="48.74632" lon="1.8084">
        <ele>192</ele>
        <time>2014-08-01T10:06:08.000Z</time>
      </trkpt>
      <trkpt lat="48.7464" lon="1.80851">
        <ele>191.39999389648</ele>
        <time>2014-08-01T10:06:16.000Z</time>
      </trkpt>
      <trkpt lat="48.74641" lon="1.80853">
        <ele>191.39999389648</ele>
        <time>2014-08-01T10:06:17.000Z</time>
      </trkpt>
      <trkpt lat="48.74647" lon="1.80862">
        <ele>191</ele>
        <time>2014-08-01T10:06:23.000Z</time>
      </trkpt>
      <trkpt lat="48.74654" lon="1.8087">
        <ele>190.39999389648</ele>
        <time>2014-08-01T10:06:29.000Z</time>
      </trkpt>
      <trkpt lat="48.74659" lon="1.80878">
        <ele>190</ele>
        <time>2014-08-01T10:06:35.000Z</time>
      </trkpt>
      <trkpt lat="48.74664" lon="1.80885">
        <ele>189.60000610352</ele>
        <time>2014-08-01T10:06:40.000Z</time>
      </trkpt>
      <trkpt lat="48.74669" lon="1.80897">
        <ele>189.39999389648</ele>
        <time>2014-08-01T10:06:46.000Z</time>
      </trkpt>
      <trkpt lat="48.74674" lon="1.80907">
        <ele>188.80000305176</ele>
        <time>2014-08-01T10:06:52.000Z</time>
      </trkpt>
      <trkpt lat="48.74679" lon="1.80916">
        <ele>188.19999694824</ele>
        <time>2014-08-01T10:06:59.000Z</time>
      </trkpt>
      <trkpt lat="48.7468" lon="1.80923">
        <ele>187.80000305176</ele>
        <time>2014-08-01T10:07:02.000Z</time>
      </trkpt>
      <trkpt lat="48.74687" lon="1.80934">
        <ele>187</ele>
        <time>2014-08-01T10:07:08.000Z</time>
      </trkpt>
      <trkpt lat="48.74688" lon="1.80937">
        <ele>186.80000305176</ele>
        <time>2014-08-01T10:07:09.000Z</time>
      </trkpt>
      <trkpt lat="48.74693" lon="1.80946">
        <ele>186.39999389648</ele>
        <time>2014-08-01T10:07:14.000Z</time>
      </trkpt>
      <trkpt lat="48.74697" lon="1.80949">
        <ele>186</ele>
        <time>2014-08-01T10:07:17.000Z</time>
      </trkpt>
      <trkpt lat="48.74704" lon="1.80953">
        <ele>185.80000305176</ele>
        <time>2014-08-01T10:07:22.000Z</time>
      </trkpt>
      <trkpt lat="48.74706" lon="1.80964">
        <ele>185.19999694824</ele>
        <time>2014-08-01T10:07:28.000Z</time>
      </trkpt>
      <trkpt lat="48.74707" lon="1.80968">
        <ele>185</ele>
        <time>2014-08-01T10:07:30.000Z</time>
      </trkpt>
      <trkpt lat="48.74709" lon="1.80975">
        <ele>184.80000305176</ele>
        <time>2014-08-01T10:07:34.000Z</time>
      </trkpt>
      <trkpt lat="48.74713" lon="1.80984">
        <ele>184.19999694824</ele>
        <time>2014-08-01T10:07:40.000Z</time>
      </trkpt>
      <trkpt lat="48.74716" lon="1.80988">
        <ele>184</ele>
        <time>2014-08-01T10:07:43.000Z</time>
      </trkpt>
      <trkpt lat="48.74721" lon="1.80999">
        <ele>184.19999694824</ele>
        <time>2014-08-01T10:07:50.000Z</time>
      </trkpt>
      <trkpt lat="48.74722" lon="1.81001">
        <ele>184.39999389648</ele>
        <time>2014-08-01T10:07:52.000Z</time>
      </trkpt>
      <trkpt lat="48.74726" lon="1.81009">
        <ele>184.60000610352</ele>
        <time>2014-08-01T10:07:57.000Z</time>
      </trkpt>
      <trkpt lat="48.74731" lon="1.81019">
        <ele>184.80000305176</ele>
        <time>2014-08-01T10:08:03.000Z</time>
      </trkpt>
      <trkpt lat="48.74732" lon="1.8102">
        <ele>185</ele>
        <time>2014-08-01T10:08:04.000Z</time>
      </trkpt>
      <trkpt lat="48.74736" lon="1.81024">
        <ele>185</ele>
        <time>2014-08-01T10:08:07.000Z</time>
      </trkpt>
      <trkpt lat="48.74739" lon="1.81031">
        <ele>185.19999694824</ele>
        <time>2014-08-01T10:08:12.000Z</time>
      </trkpt>
      <trkpt lat="48.74746" lon="1.81041">
        <ele>185.39999389648</ele>
        <time>2014-08-01T10:08:19.000Z</time>
      </trkpt>
      <trkpt lat="48.74757" lon="1.81054">
        <ele>185.60000610352</ele>
        <time>2014-08-01T10:08:27.000Z</time>
      </trkpt>
      <trkpt lat="48.74762" lon="1.81065">
        <ele>186</ele>
        <time>2014-08-01T10:08:33.000Z</time>
      </trkpt>
      <trkpt lat="48.74768" lon="1.81075">
        <ele>186.19999694824</ele>
        <time>2014-08-01T10:08:39.000Z</time>
      </trkpt>
      <trkpt lat="48.74774" lon="1.81085">
        <ele>186.19999694824</ele>
        <time>2014-08-01T10:08:45.000Z</time>
      </trkpt>
      <trkpt lat="48.74782" lon="1.81096">
        <ele>185.80000305176</ele>
        <time>2014-08-01T10:08:52.000Z</time>
      </trkpt>
      <trkpt lat="48.7479" lon="1.81105">
        <ele>185.39999389648</ele>
        <time>2014-08-01T10:08:59.000Z</time>
      </trkpt>
      <trkpt lat="48.74799" lon="1.81111">
        <ele>184.80000305176</ele>
        <time>2014-08-01T10:09:05.000Z</time>
      </trkpt>
      <trkpt lat="48.74808" lon="1.81115">
        <ele>184</ele>
        <time>2014-08-01T10:09:12.000Z</time>
      </trkpt>
      <trkpt lat="48.74814" lon="1.8112">
        <ele>183.60000610352</ele>
        <time>2014-08-01T10:09:18.000Z</time>
      </trkpt>
      <trkpt lat="48.7482" lon="1.81129">
        <ele>183.39999389648</ele>
        <time>2014-08-01T10:09:24.000Z</time>
      </trkpt>
      <trkpt lat="48.74826" lon="1.81137">
        <ele>183</ele>
        <time>2014-08-01T10:09:29.000Z</time>
      </trkpt>
      <trkpt lat="48.74833" lon="1.81145">
        <ele>182.80000305176</ele>
        <time>2014-08-01T10:09:34.000Z</time>
      </trkpt>
      <trkpt lat="48.7484" lon="1.81155">
        <ele>182.39999389648</ele>
        <time>2014-08-01T10:09:40.000Z</time>
      </trkpt>
      <trkpt lat="48.74849" lon="1.81163">
        <ele>181.60000610352</ele>
        <time>2014-08-01T10:09:47.000Z</time>
      </trkpt>
      <trkpt lat="48.74851" lon="1.81164">
        <ele>181.60000610352</ele>
        <time>2014-08-01T10:09:48.000Z</time>
      </trkpt>
      <trkpt lat="48.74855" lon="1.81171">
        <ele>181.39999389648</ele>
        <time>2014-08-01T10:09:52.000Z</time>
      </trkpt>
      <trkpt lat="48.7486" lon="1.81178">
        <ele>181.19999694824</ele>
        <time>2014-08-01T10:09:57.000Z</time>
      </trkpt>
      <trkpt lat="48.7487" lon="1.81185">
        <ele>181</ele>
        <time>2014-08-01T10:10:05.000Z</time>
      </trkpt>
      <trkpt lat="48.74873" lon="1.81189">
        <ele>181</ele>
        <time>2014-08-01T10:10:08.000Z</time>
      </trkpt>
      <trkpt lat="48.74882" lon="1.81197">
        <ele>180.60000610352</ele>
        <time>2014-08-01T10:10:16.000Z</time>
      </trkpt>
      <trkpt lat="48.74886" lon="1.81198">
        <ele>180.60000610352</ele>
        <time>2014-08-01T10:10:18.000Z</time>
      </trkpt>
      <trkpt lat="48.74897" lon="1.81206">
        <ele>180.19999694824</ele>
        <time>2014-08-01T10:10:26.000Z</time>
      </trkpt>
      <trkpt lat="48.74907" lon="1.81219">
        <ele>180</ele>
        <time>2014-08-01T10:10:34.000Z</time>
      </trkpt>
      <trkpt lat="48.74909" lon="1.81221">
        <ele>180</ele>
        <time>2014-08-01T10:10:36.000Z</time>
      </trkpt>
      <trkpt lat="48.74916" lon="1.81228">
        <ele>179.80000305176</ele>
        <time>2014-08-01T10:10:42.000Z</time>
      </trkpt>
      <trkpt lat="48.74916" lon="1.8123">
        <ele>179.80000305176</ele>
        <time>2014-08-01T10:10:47.000Z</time>
      </trkpt>
      <trkpt lat="48.7492" lon="1.81236">
        <ele>179.80000305176</ele>
        <time>2014-08-01T10:10:53.000Z</time>
      </trkpt>
      <trkpt lat="48.74928" lon="1.81239">
        <ele>179.39999389648</ele>
        <time>2014-08-01T10:10:58.000Z</time>
      </trkpt>
      <trkpt lat="48.74931" lon="1.8124">
        <ele>179.39999389648</ele>
        <time>2014-08-01T10:11:00.000Z</time>
      </trkpt>
      <trkpt lat="48.74941" lon="1.81246">
        <ele>179</ele>
        <time>2014-08-01T10:11:07.000Z</time>
      </trkpt>
      <trkpt lat="48.7495" lon="1.81252">
        <ele>178.80000305176</ele>
        <time>2014-08-01T10:11:13.000Z</time>
      </trkpt>
      <trkpt lat="48.74956" lon="1.81256">
        <ele>178.60000610352</ele>
        <time>2014-08-01T10:11:19.000Z</time>
      </trkpt>
      <trkpt lat="48.74965" lon="1.81264">
        <ele>178.39999389648</ele>
        <time>2014-08-01T10:11:27.000Z</time>
      </trkpt>
      <trkpt lat="48.74974" lon="1.81269">
        <ele>178.19999694824</ele>
        <time>2014-08-01T10:11:33.000Z</time>
      </trkpt>
      <trkpt lat="48.7498" lon="1.81277">
        <ele>178</ele>
        <time>2014-08-01T10:11:38.000Z</time>
      </trkpt>
      <trkpt lat="48.74985" lon="1.81283">
        <ele>177.80000305176</ele>
        <time>2014-08-01T10:11:43.000Z</time>
      </trkpt>
      <trkpt lat="48.74994" lon="1.81287">
        <ele>177.80000305176</ele>
        <time>2014-08-01T10:11:49.000Z</time>
      </trkpt>
      <trkpt lat="48.74996" lon="1.81288">
        <ele>177.80000305176</ele>
        <time>2014-08-01T10:11:55.000Z</time>
      </trkpt>
      <trkpt lat="48.74998" lon="1.81292">
        <ele>177.60000610352</ele>
        <time>2014-08-01T10:12:06.000Z</time>
      </trkpt>
      <trkpt lat="48.74999" lon="1.81293">
        <ele>177.60000610352</ele>
        <time>2014-08-01T10:12:08.000Z</time>
      </trkpt>
      <trkpt lat="48.75014" lon="1.81308">
        <ele>177.19999694824</ele>
        <time>2014-08-01T10:12:46.000Z</time>
      </trkpt>
      <trkpt lat="48.75017" lon="1.81311">
        <ele>177.19999694824</ele>
        <time>2014-08-01T10:12:50.000Z</time>
      </trkpt>
      <trkpt lat="48.7502" lon="1.81316">
        <ele>177</ele>
        <time>2014-08-01T10:12:54.000Z</time>
      </trkpt>
      <trkpt lat="48.75028" lon="1.81319">
        <ele>176.80000305176</ele>
        <time>2014-08-01T10:13:00.000Z</time>
      </trkpt>
      <trkpt lat="48.75034" lon="1.81321">
        <ele>176.60000610352</ele>
        <time>2014-08-01T10:13:04.000Z</time>
      </trkpt>
      <trkpt lat="48.75042" lon="1.8133">
        <ele>175.60000610352</ele>
        <time>2014-08-01T10:13:13.000Z</time>
      </trkpt>
      <trkpt lat="48.75053" lon="1.81337">
        <ele>174.60000610352</ele>
        <time>2014-08-01T10:13:20.000Z</time>
      </trkpt>
      <trkpt lat="48.75057" lon="1.81341">
        <ele>174</ele>
        <time>2014-08-01T10:13:23.000Z</time>
      </trkpt>
      <trkpt lat="48.75065" lon="1.81353">
        <ele>172.80000305176</ele>
        <time>2014-08-01T10:13:31.000Z</time>
      </trkpt>
      <trkpt lat="48.75066" lon="1.81354">
        <ele>172.60000610352</ele>
        <time>2014-08-01T10:13:32.000Z</time>
      </trkpt>
      <trkpt lat="48.75072" lon="1.81359">
        <ele>172</ele>
        <time>2014-08-01T10:13:37.000Z</time>
      </trkpt>
      <trkpt lat="48.75078" lon="1.81363">
        <ele>171.39999389648</ele>
        <time>2014-08-01T10:13:42.000Z</time>
      </trkpt>
      <trkpt lat="48.75079" lon="1.81364">
        <ele>171.39999389648</ele>
        <time>2014-08-01T10:13:43.000Z</time>
      </trkpt>
      <trkpt lat="48.75085" lon="1.81363">
        <ele>171.19999694824</ele>
        <time>2014-08-01T10:13:50.000Z</time>
      </trkpt>
      <trkpt lat="48.75088" lon="1.81364">
        <ele>171</ele>
        <time>2014-08-01T10:13:52.000Z</time>
      </trkpt>
      <trkpt lat="48.75092" lon="1.81366">
        <ele>170.80000305176</ele>
        <time>2014-08-01T10:13:56.000Z</time>
      </trkpt>
      <trkpt lat="48.75101" lon="1.81371">
        <ele>170</ele>
        <time>2014-08-01T10:14:04.000Z</time>
      </trkpt>
      <trkpt lat="48.75109" lon="1.81376">
        <ele>169</ele>
        <time>2014-08-01T10:14:10.000Z</time>
      </trkpt>
      <trkpt lat="48.75113" lon="1.81378">
        <ele>168.60000610352</ele>
        <time>2014-08-01T10:14:13.000Z</time>
      </trkpt>
      <trkpt lat="48.75122" lon="1.81376">
        <ele>168.19999694824</ele>
        <time>2014-08-01T10:14:19.000Z</time>
      </trkpt>
      <trkpt lat="48.75123" lon="1.81377">
        <ele>168</ele>
        <time>2014-08-01T10:14:20.000Z</time>
      </trkpt>
      <trkpt lat="48.75128" lon="1.81383">
        <ele>167.19999694824</ele>
        <time>2014-08-01T10:14:24.000Z</time>
      </trkpt>
      <trkpt lat="48.75133" lon="1.81389">
        <ele>166.19999694824</ele>
        <time>2014-08-01T10:14:29.000Z</time>
      </trkpt>
      <trkpt lat="48.75139" lon="1.81397">
        <ele>165.19999694824</ele>
        <time>2014-08-01T10:14:35.000Z</time>
      </trkpt>
      <trkpt lat="48.75144" lon="1.814">
        <ele>164.60000610352</ele>
        <time>2014-08-01T10:14:39.000Z</time>
      </trkpt>
      <trkpt lat="48.75145" lon="1.81402">
        <ele>164.19999694824</ele>
        <time>2014-08-01T10:14:41.000Z</time>
      </trkpt>
      <trkpt lat="48.7515" lon="1.81413">
        <ele>163.19999694824</ele>
        <time>2014-08-01T10:14:48.000Z</time>
      </trkpt>
      <trkpt lat="48.75156" lon="1.81417">
        <ele>162.39999389648</ele>
        <time>2014-08-01T10:14:53.000Z</time>
      </trkpt>
      <trkpt lat="48.75163" lon="1.81427">
        <ele>161.19999694824</ele>
        <time>2014-08-01T10:15:01.000Z</time>
      </trkpt>
      <trkpt lat="48.75165" lon="1.81428">
        <ele>161</ele>
        <time>2014-08-01T10:15:03.000Z</time>
      </trkpt>
      <trkpt lat="48.75171" lon="1.81433">
        <ele>160.19999694824</ele>
        <time>2014-08-01T10:15:07.000Z</time>
      </trkpt>
      <trkpt lat="48.75175" lon="1.81438">
        <ele>159.60000610352</ele>
        <time>2014-08-01T10:15:11.000Z</time>
      </trkpt>
      <trkpt lat="48.75183" lon="1.81447">
        <ele>158.19999694824</ele>
        <time>2014-08-01T10:15:17.000Z</time>
      </trkpt>
      <trkpt lat="48.75188" lon="1.81457">
        <ele>157.19999694824</ele>
        <time>2014-08-01T10:15:22.000Z</time>
      </trkpt>
      <trkpt lat="48.75191" lon="1.81463">
        <ele>156.60000610352</ele>
        <time>2014-08-01T10:15:26.000Z</time>
      </trkpt>
      <trkpt lat="48.75196" lon="1.81478">
        <ele>155.19999694824</ele>
        <time>2014-08-01T10:15:34.000Z</time>
      </trkpt>
      <trkpt lat="48.75199" lon="1.81487">
        <ele>154.39999389648</ele>
        <time>2014-08-01T10:15:39.000Z</time>
      </trkpt>
      <trkpt lat="48.75203" lon="1.81491">
        <ele>153.80000305176</ele>
        <time>2014-08-01T10:15:47.000Z</time>
      </trkpt>
      <trkpt lat="48.75207" lon="1.81493">
        <ele>153.39999389648</ele>
        <time>2014-08-01T10:15:53.000Z</time>
      </trkpt>
      <trkpt lat="48.7521" lon="1.81499">
        <ele>153</ele>
        <time>2014-08-01T10:15:59.000Z</time>
      </trkpt>
      <trkpt lat="48.75209" lon="1.81505">
        <ele>152.80000305176</ele>
        <time>2014-08-01T10:16:02.000Z</time>
      </trkpt>
      <trkpt lat="48.75213" lon="1.81512">
        <ele>152.19999694824</ele>
        <time>2014-08-01T10:16:06.000Z</time>
      </trkpt>
      <trkpt lat="48.75219" lon="1.81522">
        <ele>151.39999389648</ele>
        <time>2014-08-01T10:16:13.000Z</time>
      </trkpt>
      <trkpt lat="48.75221" lon="1.81523">
        <ele>151.39999389648</ele>
        <time>2014-08-01T10:16:15.000Z</time>
      </trkpt>
      <trkpt lat="48.75225" lon="1.81532">
        <ele>150.60000610352</ele>
        <time>2014-08-01T10:16:23.000Z</time>
      </trkpt>
      <trkpt lat="48.75228" lon="1.81537">
        <ele>150</ele>
        <time>2014-08-01T10:16:29.000Z</time>
      </trkpt>
      <trkpt lat="48.75231" lon="1.8154">
        <ele>149.80000305176</ele>
        <time>2014-08-01T10:16:31.000Z</time>
      </trkpt>
      <trkpt lat="48.75238" lon="1.81551">
        <ele>148.60000610352</ele>
        <time>2014-08-01T10:16:37.000Z</time>
      </trkpt>
      <trkpt lat="48.75241" lon="1.81554">
        <ele>148.39999389648</ele>
        <time>2014-08-01T10:16:39.000Z</time>
      </trkpt>
      <trkpt lat="48.75248" lon="1.8156">
        <ele>147.80000305176</ele>
        <time>2014-08-01T10:16:44.000Z</time>
      </trkpt>
      <trkpt lat="48.75253" lon="1.8157">
        <ele>146.80000305176</ele>
        <time>2014-08-01T10:16:51.000Z</time>
      </trkpt>
      <trkpt lat="48.75257" lon="1.81581">
        <ele>146</ele>
        <time>2014-08-01T10:16:57.000Z</time>
      </trkpt>
      <trkpt lat="48.75259" lon="1.81583">
        <ele>146</ele>
        <time>2014-08-01T10:16:59.000Z</time>
      </trkpt>
      <trkpt lat="48.75262" lon="1.81586">
        <ele>145.60000610352</ele>
        <time>2014-08-01T10:17:02.000Z</time>
      </trkpt>
      <trkpt lat="48.75273" lon="1.81598">
        <ele>144.60000610352</ele>
        <time>2014-08-01T10:17:08.000Z</time>
      </trkpt>
      <trkpt lat="48.75274" lon="1.816">
        <ele>144.60000610352</ele>
        <time>2014-08-01T10:17:09.000Z</time>
      </trkpt>
      <trkpt lat="48.75284" lon="1.81609">
        <ele>144</ele>
        <time>2014-08-01T10:17:14.000Z</time>
      </trkpt>
      <trkpt lat="48.75289" lon="1.81621">
        <ele>143.19999694824</ele>
        <time>2014-08-01T10:17:22.000Z</time>
      </trkpt>
      <trkpt lat="48.75293" lon="1.81631">
        <ele>142.60000610352</ele>
        <time>2014-08-01T10:17:28.000Z</time>
      </trkpt>
      <trkpt lat="48.75298" lon="1.81641">
        <ele>142</ele>
        <time>2014-08-01T10:17:34.000Z</time>
      </trkpt>
      <trkpt lat="48.75303" lon="1.81648">
        <ele>141.60000610352</ele>
        <time>2014-08-01T10:17:40.000Z</time>
      </trkpt>
      <trkpt lat="48.7531" lon="1.81655">
        <ele>141</ele>
        <time>2014-08-01T10:17:45.000Z</time>
      </trkpt>
      <trkpt lat="48.75313" lon="1.81659">
        <ele>140.80000305176</ele>
        <time>2014-08-01T10:17:48.000Z</time>
      </trkpt>
      <trkpt lat="48.75319" lon="1.81667">
        <ele>140</ele>
        <time>2014-08-01T10:17:54.000Z</time>
      </trkpt>
      <trkpt lat="48.75328" lon="1.81678">
        <ele>139</ele>
        <time>2014-08-01T10:18:02.000Z</time>
      </trkpt>
      <trkpt lat="48.75329" lon="1.8168">
        <ele>138.80000305176</ele>
        <time>2014-08-01T10:18:03.000Z</time>
      </trkpt>
      <trkpt lat="48.75336" lon="1.81696">
        <ele>137.60000610352</ele>
        <time>2014-08-01T10:18:12.000Z</time>
      </trkpt>
      <trkpt lat="48.75339" lon="1.81703">
        <ele>137</ele>
        <time>2014-08-01T10:18:16.000Z</time>
      </trkpt>
      <trkpt lat="48.75347" lon="1.81708">
        <ele>136.39999389648</ele>
        <time>2014-08-01T10:18:22.000Z</time>
      </trkpt>
      <trkpt lat="48.7535" lon="1.81711">
        <ele>136</ele>
        <time>2014-08-01T10:18:24.000Z</time>
      </trkpt>
      <trkpt lat="48.75359" lon="1.81723">
        <ele>135.19999694824</ele>
        <time>2014-08-01T10:18:32.000Z</time>
      </trkpt>
      <trkpt lat="48.75364" lon="1.81729">
        <ele>135</ele>
        <time>2014-08-01T10:18:36.000Z</time>
      </trkpt>
      <trkpt lat="48.75372" lon="1.81743">
        <ele>134.39999389648</ele>
        <time>2014-08-01T10:18:45.000Z</time>
      </trkpt>
      <trkpt lat="48.75375" lon="1.81752">
        <ele>133.80000305176</ele>
        <time>2014-08-01T10:18:51.000Z</time>
      </trkpt>
      <trkpt lat="48.75378" lon="1.81753">
        <ele>133.80000305176</ele>
        <time>2014-08-01T10:18:53.000Z</time>
      </trkpt>
      <trkpt lat="48.75381" lon="1.81756">
        <ele>133.80000305176</ele>
        <time>2014-08-01T10:18:57.000Z</time>
      </trkpt>
      <trkpt lat="48.75387" lon="1.81767">
        <ele>133.19999694824</ele>
        <time>2014-08-01T10:19:04.000Z</time>
      </trkpt>
      <trkpt lat="48.75395" lon="1.81777">
        <ele>132.60000610352</ele>
        <time>2014-08-01T10:19:10.000Z</time>
      </trkpt>
      <trkpt lat="48.75404" lon="1.81791">
        <ele>132.19999694824</ele>
        <time>2014-08-01T10:19:19.000Z</time>
      </trkpt>
      <trkpt lat="48.75406" lon="1.81796">
        <ele>132</ele>
        <time>2014-08-01T10:19:22.000Z</time>
      </trkpt>
      <trkpt lat="48.75412" lon="1.81805">
        <ele>131.60000610352</ele>
        <time>2014-08-01T10:19:28.000Z</time>
      </trkpt>
      <trkpt lat="48.75423" lon="1.81813">
        <ele>131.39999389648</ele>
        <time>2014-08-01T10:19:35.000Z</time>
      </trkpt>
      <trkpt lat="48.75425" lon="1.81804">
        <ele>131.80000305176</ele>
        <time>2014-08-01T10:19:41.000Z</time>
      </trkpt>
      <trkpt lat="48.75425" lon="1.81802">
        <ele>132</ele>
        <time>2014-08-01T10:19:42.000Z</time>
      </trkpt>
      <trkpt lat="48.75423" lon="1.81797">
        <ele>132.19999694824</ele>
        <time>2014-08-01T10:19:48.000Z</time>
      </trkpt>
      <trkpt lat="48.75423" lon="1.81783">
        <ele>133.39999389648</ele>
        <time>2014-08-01T10:19:54.000Z</time>
      </trkpt>
      <trkpt lat="48.75423" lon="1.81771">
        <ele>134.19999694824</ele>
        <time>2014-08-01T10:19:59.000Z</time>
      </trkpt>
      <trkpt lat="48.7542" lon="1.81765">
        <ele>134.39999389648</ele>
        <time>2014-08-01T10:20:05.000Z</time>
      </trkpt>
      <trkpt lat="48.75421" lon="1.81763">
        <ele>134.60000610352</ele>
        <time>2014-08-01T10:20:09.000Z</time>
      </trkpt>
      <trkpt lat="48.75826" lon="1.80422">
        <ele>164.60000610352</ele>
        <time>2014-08-01T11:12:43.000Z</time>
      </trkpt>
      <trkpt lat="48.75826" lon="1.80421">
        <ele>164.60000610352</ele>
        <time>2014-08-01T11:12:44.000Z</time>
      </trkpt>
      <trkpt lat="48.75832" lon="1.80413">
        <ele>165</ele>
        <time>2014-08-01T11:12:48.000Z</time>
      </trkpt>
      <trkpt lat="48.75834" lon="1.8041">
        <ele>165.19999694824</ele>
        <time>2014-08-01T11:12:51.000Z</time>
      </trkpt>
      <trkpt lat="48.75837" lon="1.80401">
        <ele>165.39999389648</ele>
        <time>2014-08-01T11:12:56.000Z</time>
      </trkpt>
      <trkpt lat="48.75838" lon="1.80393">
        <ele>165.60000610352</ele>
        <time>2014-08-01T11:13:02.000Z</time>
      </trkpt>
      <trkpt lat="48.75838" lon="1.80384">
        <ele>166.19999694824</ele>
        <time>2014-08-01T11:13:08.000Z</time>
      </trkpt>
      <trkpt lat="48.75838" lon="1.80382">
        <ele>166.19999694824</ele>
        <time>2014-08-01T11:13:10.000Z</time>
      </trkpt>
      <trkpt lat="48.75838" lon="1.80374">
        <ele>166.80000305176</ele>
        <time>2014-08-01T11:13:15.000Z</time>
      </trkpt>
      <trkpt lat="48.75839" lon="1.80373">
        <ele>167</ele>
        <time>2014-08-01T11:13:16.000Z</time>
      </trkpt>
      <trkpt lat="48.75842" lon="1.80366">
        <ele>167.80000305176</ele>
        <time>2014-08-01T11:13:19.000Z</time>
      </trkpt>
      <trkpt lat="48.75845" lon="1.80354">
        <ele>168.80000305176</ele>
        <time>2014-08-01T11:13:26.000Z</time>
      </trkpt>
      <trkpt lat="48.75843" lon="1.80342">
        <ele>169.60000610352</ele>
        <time>2014-08-01T11:13:33.000Z</time>
      </trkpt>
      <trkpt lat="48.75845" lon="1.80332">
        <ele>170.39999389648</ele>
        <time>2014-08-01T11:13:38.000Z</time>
      </trkpt>
      <trkpt lat="48.75846" lon="1.80321">
        <ele>171.39999389648</ele>
        <time>2014-08-01T11:13:45.000Z</time>
      </trkpt>
      <trkpt lat="48.75849" lon="1.80315">
        <ele>171.60000610352</ele>
        <time>2014-08-01T11:13:50.000Z</time>
      </trkpt>
      <trkpt lat="48.7585" lon="1.80304">
        <ele>172.19999694824</ele>
        <time>2014-08-01T11:13:56.000Z</time>
      </trkpt>
      <trkpt lat="48.75851" lon="1.80298">
        <ele>172.39999389648</ele>
        <time>2014-08-01T11:13:59.000Z</time>
      </trkpt>
      <trkpt lat="48.75852" lon="1.80292">
        <ele>172.80000305176</ele>
        <time>2014-08-01T11:14:03.000Z</time>
      </trkpt>
      <trkpt lat="48.75853" lon="1.80279">
        <ele>173.39999389648</ele>
        <time>2014-08-01T11:14:09.000Z</time>
      </trkpt>
      <trkpt lat="48.75853" lon="1.80271">
        <ele>173.60000610352</ele>
        <time>2014-08-01T11:14:14.000Z</time>
      </trkpt>
      <trkpt lat="48.75853" lon="1.8027">
        <ele>173.80000305176</ele>
        <time>2014-08-01T11:14:15.000Z</time>
      </trkpt>
      <trkpt lat="48.75856" lon="1.80255">
        <ele>174.39999389648</ele>
        <time>2014-08-01T11:14:23.000Z</time>
      </trkpt>
      <trkpt lat="48.75856" lon="1.80252">
        <ele>174.60000610352</ele>
        <time>2014-08-01T11:14:25.000Z</time>
      </trkpt>
      <trkpt lat="48.75858" lon="1.8024">
        <ele>175</ele>
        <time>2014-08-01T11:14:31.000Z</time>
      </trkpt>
      <trkpt lat="48.75859" lon="1.80233">
        <ele>174.80000305176</ele>
        <time>2014-08-01T11:14:35.000Z</time>
      </trkpt>
      <trkpt lat="48.75858" lon="1.80227">
        <ele>174.80000305176</ele>
        <time>2014-08-01T11:14:39.000Z</time>
      </trkpt>
      <trkpt lat="48.75859" lon="1.80219">
        <ele>174.80000305176</ele>
        <time>2014-08-01T11:14:43.000Z</time>
      </trkpt>
      <trkpt lat="48.75861" lon="1.8021">
        <ele>174.60000610352</ele>
        <time>2014-08-01T11:14:49.000Z</time>
      </trkpt>
      <trkpt lat="48.75862" lon="1.80203">
        <ele>174.39999389648</ele>
        <time>2014-08-01T11:14:53.000Z</time>
      </trkpt>
      <trkpt lat="48.75864" lon="1.80188">
        <ele>174.19999694824</ele>
        <time>2014-08-01T11:15:02.000Z</time>
      </trkpt>
      <trkpt lat="48.75866" lon="1.80181">
        <ele>174.19999694824</ele>
        <time>2014-08-01T11:15:06.000Z</time>
      </trkpt>
      <trkpt lat="48.75865" lon="1.80173">
        <ele>174</ele>
        <time>2014-08-01T11:15:10.000Z</time>
      </trkpt>
      <trkpt lat="48.75865" lon="1.80162">
        <ele>174.19999694824</ele>
        <time>2014-08-01T11:15:17.000Z</time>
      </trkpt>
      <trkpt lat="48.75866" lon="1.80153">
        <ele>174.60000610352</ele>
        <time>2014-08-01T11:15:23.000Z</time>
      </trkpt>
      <trkpt lat="48.75867" lon="1.80149">
        <ele>174.80000305176</ele>
        <time>2014-08-01T11:15:25.000Z</time>
      </trkpt>
      <trkpt lat="48.75872" lon="1.80133">
        <ele>175.80000305176</ele>
        <time>2014-08-01T11:15:33.000Z</time>
      </trkpt>
      <trkpt lat="48.75872" lon="1.80115">
        <ele>176.60000610352</ele>
        <time>2014-08-01T11:15:40.000Z</time>
      </trkpt>
      <trkpt lat="48.75873" lon="1.8011">
        <ele>176.80000305176</ele>
        <time>2014-08-01T11:15:44.000Z</time>
      </trkpt>
      <trkpt lat="48.75874" lon="1.80097">
        <ele>177.60000610352</ele>
        <time>2014-08-01T11:15:50.000Z</time>
      </trkpt>
      <trkpt lat="48.75875" lon="1.80089">
        <ele>177.80000305176</ele>
        <time>2014-08-01T11:15:54.000Z</time>
      </trkpt>
      <trkpt lat="48.75875" lon="1.80079">
        <ele>178</ele>
        <time>2014-08-01T11:16:01.000Z</time>
      </trkpt>
      <trkpt lat="48.75873" lon="1.80068">
        <ele>178</ele>
        <time>2014-08-01T11:16:07.000Z</time>
      </trkpt>
      <trkpt lat="48.75875" lon="1.80059">
        <ele>178.39999389648</ele>
        <time>2014-08-01T11:16:11.000Z</time>
      </trkpt>
      <trkpt lat="48.7588" lon="1.80044">
        <ele>178.60000610352</ele>
        <time>2014-08-01T11:16:18.000Z</time>
      </trkpt>
      <trkpt lat="48.75882" lon="1.80033">
        <ele>179</ele>
        <time>2014-08-01T11:16:24.000Z</time>
      </trkpt>
      <trkpt lat="48.75882" lon="1.80029">
        <ele>179</ele>
        <time>2014-08-01T11:16:26.000Z</time>
      </trkpt>
      <trkpt lat="48.75883" lon="1.80018">
        <ele>179.19999694824</ele>
        <time>2014-08-01T11:16:31.000Z</time>
      </trkpt>
      <trkpt lat="48.75885" lon="1.80013">
        <ele>179.39999389648</ele>
        <time>2014-08-01T11:16:34.000Z</time>
      </trkpt>
      <trkpt lat="48.75886" lon="1.80006">
        <ele>179.80000305176</ele>
        <time>2014-08-01T11:16:38.000Z</time>
      </trkpt>
      <trkpt lat="48.75887" lon="1.8">
        <ele>180</ele>
        <time>2014-08-01T11:16:41.000Z</time>
      </trkpt>
      <trkpt lat="48.75885" lon="1.79987">
        <ele>180.39999389648</ele>
        <time>2014-08-01T11:16:48.000Z</time>
      </trkpt>
      <trkpt lat="48.75885" lon="1.79982">
        <ele>180.39999389648</ele>
        <time>2014-08-01T11:16:51.000Z</time>
      </trkpt>
      <trkpt lat="48.75878" lon="1.7998">
        <ele>180.19999694824</ele>
        <time>2014-08-01T11:16:57.000Z</time>
      </trkpt>
      <trkpt lat="48.75877" lon="1.7998">
        <ele>180.19999694824</ele>
        <time>2014-08-01T11:16:58.000Z</time>
      </trkpt>
      <trkpt lat="48.75871" lon="1.79978">
        <ele>180.19999694824</ele>
        <time>2014-08-01T11:17:03.000Z</time>
      </trkpt>
      <trkpt lat="48.75864" lon="1.79975">
        <ele>180.19999694824</ele>
        <time>2014-08-01T11:17:08.000Z</time>
      </trkpt>
      <trkpt lat="48.7586" lon="1.79973">
        <ele>180</ele>
        <time>2014-08-01T11:17:12.000Z</time>
      </trkpt>
      <trkpt lat="48.75855" lon="1.79969">
        <ele>180</ele>
        <time>2014-08-01T11:17:19.000Z</time>
      </trkpt>
      <trkpt lat="48.75853" lon="1.79967">
        <ele>180</ele>
        <time>2014-08-01T11:17:23.000Z</time>
      </trkpt>
      <trkpt lat="48.75848" lon="1.79964">
        <ele>180</ele>
        <time>2014-08-01T11:17:28.000Z</time>
      </trkpt>
      <trkpt lat="48.75842" lon="1.79961">
        <ele>180</ele>
        <time>2014-08-01T11:17:33.000Z</time>
      </trkpt>
      <trkpt lat="48.75835" lon="1.7996">
        <ele>180</ele>
        <time>2014-08-01T11:17:37.000Z</time>
      </trkpt>
      <trkpt lat="48.75828" lon="1.79955">
        <ele>180</ele>
        <time>2014-08-01T11:17:44.000Z</time>
      </trkpt>
      <trkpt lat="48.75825" lon="1.79954">
        <ele>180</ele>
        <time>2014-08-01T11:17:48.000Z</time>
      </trkpt>
      <trkpt lat="48.75817" lon="1.79951">
        <ele>180</ele>
        <time>2014-08-01T11:17:52.000Z</time>
      </trkpt>
      <trkpt lat="48.75805" lon="1.79945">
        <ele>180</ele>
        <time>2014-08-01T11:18:00.000Z</time>
      </trkpt>
      <trkpt lat="48.75802" lon="1.79941">
        <ele>180</ele>
        <time>2014-08-01T11:18:05.000Z</time>
      </trkpt>
      <trkpt lat="48.75795" lon="1.79936">
        <ele>180</ele>
        <time>2014-08-01T11:18:11.000Z</time>
      </trkpt>
      <trkpt lat="48.75788" lon="1.79933">
        <ele>179.80000305176</ele>
        <time>2014-08-01T11:18:16.000Z</time>
      </trkpt>
      <trkpt lat="48.75781" lon="1.7993">
        <ele>179.80000305176</ele>
        <time>2014-08-01T11:18:22.000Z</time>
      </trkpt>
      <trkpt lat="48.75775" lon="1.79926">
        <ele>179.80000305176</ele>
        <time>2014-08-01T11:18:28.000Z</time>
      </trkpt>
      <trkpt lat="48.75771" lon="1.79924">
        <ele>179.80000305176</ele>
        <time>2014-08-01T11:18:35.000Z</time>
      </trkpt>
      <trkpt lat="48.75767" lon="1.79921">
        <ele>179.60000610352</ele>
        <time>2014-08-01T11:18:40.000Z</time>
      </trkpt>
      <trkpt lat="48.75761" lon="1.79919">
        <ele>179.39999389648</ele>
        <time>2014-08-01T11:18:45.000Z</time>
      </trkpt>
      <trkpt lat="48.75753" lon="1.79915">
        <ele>179.19999694824</ele>
        <time>2014-08-01T11:18:50.000Z</time>
      </trkpt>
      <trkpt lat="48.75752" lon="1.79915">
        <ele>179.19999694824</ele>
        <time>2014-08-01T11:18:51.000Z</time>
      </trkpt>
      <trkpt lat="48.75745" lon="1.79912">
        <ele>179</ele>
        <time>2014-08-01T11:18:58.000Z</time>
      </trkpt>
      <trkpt lat="48.75744" lon="1.79912">
        <ele>179</ele>
        <time>2014-08-01T11:18:59.000Z</time>
      </trkpt>
      <trkpt lat="48.7574" lon="1.79912">
        <ele>178.80000305176</ele>
        <time>2014-08-01T11:19:02.000Z</time>
      </trkpt>
      <trkpt lat="48.75733" lon="1.79904">
        <ele>178.60000610352</ele>
        <time>2014-08-01T11:19:09.000Z</time>
      </trkpt>
      <trkpt lat="48.75729" lon="1.79902">
        <ele>178.60000610352</ele>
        <time>2014-08-01T11:19:12.000Z</time>
      </trkpt>
      <trkpt lat="48.75727" lon="1.799">
        <ele>178.60000610352</ele>
        <time>2014-08-01T11:19:14.000Z</time>
      </trkpt>
      <trkpt lat="48.75721" lon="1.79896">
        <ele>178.39999389648</ele>
        <time>2014-08-01T11:19:21.000Z</time>
      </trkpt>
      <trkpt lat="48.75726" lon="1.79897">
        <ele>178.60000610352</ele>
        <time>2014-08-01T11:19:28.000Z</time>
      </trkpt>
      <trkpt lat="48.75717" lon="1.79897">
        <ele>178.19999694824</ele>
        <time>2014-08-01T11:20:06.000Z</time>
      </trkpt>
      <trkpt lat="48.75712" lon="1.79893">
        <ele>178.19999694824</ele>
        <time>2014-08-01T11:20:11.000Z</time>
      </trkpt>
      <trkpt lat="48.75702" lon="1.79888">
        <ele>178</ele>
        <time>2014-08-01T11:20:19.000Z</time>
      </trkpt>
      <trkpt lat="48.75699" lon="1.79886">
        <ele>177.80000305176</ele>
        <time>2014-08-01T11:20:22.000Z</time>
      </trkpt>
      <trkpt lat="48.75696" lon="1.79886">
        <ele>177.80000305176</ele>
        <time>2014-08-01T11:20:24.000Z</time>
      </trkpt>
      <trkpt lat="48.7569" lon="1.79881">
        <ele>177.60000610352</ele>
        <time>2014-08-01T11:20:30.000Z</time>
      </trkpt>
      <trkpt lat="48.75689" lon="1.79881">
        <ele>177.60000610352</ele>
        <time>2014-08-01T11:20:31.000Z</time>
      </trkpt>
      <trkpt lat="48.75679" lon="1.79876">
        <ele>177.60000610352</ele>
        <time>2014-08-01T11:20:39.000Z</time>
      </trkpt>
      <trkpt lat="48.75678" lon="1.79874">
        <ele>177.80000305176</ele>
        <time>2014-08-01T11:20:41.000Z</time>
      </trkpt>
      <trkpt lat="48.75671" lon="1.79872">
        <ele>177.80000305176</ele>
        <time>2014-08-01T11:20:47.000Z</time>
      </trkpt>
      <trkpt lat="48.75665" lon="1.79872">
        <ele>177.80000305176</ele>
        <time>2014-08-01T11:20:51.000Z</time>
      </trkpt>
      <trkpt lat="48.75662" lon="1.7987">
        <ele>177.80000305176</ele>
        <time>2014-08-01T11:20:54.000Z</time>
      </trkpt>
      <trkpt lat="48.7566" lon="1.79868">
        <ele>177.80000305176</ele>
        <time>2014-08-01T11:20:59.000Z</time>
      </trkpt>
      <trkpt lat="48.75653" lon="1.79862">
        <ele>178</ele>
        <time>2014-08-01T11:21:08.000Z</time>
      </trkpt>
      <trkpt lat="48.75647" lon="1.79856">
        <ele>178.19999694824</ele>
        <time>2014-08-01T11:21:13.000Z</time>
      </trkpt>
      <trkpt lat="48.75647" lon="1.79853">
        <ele>178.19999694824</ele>
        <time>2014-08-01T11:21:22.000Z</time>
      </trkpt>
      <trkpt lat="48.75647" lon="1.79853">
        <ele>178.19999694824</ele>
        <time>2014-08-01T11:21:23.000Z</time>
      </trkpt>
      <trkpt lat="48.75624" lon="1.79849">
        <ele>178.19999694824</ele>
        <time>2014-08-01T11:23:00.000Z</time>
      </trkpt>
      <trkpt lat="48.75623" lon="1.79848">
        <ele>178.19999694824</ele>
        <time>2014-08-01T11:23:01.000Z</time>
      </trkpt>
      <trkpt lat="48.75614" lon="1.79845">
        <ele>178.19999694824</ele>
        <time>2014-08-01T11:23:06.000Z</time>
      </trkpt>
      <trkpt lat="48.7561" lon="1.79844">
        <ele>178</ele>
        <time>2014-08-01T11:23:09.000Z</time>
      </trkpt>
      <trkpt lat="48.75601" lon="1.7984">
        <ele>178.19999694824</ele>
        <time>2014-08-01T11:23:15.000Z</time>
      </trkpt>
      <trkpt lat="48.75592" lon="1.79836">
        <ele>178.39999389648</ele>
        <time>2014-08-01T11:23:20.000Z</time>
      </trkpt>
      <trkpt lat="48.75583" lon="1.79831">
        <ele>178.60000610352</ele>
        <time>2014-08-01T11:23:27.000Z</time>
      </trkpt>
      <trkpt lat="48.75577" lon="1.79832">
        <ele>178.60000610352</ele>
        <time>2014-08-01T11:23:31.000Z</time>
      </trkpt>
      <trkpt lat="48.75573" lon="1.7983">
        <ele>178.60000610352</ele>
        <time>2014-08-01T11:23:36.000Z</time>
      </trkpt>
      <trkpt lat="48.75569" lon="1.79827">
        <ele>178.80000305176</ele>
        <time>2014-08-01T11:23:39.000Z</time>
      </trkpt>
      <trkpt lat="48.75558" lon="1.79823">
        <ele>179</ele>
        <time>2014-08-01T11:23:48.000Z</time>
      </trkpt>
      <trkpt lat="48.7555" lon="1.79822">
        <ele>179</ele>
        <time>2014-08-01T11:23:55.000Z</time>
      </trkpt>
      <trkpt lat="48.75548" lon="1.7982">
        <ele>179</ele>
        <time>2014-08-01T11:23:57.000Z</time>
      </trkpt>
      <trkpt lat="48.75538" lon="1.79813">
        <ele>179.39999389648</ele>
        <time>2014-08-01T11:24:04.000Z</time>
      </trkpt>
      <trkpt lat="48.75537" lon="1.79811">
        <ele>179.39999389648</ele>
        <time>2014-08-01T11:24:06.000Z</time>
      </trkpt>
      <trkpt lat="48.7553" lon="1.79807">
        <ele>179.60000610352</ele>
        <time>2014-08-01T11:24:12.000Z</time>
      </trkpt>
      <trkpt lat="48.75521" lon="1.79805">
        <ele>179.60000610352</ele>
        <time>2014-08-01T11:24:18.000Z</time>
      </trkpt>
      <trkpt lat="48.7551" lon="1.798">
        <ele>180</ele>
        <time>2014-08-01T11:24:27.000Z</time>
      </trkpt>
      <trkpt lat="48.75504" lon="1.79799">
        <ele>180</ele>
        <time>2014-08-01T11:24:33.000Z</time>
      </trkpt>
      <trkpt lat="48.75503" lon="1.79798">
        <ele>180</ele>
        <time>2014-08-01T11:24:34.000Z</time>
      </trkpt>
      <trkpt lat="48.75491" lon="1.79793">
        <ele>180.39999389648</ele>
        <time>2014-08-01T11:24:42.000Z</time>
      </trkpt>
      <trkpt lat="48.75486" lon="1.7979">
        <ele>180.60000610352</ele>
        <time>2014-08-01T11:24:46.000Z</time>
      </trkpt>
      <trkpt lat="48.75481" lon="1.79787">
        <ele>180.80000305176</ele>
        <time>2014-08-01T11:24:51.000Z</time>
      </trkpt>
      <trkpt lat="48.75474" lon="1.79783">
        <ele>181</ele>
        <time>2014-08-01T11:24:56.000Z</time>
      </trkpt>
      <trkpt lat="48.75467" lon="1.79779">
        <ele>181.19999694824</ele>
        <time>2014-08-01T11:25:00.000Z</time>
      </trkpt>
      <trkpt lat="48.75461" lon="1.79773">
        <ele>181.39999389648</ele>
        <time>2014-08-01T11:25:04.000Z</time>
      </trkpt>
      <trkpt lat="48.75452" lon="1.79767">
        <ele>181.80000305176</ele>
        <time>2014-08-01T11:25:10.000Z</time>
      </trkpt>
      <trkpt lat="48.75442" lon="1.79765">
        <ele>182</ele>
        <time>2014-08-01T11:25:16.000Z</time>
      </trkpt>
      <trkpt lat="48.75438" lon="1.79762">
        <ele>182.19999694824</ele>
        <time>2014-08-01T11:25:21.000Z</time>
      </trkpt>
      <trkpt lat="48.75431" lon="1.79758">
        <ele>182.60000610352</ele>
        <time>2014-08-01T11:25:26.000Z</time>
      </trkpt>
      <trkpt lat="48.7542" lon="1.79752">
        <ele>183.19999694824</ele>
        <time>2014-08-01T11:25:33.000Z</time>
      </trkpt>
      <trkpt lat="48.7541" lon="1.79748">
        <ele>183.60000610352</ele>
        <time>2014-08-01T11:25:40.000Z</time>
      </trkpt>
      <trkpt lat="48.75405" lon="1.79742">
        <ele>184</ele>
        <time>2014-08-01T11:25:46.000Z</time>
      </trkpt>
      <trkpt lat="48.75402" lon="1.79741">
        <ele>184.19999694824</ele>
        <time>2014-08-01T11:25:48.000Z</time>
      </trkpt>
      <trkpt lat="48.75398" lon="1.79741">
        <ele>184.39999389648</ele>
        <time>2014-08-01T11:25:52.000Z</time>
      </trkpt>
      <trkpt lat="48.75389" lon="1.79733">
        <ele>184.80000305176</ele>
        <time>2014-08-01T11:25:58.000Z</time>
      </trkpt>
      <trkpt lat="48.7539" lon="1.79724">
        <ele>184.80000305176</ele>
        <time>2014-08-01T11:26:05.000Z</time>
      </trkpt>
      <trkpt lat="48.75394" lon="1.79727">
        <ele>184.60000610352</ele>
        <time>2014-08-01T11:26:11.000Z</time>
      </trkpt>
      <trkpt lat="48.75401" lon="1.79727">
        <ele>184.39999389648</ele>
        <time>2014-08-01T11:26:17.000Z</time>
      </trkpt>
      <trkpt lat="48.75411" lon="1.7973">
        <ele>184</ele>
        <time>2014-08-01T11:26:24.000Z</time>
      </trkpt>
      <trkpt lat="48.75416" lon="1.79735">
        <ele>183.80000305176</ele>
        <time>2014-08-01T11:26:29.000Z</time>
      </trkpt>
      <trkpt lat="48.75416" lon="1.79747">
        <ele>183.39999389648</ele>
        <time>2014-08-01T11:26:34.000Z</time>
      </trkpt>
      <trkpt lat="48.75409" lon="1.79765">
        <ele>183</ele>
        <time>2014-08-01T11:26:42.000Z</time>
      </trkpt>
      <trkpt lat="48.75403" lon="1.79782">
        <ele>182.60000610352</ele>
        <time>2014-08-01T11:26:49.000Z</time>
      </trkpt>
      <trkpt lat="48.75397" lon="1.79799">
        <ele>182.60000610352</ele>
        <time>2014-08-01T11:26:57.000Z</time>
      </trkpt>
      <trkpt lat="48.75391" lon="1.79813">
        <ele>182.39999389648</ele>
        <time>2014-08-01T11:27:03.000Z</time>
      </trkpt>
      <trkpt lat="48.75389" lon="1.79825">
        <ele>182.39999389648</ele>
        <time>2014-08-01T11:27:10.000Z</time>
      </trkpt>
      <trkpt lat="48.75383" lon="1.79839">
        <ele>182.60000610352</ele>
        <time>2014-08-01T11:27:17.000Z</time>
      </trkpt>
      <trkpt lat="48.75376" lon="1.79856">
        <ele>183</ele>
        <time>2014-08-01T11:27:25.000Z</time>
      </trkpt>
      <trkpt lat="48.75369" lon="1.79872">
        <ele>183.19999694824</ele>
        <time>2014-08-01T11:27:33.000Z</time>
      </trkpt>
      <trkpt lat="48.75369" lon="1.79874">
        <ele>183.19999694824</ele>
        <time>2014-08-01T11:27:34.000Z</time>
      </trkpt>
      <trkpt lat="48.75366" lon="1.79881">
        <ele>183.39999389648</ele>
        <time>2014-08-01T11:27:38.000Z</time>
      </trkpt>
      <trkpt lat="48.75362" lon="1.79889">
        <ele>183.60000610352</ele>
        <time>2014-08-01T11:27:45.000Z</time>
      </trkpt>
      <trkpt lat="48.75358" lon="1.79901">
        <ele>183.80000305176</ele>
        <time>2014-08-01T11:27:52.000Z</time>
      </trkpt>
      <trkpt lat="48.75352" lon="1.79914">
        <ele>184</ele>
        <time>2014-08-01T11:27:59.000Z</time>
      </trkpt>
      <trkpt lat="48.75347" lon="1.79929">
        <ele>183.80000305176</ele>
        <time>2014-08-01T11:28:06.000Z</time>
      </trkpt>
      <trkpt lat="48.75342" lon="1.79942">
        <ele>183.80000305176</ele>
        <time>2014-08-01T11:28:12.000Z</time>
      </trkpt>
      <trkpt lat="48.75336" lon="1.79955">
        <ele>183.60000610352</ele>
        <time>2014-08-01T11:28:19.000Z</time>
      </trkpt>
      <trkpt lat="48.75331" lon="1.79968">
        <ele>183.60000610352</ele>
        <time>2014-08-01T11:28:26.000Z</time>
      </trkpt>
      <trkpt lat="48.75325" lon="1.79979">
        <ele>183.80000305176</ele>
        <time>2014-08-01T11:28:33.000Z</time>
      </trkpt>
      <trkpt lat="48.75319" lon="1.79993">
        <ele>183.80000305176</ele>
        <time>2014-08-01T11:28:40.000Z</time>
      </trkpt>
      <trkpt lat="48.75317" lon="1.80006">
        <ele>183.39999389648</ele>
        <time>2014-08-01T11:28:47.000Z</time>
      </trkpt>
      <trkpt lat="48.75311" lon="1.80021">
        <ele>183.19999694824</ele>
        <time>2014-08-01T11:28:55.000Z</time>
      </trkpt>
      <trkpt lat="48.75305" lon="1.80034">
        <ele>183.19999694824</ele>
        <time>2014-08-01T11:29:02.000Z</time>
      </trkpt>
      <trkpt lat="48.75301" lon="1.80044">
        <ele>183.19999694824</ele>
        <time>2014-08-01T11:29:08.000Z</time>
      </trkpt>
      <trkpt lat="48.75293" lon="1.80061">
        <ele>183.39999389648</ele>
        <time>2014-08-01T11:29:17.000Z</time>
      </trkpt>
      <trkpt lat="48.7529" lon="1.80074">
        <ele>183.19999694824</ele>
        <time>2014-08-01T11:29:23.000Z</time>
      </trkpt>
      <trkpt lat="48.75283" lon="1.8009">
        <ele>183.39999389648</ele>
        <time>2014-08-01T11:29:30.000Z</time>
      </trkpt>
      <trkpt lat="48.75278" lon="1.80102">
        <ele>183.60000610352</ele>
        <time>2014-08-01T11:29:36.000Z</time>
      </trkpt>
      <trkpt lat="48.75273" lon="1.80115">
        <ele>184</ele>
        <time>2014-08-01T11:29:42.000Z</time>
      </trkpt>
      <trkpt lat="48.75268" lon="1.80135">
        <ele>184</ele>
        <time>2014-08-01T11:29:51.000Z</time>
      </trkpt>
      <trkpt lat="48.75264" lon="1.80151">
        <ele>184</ele>
        <time>2014-08-01T11:29:58.000Z</time>
      </trkpt>
      <trkpt lat="48.75257" lon="1.80166">
        <ele>183.60000610352</ele>
        <time>2014-08-01T11:30:05.000Z</time>
      </trkpt>
      <trkpt lat="48.75249" lon="1.80182">
        <ele>183</ele>
        <time>2014-08-01T11:30:13.000Z</time>
      </trkpt>
      <trkpt lat="48.75245" lon="1.80193">
        <ele>182.60000610352</ele>
        <time>2014-08-01T11:30:18.000Z</time>
      </trkpt>
      <trkpt lat="48.75244" lon="1.80201">
        <ele>182.39999389648</ele>
        <time>2014-08-01T11:30:22.000Z</time>
      </trkpt>
      <trkpt lat="48.7524" lon="1.80212">
        <ele>182</ele>
        <time>2014-08-01T11:30:27.000Z</time>
      </trkpt>
      <trkpt lat="48.75234" lon="1.80217">
        <ele>182</ele>
        <time>2014-08-01T11:30:33.000Z</time>
      </trkpt>
      <trkpt lat="48.75226" lon="1.80216">
        <ele>182</ele>
        <time>2014-08-01T11:30:44.000Z</time>
      </trkpt>
      <trkpt lat="48.75217" lon="1.80212">
        <ele>182.19999694824</ele>
        <time>2014-08-01T11:30:49.000Z</time>
      </trkpt>
      <trkpt lat="48.75215" lon="1.80211">
        <ele>182.39999389648</ele>
        <time>2014-08-01T11:30:50.000Z</time>
      </trkpt>
      <trkpt lat="48.75205" lon="1.80202">
        <ele>182.60000610352</ele>
        <time>2014-08-01T11:30:58.000Z</time>
      </trkpt>
      <trkpt lat="48.75196" lon="1.80196">
        <ele>183</ele>
        <time>2014-08-01T11:31:04.000Z</time>
      </trkpt>
      <trkpt lat="48.75193" lon="1.80194">
        <ele>183</ele>
        <time>2014-08-01T11:31:06.000Z</time>
      </trkpt>
      <trkpt lat="48.75182" lon="1.80193">
        <ele>183</ele>
        <time>2014-08-01T11:31:13.000Z</time>
      </trkpt>
      <trkpt lat="48.75178" lon="1.80189">
        <ele>183</ele>
        <time>2014-08-01T11:31:16.000Z</time>
      </trkpt>
      <trkpt lat="48.75166" lon="1.80181">
        <ele>183.19999694824</ele>
        <time>2014-08-01T11:31:22.000Z</time>
      </trkpt>
      <trkpt lat="48.75158" lon="1.80178">
        <ele>183.19999694824</ele>
        <time>2014-08-01T11:31:27.000Z</time>
      </trkpt>
      <trkpt lat="48.75155" lon="1.80173">
        <ele>183.19999694824</ele>
        <time>2014-08-01T11:31:30.000Z</time>
      </trkpt>
      <trkpt lat="48.75146" lon="1.80162">
        <ele>183.39999389648</ele>
        <time>2014-08-01T11:31:38.000Z</time>
      </trkpt>
      <trkpt lat="48.75145" lon="1.80161">
        <ele>183.39999389648</ele>
        <time>2014-08-01T11:31:39.000Z</time>
      </trkpt>
      <trkpt lat="48.75136" lon="1.80155">
        <ele>183.39999389648</ele>
        <time>2014-08-01T11:31:45.000Z</time>
      </trkpt>
      <trkpt lat="48.75122" lon="1.80145">
        <ele>183.60000610352</ele>
        <time>2014-08-01T11:31:50.000Z</time>
      </trkpt>
      <trkpt lat="48.75105" lon="1.80134">
        <ele>183.80000305176</ele>
        <time>2014-08-01T11:31:55.000Z</time>
      </trkpt>
      <trkpt lat="48.75091" lon="1.80122">
        <ele>184.19999694824</ele>
        <time>2014-08-01T11:32:00.000Z</time>
      </trkpt>
      <trkpt lat="48.75074" lon="1.80112">
        <ele>184.60000610352</ele>
        <time>2014-08-01T11:32:05.000Z</time>
      </trkpt>
      <trkpt lat="48.75061" lon="1.80102">
        <ele>184.80000305176</ele>
        <time>2014-08-01T11:32:09.000Z</time>
      </trkpt>
      <trkpt lat="48.75039" lon="1.80087">
        <ele>185.39999389648</ele>
        <time>2014-08-01T11:32:15.000Z</time>
      </trkpt>
      <trkpt lat="48.75015" lon="1.80069">
        <ele>186</ele>
        <time>2014-08-01T11:32:22.000Z</time>
      </trkpt>
      <trkpt lat="48.75004" lon="1.8006">
        <ele>186</ele>
        <time>2014-08-01T11:32:26.000Z</time>
      </trkpt>
      <trkpt lat="48.74986" lon="1.80053">
        <ele>186</ele>
        <time>2014-08-01T11:32:31.000Z</time>
      </trkpt>
      <trkpt lat="48.74968" lon="1.8004">
        <ele>186</ele>
        <time>2014-08-01T11:32:36.000Z</time>
      </trkpt>
      <trkpt lat="48.74951" lon="1.80025">
        <ele>186</ele>
        <time>2014-08-01T11:32:41.000Z</time>
      </trkpt>
      <trkpt lat="48.74939" lon="1.80018">
        <ele>186</ele>
        <time>2014-08-01T11:32:45.000Z</time>
      </trkpt>
      <trkpt lat="48.74928" lon="1.80007">
        <ele>186.39999389648</ele>
        <time>2014-08-01T11:32:49.000Z</time>
      </trkpt>
      <trkpt lat="48.74913" lon="1.79996">
        <ele>187.19999694824</ele>
        <time>2014-08-01T11:32:54.000Z</time>
      </trkpt>
      <trkpt lat="48.74893" lon="1.79981">
        <ele>188.39999389648</ele>
        <time>2014-08-01T11:32:59.000Z</time>
      </trkpt>
      <trkpt lat="48.7488" lon="1.79966">
        <ele>189.60000610352</ele>
        <time>2014-08-01T11:33:05.000Z</time>
      </trkpt>
      <trkpt lat="48.74868" lon="1.79957">
        <ele>190.60000610352</ele>
        <time>2014-08-01T11:33:09.000Z</time>
      </trkpt>
      <trkpt lat="48.7485" lon="1.7995">
        <ele>191.60000610352</ele>
        <time>2014-08-01T11:33:13.000Z</time>
      </trkpt>
      <trkpt lat="48.74837" lon="1.79942">
        <ele>192.19999694824</ele>
        <time>2014-08-01T11:33:17.000Z</time>
      </trkpt>
      <trkpt lat="48.74812" lon="1.79921">
        <ele>194</ele>
        <time>2014-08-01T11:33:25.000Z</time>
      </trkpt>
      <trkpt lat="48.748" lon="1.79915">
        <ele>194.60000610352</ele>
        <time>2014-08-01T11:33:29.000Z</time>
      </trkpt>
      <trkpt lat="48.74789" lon="1.79902">
        <ele>195.39999389648</ele>
        <time>2014-08-01T11:33:34.000Z</time>
      </trkpt>
      <trkpt lat="48.74777" lon="1.79892">
        <ele>196</ele>
        <time>2014-08-01T11:33:38.000Z</time>
      </trkpt>
      <trkpt lat="48.74765" lon="1.79883">
        <ele>196.19999694824</ele>
        <time>2014-08-01T11:33:44.000Z</time>
      </trkpt>
      <trkpt lat="48.7476" lon="1.7988">
        <ele>196.39999389648</ele>
        <time>2014-08-01T11:33:48.000Z</time>
      </trkpt>
      <trkpt lat="48.74754" lon="1.79874">
        <ele>196.39999389648</ele>
        <time>2014-08-01T11:33:53.000Z</time>
      </trkpt>
      <trkpt lat="48.7475" lon="1.7987">
        <ele>196.39999389648</ele>
        <time>2014-08-01T11:33:57.000Z</time>
      </trkpt>
      <trkpt lat="48.74744" lon="1.79859">
        <ele>196.60000610352</ele>
        <time>2014-08-01T11:34:05.000Z</time>
      </trkpt>
      <trkpt lat="48.74744" lon="1.79858">
        <ele>196.60000610352</ele>
        <time>2014-08-01T11:34:07.000Z</time>
      </trkpt>
      <trkpt lat="48.74732" lon="1.7985">
        <ele>196.60000610352</ele>
        <time>2014-08-01T11:34:43.000Z</time>
      </trkpt>
      <trkpt lat="48.74729" lon="1.79845">
        <ele>196.80000305176</ele>
        <time>2014-08-01T11:34:45.000Z</time>
      </trkpt>
      <trkpt lat="48.74721" lon="1.79841">
        <ele>196.80000305176</ele>
        <time>2014-08-01T11:34:51.000Z</time>
      </trkpt>
      <trkpt lat="48.74718" lon="1.79841">
        <ele>196.80000305176</ele>
        <time>2014-08-01T11:34:56.000Z</time>
      </trkpt>
      <trkpt lat="48.74715" lon="1.79834">
        <ele>196.80000305176</ele>
        <time>2014-08-01T11:35:01.000Z</time>
      </trkpt>
      <trkpt lat="48.74711" lon="1.79828">
        <ele>197</ele>
        <time>2014-08-01T11:35:06.000Z</time>
      </trkpt>
      <trkpt lat="48.74703" lon="1.79821">
        <ele>197</ele>
        <time>2014-08-01T11:35:13.000Z</time>
      </trkpt>
      <trkpt lat="48.74696" lon="1.79818">
        <ele>197</ele>
        <time>2014-08-01T11:35:18.000Z</time>
      </trkpt>
      <trkpt lat="48.74691" lon="1.79813">
        <ele>197</ele>
        <time>2014-08-01T11:35:22.000Z</time>
      </trkpt>
      <trkpt lat="48.74684" lon="1.79804">
        <ele>196.80000305176</ele>
        <time>2014-08-01T11:35:30.000Z</time>
      </trkpt>
      <trkpt lat="48.74677" lon="1.79793">
        <ele>196.60000610352</ele>
        <time>2014-08-01T11:35:38.000Z</time>
      </trkpt>
      <trkpt lat="48.74673" lon="1.79789">
        <ele>196.39999389648</ele>
        <time>2014-08-01T11:35:41.000Z</time>
      </trkpt>
      <trkpt lat="48.74663" lon="1.79779">
        <ele>196.19999694824</ele>
        <time>2014-08-01T11:35:49.000Z</time>
      </trkpt>
      <trkpt lat="48.74652" lon="1.79773">
        <ele>195.80000305176</ele>
        <time>2014-08-01T11:35:56.000Z</time>
      </trkpt>
      <trkpt lat="48.74651" lon="1.79772">
        <ele>195.60000610352</ele>
        <time>2014-08-01T11:35:57.000Z</time>
      </trkpt>
      <trkpt lat="48.74638" lon="1.79768">
        <ele>195.19999694824</ele>
        <time>2014-08-01T11:36:04.000Z</time>
      </trkpt>
      <trkpt lat="48.74632" lon="1.79765">
        <ele>195</ele>
        <time>2014-08-01T11:36:07.000Z</time>
      </trkpt>
      <trkpt lat="48.74624" lon="1.79759">
        <ele>194.80000305176</ele>
        <time>2014-08-01T11:36:13.000Z</time>
      </trkpt>
      <trkpt lat="48.74614" lon="1.79746">
        <ele>194.39999389648</ele>
        <time>2014-08-01T11:36:20.000Z</time>
      </trkpt>
      <trkpt lat="48.74607" lon="1.7974">
        <ele>194.19999694824</ele>
        <time>2014-08-01T11:36:28.000Z</time>
      </trkpt>
      <trkpt lat="48.746" lon="1.79731">
        <ele>194</ele>
        <time>2014-08-01T11:36:35.000Z</time>
      </trkpt>
      <trkpt lat="48.74599" lon="1.79729">
        <ele>194</ele>
        <time>2014-08-01T11:36:37.000Z</time>
      </trkpt>
      <trkpt lat="48.74593" lon="1.79722">
        <ele>194</ele>
        <time>2014-08-01T11:36:43.000Z</time>
      </trkpt>
      <trkpt lat="48.74586" lon="1.79716">
        <ele>194</ele>
        <time>2014-08-01T11:36:51.000Z</time>
      </trkpt>
      <trkpt lat="48.74582" lon="1.79714">
        <ele>194</ele>
        <time>2014-08-01T11:36:55.000Z</time>
      </trkpt>
      <trkpt lat="48.74572" lon="1.79709">
        <ele>194</ele>
        <time>2014-08-01T11:37:02.000Z</time>
      </trkpt>
      <trkpt lat="48.74565" lon="1.79707">
        <ele>194</ele>
        <time>2014-08-01T11:37:08.000Z</time>
      </trkpt>
      <trkpt lat="48.74564" lon="1.79704">
        <ele>194</ele>
        <time>2014-08-01T11:37:10.000Z</time>
      </trkpt>
      <trkpt lat="48.74553" lon="1.79691">
        <ele>194</ele>
        <time>2014-08-01T11:37:19.000Z</time>
      </trkpt>
      <trkpt lat="48.74539" lon="1.79682">
        <ele>194</ele>
        <time>2014-08-01T11:37:27.000Z</time>
      </trkpt>
      <trkpt lat="48.74535" lon="1.79679">
        <ele>194</ele>
        <time>2014-08-01T11:37:31.000Z</time>
      </trkpt>
      <trkpt lat="48.74534" lon="1.7967">
        <ele>194</ele>
        <time>2014-08-01T11:37:37.000Z</time>
      </trkpt>
      <trkpt lat="48.74534" lon="1.79668">
        <ele>194</ele>
        <time>2014-08-01T11:37:38.000Z</time>
      </trkpt>
      <trkpt lat="48.7453" lon="1.79668">
        <ele>194</ele>
        <time>2014-08-01T11:37:41.000Z</time>
      </trkpt>
      <trkpt lat="48.74521" lon="1.79657">
        <ele>194</ele>
        <time>2014-08-01T11:37:49.000Z</time>
      </trkpt>
      <trkpt lat="48.74512" lon="1.79647">
        <ele>194</ele>
        <time>2014-08-01T11:37:56.000Z</time>
      </trkpt>
      <trkpt lat="48.74511" lon="1.79646">
        <ele>194</ele>
        <time>2014-08-01T11:37:57.000Z</time>
      </trkpt>
      <trkpt lat="48.74505" lon="1.79639">
        <ele>194</ele>
        <time>2014-08-01T11:38:02.000Z</time>
      </trkpt>
      <trkpt lat="48.74502" lon="1.79638">
        <ele>194</ele>
        <time>2014-08-01T11:38:04.000Z</time>
      </trkpt>
      <trkpt lat="48.74495" lon="1.79634">
        <ele>194</ele>
        <time>2014-08-01T11:38:09.000Z</time>
      </trkpt>
      <trkpt lat="48.74486" lon="1.79624">
        <ele>194</ele>
        <time>2014-08-01T11:38:16.000Z</time>
      </trkpt>
      <trkpt lat="48.74485" lon="1.79623">
        <ele>194</ele>
        <time>2014-08-01T11:38:17.000Z</time>
      </trkpt>
      <trkpt lat="48.74476" lon="1.79619">
        <ele>194</ele>
        <time>2014-08-01T11:38:21.000Z</time>
      </trkpt>
      <trkpt lat="48.74472" lon="1.79618">
        <ele>194</ele>
        <time>2014-08-01T11:38:24.000Z</time>
      </trkpt>
      <trkpt lat="48.74462" lon="1.79611">
        <ele>194</ele>
        <time>2014-08-01T11:38:31.000Z</time>
      </trkpt>
      <trkpt lat="48.74458" lon="1.79614">
        <ele>194</ele>
        <time>2014-08-01T11:38:35.000Z</time>
      </trkpt>
      <trkpt lat="48.7445" lon="1.79609">
        <ele>194</ele>
        <time>2014-08-01T11:38:42.000Z</time>
      </trkpt>
      <trkpt lat="48.74449" lon="1.79603">
        <ele>194</ele>
        <time>2014-08-01T11:38:48.000Z</time>
      </trkpt>
      <trkpt lat="48.74447" lon="1.79595">
        <ele>194</ele>
        <time>2014-08-01T11:39:01.000Z</time>
      </trkpt>
      <trkpt lat="48.74444" lon="1.79589">
        <ele>194</ele>
        <time>2014-08-01T11:39:07.000Z</time>
      </trkpt>
      <trkpt lat="48.7444" lon="1.79585">
        <ele>194</ele>
        <time>2014-08-01T11:39:10.000Z</time>
      </trkpt>
      <trkpt lat="48.74429" lon="1.79582">
        <ele>194</ele>
        <time>2014-08-01T11:39:17.000Z</time>
      </trkpt>
      <trkpt lat="48.74419" lon="1.79578">
        <ele>194</ele>
        <time>2014-08-01T11:39:23.000Z</time>
      </trkpt>
      <trkpt lat="48.74413" lon="1.79574">
        <ele>194</ele>
        <time>2014-08-01T11:39:28.000Z</time>
      </trkpt>
      <trkpt lat="48.74407" lon="1.79563">
        <ele>194.19999694824</ele>
        <time>2014-08-01T11:39:34.000Z</time>
      </trkpt>
      <trkpt lat="48.74399" lon="1.79556">
        <ele>194.19999694824</ele>
        <time>2014-08-01T11:39:40.000Z</time>
      </trkpt>
      <trkpt lat="48.74393" lon="1.79553">
        <ele>194.19999694824</ele>
        <time>2014-08-01T11:39:44.000Z</time>
      </trkpt>
      <trkpt lat="48.7439" lon="1.79545">
        <ele>194.39999389648</ele>
        <time>2014-08-01T11:39:50.000Z</time>
      </trkpt>
      <trkpt lat="48.7439" lon="1.79545">
        <ele>194.39999389648</ele>
        <time>2014-08-01T11:39:53.000Z</time>
      </trkpt>
      <trkpt lat="48.74389" lon="1.79545">
        <ele>194.39999389648</ele>
        <time>2014-08-01T11:39:56.000Z</time>
      </trkpt>
      <trkpt lat="48.74384" lon="1.79541">
        <ele>194.39999389648</ele>
        <time>2014-08-01T11:39:58.000Z</time>
      </trkpt>
      <trkpt lat="48.74377" lon="1.79537">
        <ele>194.39999389648</ele>
        <time>2014-08-01T11:40:03.000Z</time>
      </trkpt>
      <trkpt lat="48.74368" lon="1.79524">
        <ele>194.60000610352</ele>
        <time>2014-08-01T11:40:12.000Z</time>
      </trkpt>
      <trkpt lat="48.7436" lon="1.79517">
        <ele>194.60000610352</ele>
        <time>2014-08-01T11:40:17.000Z</time>
      </trkpt>
      <trkpt lat="48.74353" lon="1.79513">
        <ele>194.80000305176</ele>
        <time>2014-08-01T11:40:21.000Z</time>
      </trkpt>
      <trkpt lat="48.74349" lon="1.79508">
        <ele>194.80000305176</ele>
        <time>2014-08-01T11:40:24.000Z</time>
      </trkpt>
      <trkpt lat="48.74344" lon="1.79504">
        <ele>195</ele>
        <time>2014-08-01T11:40:28.000Z</time>
      </trkpt>
      <trkpt lat="48.74342" lon="1.79501">
        <ele>195.19999694824</ele>
        <time>2014-08-01T11:40:30.000Z</time>
      </trkpt>
      <trkpt lat="48.74333" lon="1.79494">
        <ele>195.39999389648</ele>
        <time>2014-08-01T11:40:38.000Z</time>
      </trkpt>
      <trkpt lat="48.74326" lon="1.79487">
        <ele>195.60000610352</ele>
        <time>2014-08-01T11:40:44.000Z</time>
      </trkpt>
      <trkpt lat="48.74321" lon="1.79486">
        <ele>195.80000305176</ele>
        <time>2014-08-01T11:40:48.000Z</time>
      </trkpt>
      <trkpt lat="48.74319" lon="1.79485">
        <ele>195.80000305176</ele>
        <time>2014-08-01T11:40:50.000Z</time>
      </trkpt>
      <trkpt lat="48.74316" lon="1.79484">
        <ele>196</ele>
        <time>2014-08-01T11:40:52.000Z</time>
      </trkpt>
      <trkpt lat="48.74307" lon="1.79474">
        <ele>196.19999694824</ele>
        <time>2014-08-01T11:40:58.000Z</time>
      </trkpt>
      <trkpt lat="48.74305" lon="1.79472">
        <ele>196.39999389648</ele>
        <time>2014-08-01T11:41:00.000Z</time>
      </trkpt>
      <trkpt lat="48.743" lon="1.79468">
        <ele>196.60000610352</ele>
        <time>2014-08-01T11:41:03.000Z</time>
      </trkpt>
      <trkpt lat="48.74297" lon="1.79465">
        <ele>196.60000610352</ele>
        <time>2014-08-01T11:41:07.000Z</time>
      </trkpt>
      <trkpt lat="48.74294" lon="1.79461">
        <ele>196.80000305176</ele>
        <time>2014-08-01T11:41:11.000Z</time>
      </trkpt>
      <trkpt lat="48.74285" lon="1.7945">
        <ele>197.19999694824</ele>
        <time>2014-08-01T11:41:17.000Z</time>
      </trkpt>
      <trkpt lat="48.74283" lon="1.79449">
        <ele>197.19999694824</ele>
        <time>2014-08-01T11:41:18.000Z</time>
      </trkpt>
      <trkpt lat="48.74274" lon="1.79444">
        <ele>197.39999389648</ele>
        <time>2014-08-01T11:41:24.000Z</time>
      </trkpt>
      <trkpt lat="48.74269" lon="1.79439">
        <ele>197.60000610352</ele>
        <time>2014-08-01T11:41:27.000Z</time>
      </trkpt>
      <trkpt lat="48.74263" lon="1.79433">
        <ele>197.60000610352</ele>
        <time>2014-08-01T11:41:33.000Z</time>
      </trkpt>
      <trkpt lat="48.74258" lon="1.79428">
        <ele>197.60000610352</ele>
        <time>2014-08-01T11:41:36.000Z</time>
      </trkpt>
      <trkpt lat="48.74245" lon="1.79417">
        <ele>197.60000610352</ele>
        <time>2014-08-01T11:41:44.000Z</time>
      </trkpt>
      <trkpt lat="48.74234" lon="1.79406">
        <ele>197.60000610352</ele>
        <time>2014-08-01T11:41:51.000Z</time>
      </trkpt>
      <trkpt lat="48.74229" lon="1.79404">
        <ele>197.60000610352</ele>
        <time>2014-08-01T11:41:55.000Z</time>
      </trkpt>
      <trkpt lat="48.74228" lon="1.79403">
        <ele>197.39999389648</ele>
        <time>2014-08-01T11:41:57.000Z</time>
      </trkpt>
      <trkpt lat="48.74221" lon="1.79396">
        <ele>197.39999389648</ele>
        <time>2014-08-01T11:42:02.000Z</time>
      </trkpt>
      <trkpt lat="48.74218" lon="1.79393">
        <ele>197.39999389648</ele>
        <time>2014-08-01T11:42:04.000Z</time>
      </trkpt>
      <trkpt lat="48.74214" lon="1.79391">
        <ele>197.39999389648</ele>
        <time>2014-08-01T11:42:06.000Z</time>
      </trkpt>
      <trkpt lat="48.74204" lon="1.79385">
        <ele>197.19999694824</ele>
        <time>2014-08-01T11:42:12.000Z</time>
      </trkpt>
      <trkpt lat="48.74197" lon="1.79379">
        <ele>197.19999694824</ele>
        <time>2014-08-01T11:42:19.000Z</time>
      </trkpt>
      <trkpt lat="48.74186" lon="1.7937">
        <ele>197</ele>
        <time>2014-08-01T11:42:26.000Z</time>
      </trkpt>
      <trkpt lat="48.74175" lon="1.79358">
        <ele>196.39999389648</ele>
        <time>2014-08-01T11:42:35.000Z</time>
      </trkpt>
      <trkpt lat="48.74173" lon="1.79356">
        <ele>196.19999694824</ele>
        <time>2014-08-01T11:42:37.000Z</time>
      </trkpt>
      <trkpt lat="48.74161" lon="1.79341">
        <ele>195.80000305176</ele>
        <time>2014-08-01T11:42:45.000Z</time>
      </trkpt>
      <trkpt lat="48.74151" lon="1.79333">
        <ele>195.19999694824</ele>
        <time>2014-08-01T11:42:53.000Z</time>
      </trkpt>
      <trkpt lat="48.74148" lon="1.79329">
        <ele>195.19999694824</ele>
        <time>2014-08-01T11:42:56.000Z</time>
      </trkpt>
      <trkpt lat="48.74143" lon="1.79322">
        <ele>194.80000305176</ele>
        <time>2014-08-01T11:43:01.000Z</time>
      </trkpt>
      <trkpt lat="48.74136" lon="1.79316">
        <ele>194.19999694824</ele>
        <time>2014-08-01T11:43:05.000Z</time>
      </trkpt>
      <trkpt lat="48.74128" lon="1.79308">
        <ele>193.39999389648</ele>
        <time>2014-08-01T11:43:11.000Z</time>
      </trkpt>
      <trkpt lat="48.7412" lon="1.79306">
        <ele>193</ele>
        <time>2014-08-01T11:43:14.000Z</time>
      </trkpt>
      <trkpt lat="48.74106" lon="1.79302">
        <ele>192.19999694824</ele>
        <time>2014-08-01T11:43:21.000Z</time>
      </trkpt>
      <trkpt lat="48.74104" lon="1.79298">
        <ele>191.80000305176</ele>
        <time>2014-08-01T11:43:26.000Z</time>
      </trkpt>
      <trkpt lat="48.74105" lon="1.79296">
        <ele>191.80000305176</ele>
        <time>2014-08-01T11:43:31.000Z</time>
      </trkpt>
      <trkpt lat="48.74107" lon="1.79294">
        <ele>191.80000305176</ele>
        <time>2014-08-01T11:43:36.000Z</time>
      </trkpt>
      <trkpt lat="48.74101" lon="1.79284">
        <ele>191.19999694824</ele>
        <time>2014-08-01T11:44:05.000Z</time>
      </trkpt>
      <trkpt lat="48.74099" lon="1.79282">
        <ele>191</ele>
        <time>2014-08-01T11:44:06.000Z</time>
      </trkpt>
      <trkpt lat="48.74092" lon="1.79276">
        <ele>190.60000610352</ele>
        <time>2014-08-01T11:44:12.000Z</time>
      </trkpt>
      <trkpt lat="48.74089" lon="1.79274">
        <ele>190.39999389648</ele>
        <time>2014-08-01T11:44:14.000Z</time>
      </trkpt>
      <trkpt lat="48.74082" lon="1.79266">
        <ele>189.80000305176</ele>
        <time>2014-08-01T11:44:20.000Z</time>
      </trkpt>
      <trkpt lat="48.74072" lon="1.79259">
        <ele>189.19999694824</ele>
        <time>2014-08-01T11:44:27.000Z</time>
      </trkpt>
      <trkpt lat="48.74062" lon="1.79249">
        <ele>188.60000610352</ele>
        <time>2014-08-01T11:44:34.000Z</time>
      </trkpt>
      <trkpt lat="48.74059" lon="1.79245">
        <ele>188.19999694824</ele>
        <time>2014-08-01T11:44:37.000Z</time>
      </trkpt>
      <trkpt lat="48.74051" lon="1.79239">
        <ele>187.80000305176</ele>
        <time>2014-08-01T11:44:43.000Z</time>
      </trkpt>
      <trkpt lat="48.74044" lon="1.79233">
        <ele>187.60000610352</ele>
        <time>2014-08-01T11:44:49.000Z</time>
      </trkpt>
      <trkpt lat="48.74038" lon="1.79229">
        <ele>187.39999389648</ele>
        <time>2014-08-01T11:44:54.000Z</time>
      </trkpt>
      <trkpt lat="48.74027" lon="1.79219">
        <ele>187.19999694824</ele>
        <time>2014-08-01T11:45:03.000Z</time>
      </trkpt>
      <trkpt lat="48.7402" lon="1.79213">
        <ele>187</ele>
        <time>2014-08-01T11:45:09.000Z</time>
      </trkpt>
      <trkpt lat="48.7401" lon="1.79203">
        <ele>187.19999694824</ele>
        <time>2014-08-01T11:45:18.000Z</time>
      </trkpt>
      <trkpt lat="48.74003" lon="1.79196">
        <ele>187.39999389648</ele>
        <time>2014-08-01T11:45:24.000Z</time>
      </trkpt>
      <trkpt lat="48.73991" lon="1.79185">
        <ele>187.80000305176</ele>
        <time>2014-08-01T11:45:34.000Z</time>
      </trkpt>
      <trkpt lat="48.73988" lon="1.79182">
        <ele>187.80000305176</ele>
        <time>2014-08-01T11:45:39.000Z</time>
      </trkpt>
      <trkpt lat="48.73982" lon="1.79177">
        <ele>188</ele>
        <time>2014-08-01T11:45:47.000Z</time>
      </trkpt>
      <trkpt lat="48.73971" lon="1.79167">
        <ele>188.19999694824</ele>
        <time>2014-08-01T11:45:54.000Z</time>
      </trkpt>
      <trkpt lat="48.73962" lon="1.7916">
        <ele>188.39999389648</ele>
        <time>2014-08-01T11:46:01.000Z</time>
      </trkpt>
      <trkpt lat="48.73954" lon="1.7915">
        <ele>188.60000610352</ele>
        <time>2014-08-01T11:46:08.000Z</time>
      </trkpt>
      <trkpt lat="48.73945" lon="1.79141">
        <ele>188.60000610352</ele>
        <time>2014-08-01T11:46:15.000Z</time>
      </trkpt>
      <trkpt lat="48.73941" lon="1.79139">
        <ele>188.80000305176</ele>
        <time>2014-08-01T11:46:18.000Z</time>
      </trkpt>
      <trkpt lat="48.73931" lon="1.7913">
        <ele>188.80000305176</ele>
        <time>2014-08-01T11:46:26.000Z</time>
      </trkpt>
      <trkpt lat="48.73924" lon="1.79126">
        <ele>189</ele>
        <time>2014-08-01T11:46:32.000Z</time>
      </trkpt>
      <trkpt lat="48.73919" lon="1.79123">
        <ele>189</ele>
        <time>2014-08-01T11:46:36.000Z</time>
      </trkpt>
      <trkpt lat="48.73916" lon="1.79119">
        <ele>189</ele>
        <time>2014-08-01T11:46:40.000Z</time>
      </trkpt>
      <trkpt lat="48.73909" lon="1.79113">
        <ele>189.19999694824</ele>
        <time>2014-08-01T11:46:46.000Z</time>
      </trkpt>
      <trkpt lat="48.73903" lon="1.79105">
        <ele>189.19999694824</ele>
        <time>2014-08-01T11:46:51.000Z</time>
      </trkpt>
      <trkpt lat="48.73902" lon="1.79104">
        <ele>189.19999694824</ele>
        <time>2014-08-01T11:46:52.000Z</time>
      </trkpt>
      <trkpt lat="48.73897" lon="1.79098">
        <ele>189.19999694824</ele>
        <time>2014-08-01T11:46:57.000Z</time>
      </trkpt>
      <trkpt lat="48.73886" lon="1.79091">
        <ele>189.39999389648</ele>
        <time>2014-08-01T11:47:03.000Z</time>
      </trkpt>
      <trkpt lat="48.73873" lon="1.79078">
        <ele>189.60000610352</ele>
        <time>2014-08-01T11:47:12.000Z</time>
      </trkpt>
      <trkpt lat="48.73865" lon="1.79072">
        <ele>189.80000305176</ele>
        <time>2014-08-01T11:47:18.000Z</time>
      </trkpt>
      <trkpt lat="48.73857" lon="1.79062">
        <ele>190.19999694824</ele>
        <time>2014-08-01T11:47:25.000Z</time>
      </trkpt>
      <trkpt lat="48.73856" lon="1.79059">
        <ele>190.19999694824</ele>
        <time>2014-08-01T11:47:29.000Z</time>
      </trkpt>
      <trkpt lat="48.73844" lon="1.79049">
        <ele>190.19999694824</ele>
        <time>2014-08-01T11:47:59.000Z</time>
      </trkpt>
      <trkpt lat="48.73843" lon="1.79043">
        <ele>190.39999389648</ele>
        <time>2014-08-01T11:48:01.000Z</time>
      </trkpt>
      <trkpt lat="48.7384" lon="1.7904">
        <ele>190.39999389648</ele>
        <time>2014-08-01T11:48:08.000Z</time>
      </trkpt>
      <trkpt lat="48.7384" lon="1.7904">
        <ele>190.39999389648</ele>
        <time>2014-08-01T11:48:09.000Z</time>
      </trkpt>
      <trkpt lat="48.7383" lon="1.79036">
        <ele>190.19999694824</ele>
        <time>2014-08-01T11:48:25.000Z</time>
      </trkpt>
      <trkpt lat="48.73821" lon="1.79031">
        <ele>190.19999694824</ele>
        <time>2014-08-01T11:48:31.000Z</time>
      </trkpt>
      <trkpt lat="48.73817" lon="1.79027">
        <ele>190.19999694824</ele>
        <time>2014-08-01T11:48:35.000Z</time>
      </trkpt>
      <trkpt lat="48.73816" lon="1.79027">
        <ele>190.19999694824</ele>
        <time>2014-08-01T11:48:36.000Z</time>
      </trkpt>
      <trkpt lat="48.73806" lon="1.79018">
        <ele>190.19999694824</ele>
        <time>2014-08-01T11:48:45.000Z</time>
      </trkpt>
      <trkpt lat="48.738" lon="1.79009">
        <ele>190.19999694824</ele>
        <time>2014-08-01T11:48:52.000Z</time>
      </trkpt>
      <trkpt lat="48.73789" lon="1.78997">
        <ele>190.19999694824</ele>
        <time>2014-08-01T11:49:00.000Z</time>
      </trkpt>
      <trkpt lat="48.73778" lon="1.78988">
        <ele>190.19999694824</ele>
        <time>2014-08-01T11:49:07.000Z</time>
      </trkpt>
      <trkpt lat="48.7377" lon="1.78978">
        <ele>190.19999694824</ele>
        <time>2014-08-01T11:49:14.000Z</time>
      </trkpt>
      <trkpt lat="48.73763" lon="1.78974">
        <ele>189.80000305176</ele>
        <time>2014-08-01T11:49:19.000Z</time>
      </trkpt>
      <trkpt lat="48.73754" lon="1.78966">
        <ele>189.39999389648</ele>
        <time>2014-08-01T11:49:25.000Z</time>
      </trkpt>
      <trkpt lat="48.73746" lon="1.78958">
        <ele>189</ele>
        <time>2014-08-01T11:49:31.000Z</time>
      </trkpt>
      <trkpt lat="48.73739" lon="1.78951">
        <ele>188.60000610352</ele>
        <time>2014-08-01T11:49:36.000Z</time>
      </trkpt>
      <trkpt lat="48.73729" lon="1.78941">
        <ele>188.19999694824</ele>
        <time>2014-08-01T11:49:43.000Z</time>
      </trkpt>
      <trkpt lat="48.73717" lon="1.7893">
        <ele>187.60000610352</ele>
        <time>2014-08-01T11:49:52.000Z</time>
      </trkpt>
      <trkpt lat="48.73715" lon="1.78927">
        <ele>187.39999389648</ele>
        <time>2014-08-01T11:49:54.000Z</time>
      </trkpt>
      <trkpt lat="48.73704" lon="1.78918">
        <ele>186.80000305176</ele>
        <time>2014-08-01T11:50:02.000Z</time>
      </trkpt>
      <trkpt lat="48.73694" lon="1.78908">
        <ele>186.39999389648</ele>
        <time>2014-08-01T11:50:10.000Z</time>
      </trkpt>
      <trkpt lat="48.73684" lon="1.789">
        <ele>185.80000305176</ele>
        <time>2014-08-01T11:50:17.000Z</time>
      </trkpt>
      <trkpt lat="48.73676" lon="1.78889">
        <ele>185.19999694824</ele>
        <time>2014-08-01T11:50:24.000Z</time>
      </trkpt>
      <trkpt lat="48.7367" lon="1.78887">
        <ele>184.80000305176</ele>
        <time>2014-08-01T11:50:29.000Z</time>
      </trkpt>
      <trkpt lat="48.73661" lon="1.78878">
        <ele>184</ele>
        <time>2014-08-01T11:50:37.000Z</time>
      </trkpt>
      <trkpt lat="48.73654" lon="1.7887">
        <ele>183.60000610352</ele>
        <time>2014-08-01T11:50:43.000Z</time>
      </trkpt>
      <trkpt lat="48.73649" lon="1.78864">
        <ele>183.19999694824</ele>
        <time>2014-08-01T11:50:47.000Z</time>
      </trkpt>
      <trkpt lat="48.73641" lon="1.78856">
        <ele>182.60000610352</ele>
        <time>2014-08-01T11:50:53.000Z</time>
      </trkpt>
      <trkpt lat="48.73635" lon="1.78853">
        <ele>182.19999694824</ele>
        <time>2014-08-01T11:50:57.000Z</time>
      </trkpt>
      <trkpt lat="48.73629" lon="1.78847">
        <ele>181.80000305176</ele>
        <time>2014-08-01T11:51:02.000Z</time>
      </trkpt>
      <trkpt lat="48.73617" lon="1.78838">
        <ele>181</ele>
        <time>2014-08-01T11:51:11.000Z</time>
      </trkpt>
      <trkpt lat="48.73617" lon="1.78838">
        <ele>181</ele>
        <time>2014-08-01T11:51:13.000Z</time>
      </trkpt>
      <trkpt lat="48.73612" lon="1.78833">
        <ele>180.60000610352</ele>
        <time>2014-08-01T11:51:20.000Z</time>
      </trkpt>
      <trkpt lat="48.73609" lon="1.7883">
        <ele>180.60000610352</ele>
        <time>2014-08-01T11:51:22.000Z</time>
      </trkpt>
      <trkpt lat="48.73601" lon="1.78824">
        <ele>180</ele>
        <time>2014-08-01T11:51:28.000Z</time>
      </trkpt>
      <trkpt lat="48.73593" lon="1.78813">
        <ele>179.19999694824</ele>
        <time>2014-08-01T11:51:35.000Z</time>
      </trkpt>
      <trkpt lat="48.73586" lon="1.78805">
        <ele>178.60000610352</ele>
        <time>2014-08-01T11:51:41.000Z</time>
      </trkpt>
      <trkpt lat="48.73577" lon="1.78799">
        <ele>178</ele>
        <time>2014-08-01T11:51:49.000Z</time>
      </trkpt>
      <trkpt lat="48.73576" lon="1.78799">
        <ele>177.80000305176</ele>
        <time>2014-08-01T11:51:53.000Z</time>
      </trkpt>
      <trkpt lat="48.73573" lon="1.78795">
        <ele>177.60000610352</ele>
        <time>2014-08-01T11:51:57.000Z</time>
      </trkpt>
      <trkpt lat="48.73571" lon="1.78794">
        <ele>177.60000610352</ele>
        <time>2014-08-01T11:51:58.000Z</time>
      </trkpt>
      <trkpt lat="48.73564" lon="1.78787">
        <ele>176.80000305176</ele>
        <time>2014-08-01T11:52:03.000Z</time>
      </trkpt>
      <trkpt lat="48.73549" lon="1.78775">
        <ele>175.80000305176</ele>
        <time>2014-08-01T11:52:13.000Z</time>
      </trkpt>
      <trkpt lat="48.73537" lon="1.78764">
        <ele>174.80000305176</ele>
        <time>2014-08-01T11:52:21.000Z</time>
      </trkpt>
      <trkpt lat="48.7353" lon="1.78755">
        <ele>174.19999694824</ele>
        <time>2014-08-01T11:52:28.000Z</time>
      </trkpt>
      <trkpt lat="48.73525" lon="1.7875">
        <ele>173.80000305176</ele>
        <time>2014-08-01T11:52:32.000Z</time>
      </trkpt>
      <trkpt lat="48.73517" lon="1.78746">
        <ele>173.19999694824</ele>
        <time>2014-08-01T11:52:37.000Z</time>
      </trkpt>
      <trkpt lat="48.73513" lon="1.78741">
        <ele>173</ele>
        <time>2014-08-01T11:52:41.000Z</time>
      </trkpt>
      <trkpt lat="48.7351" lon="1.7874">
        <ele>172.80000305176</ele>
        <time>2014-08-01T11:52:47.000Z</time>
      </trkpt>
      <trkpt lat="48.73503" lon="1.78732">
        <ele>172.19999694824</ele>
        <time>2014-08-01T11:53:01.000Z</time>
      </trkpt>
      <trkpt lat="48.73503" lon="1.78731">
        <ele>172.19999694824</ele>
        <time>2014-08-01T11:53:02.000Z</time>
      </trkpt>
      <trkpt lat="48.73495" lon="1.78724">
        <ele>171.60000610352</ele>
        <time>2014-08-01T11:53:07.000Z</time>
      </trkpt>
      <trkpt lat="48.73487" lon="1.78716">
        <ele>171.19999694824</ele>
        <time>2014-08-01T11:53:13.000Z</time>
      </trkpt>
      <trkpt lat="48.73477" lon="1.78709">
        <ele>170.60000610352</ele>
        <time>2014-08-01T11:53:20.000Z</time>
      </trkpt>
      <trkpt lat="48.73469" lon="1.78699">
        <ele>169.80000305176</ele>
        <time>2014-08-01T11:53:27.000Z</time>
      </trkpt>
      <trkpt lat="48.73457" lon="1.78691">
        <ele>169.19999694824</ele>
        <time>2014-08-01T11:53:35.000Z</time>
      </trkpt>
      <trkpt lat="48.73452" lon="1.78689">
        <ele>169</ele>
        <time>2014-08-01T11:53:38.000Z</time>
      </trkpt>
      <trkpt lat="48.73442" lon="1.7868">
        <ele>168.39999389648</ele>
        <time>2014-08-01T11:53:46.000Z</time>
      </trkpt>
      <trkpt lat="48.73438" lon="1.78674">
        <ele>168</ele>
        <time>2014-08-01T11:53:50.000Z</time>
      </trkpt>
      <trkpt lat="48.7343" lon="1.78668">
        <ele>168</ele>
        <time>2014-08-01T11:53:55.000Z</time>
      </trkpt>
      <trkpt lat="48.73425" lon="1.78662">
        <ele>168</ele>
        <time>2014-08-01T11:54:02.000Z</time>
      </trkpt>
      <trkpt lat="48.73419" lon="1.78658">
        <ele>168</ele>
        <time>2014-08-01T11:54:11.000Z</time>
      </trkpt>
      <trkpt lat="48.73408" lon="1.78648">
        <ele>168.60000610352</ele>
        <time>2014-08-01T11:54:18.000Z</time>
      </trkpt>
      <trkpt lat="48.73397" lon="1.78635">
        <ele>169.60000610352</ele>
        <time>2014-08-01T11:54:27.000Z</time>
      </trkpt>
      <trkpt lat="48.73389" lon="1.78628">
        <ele>170.19999694824</ele>
        <time>2014-08-01T11:54:33.000Z</time>
      </trkpt>
      <trkpt lat="48.73386" lon="1.78624">
        <ele>170.60000610352</ele>
        <time>2014-08-01T11:54:36.000Z</time>
      </trkpt>
      <trkpt lat="48.7338" lon="1.78618">
        <ele>171</ele>
        <time>2014-08-01T11:54:41.000Z</time>
      </trkpt>
      <trkpt lat="48.73372" lon="1.7861">
        <ele>171.80000305176</ele>
        <time>2014-08-01T11:54:48.000Z</time>
      </trkpt>
      <trkpt lat="48.73364" lon="1.78605">
        <ele>172.19999694824</ele>
        <time>2014-08-01T11:54:53.000Z</time>
      </trkpt>
      <trkpt lat="48.73359" lon="1.78598">
        <ele>172.80000305176</ele>
        <time>2014-08-01T11:54:59.000Z</time>
      </trkpt>
      <trkpt lat="48.73351" lon="1.78592">
        <ele>173.60000610352</ele>
        <time>2014-08-01T11:55:05.000Z</time>
      </trkpt>
      <trkpt lat="48.73343" lon="1.78585">
        <ele>174.39999389648</ele>
        <time>2014-08-01T11:55:12.000Z</time>
      </trkpt>
      <trkpt lat="48.73336" lon="1.78578">
        <ele>175.19999694824</ele>
        <time>2014-08-01T11:55:18.000Z</time>
      </trkpt>
      <trkpt lat="48.73331" lon="1.78575">
        <ele>175.80000305176</ele>
        <time>2014-08-01T11:55:23.000Z</time>
      </trkpt>
      <trkpt lat="48.73325" lon="1.78575">
        <ele>176.39999389648</ele>
        <time>2014-08-01T11:55:34.000Z</time>
      </trkpt>
      <trkpt lat="48.73319" lon="1.78575">
        <ele>176.80000305176</ele>
        <time>2014-08-01T11:55:42.000Z</time>
      </trkpt>
      <trkpt lat="48.73317" lon="1.7857">
        <ele>177.19999694824</ele>
        <time>2014-08-01T11:55:48.000Z</time>
      </trkpt>
      <trkpt lat="48.73309" lon="1.78566">
        <ele>177.80000305176</ele>
        <time>2014-08-01T11:55:55.000Z</time>
      </trkpt>
      <trkpt lat="48.73308" lon="1.78565">
        <ele>177.80000305176</ele>
        <time>2014-08-01T11:55:57.000Z</time>
      </trkpt>
      <trkpt lat="48.73306" lon="1.78553">
        <ele>178</ele>
        <time>2014-08-01T11:56:03.000Z</time>
      </trkpt>
      <trkpt lat="48.73305" lon="1.78552">
        <ele>178</ele>
        <time>2014-08-01T11:56:04.000Z</time>
      </trkpt>
      <trkpt lat="48.73302" lon="1.78545">
        <ele>178.39999389648</ele>
        <time>2014-08-01T11:56:08.000Z</time>
      </trkpt>
      <trkpt lat="48.73291" lon="1.78534">
        <ele>179.19999694824</ele>
        <time>2014-08-01T11:56:17.000Z</time>
      </trkpt>
      <trkpt lat="48.73286" lon="1.7853">
        <ele>179.60000610352</ele>
        <time>2014-08-01T11:56:22.000Z</time>
      </trkpt>
      <trkpt lat="48.73278" lon="1.78527">
        <ele>180.39999389648</ele>
        <time>2014-08-01T11:56:28.000Z</time>
      </trkpt>
      <trkpt lat="48.73274" lon="1.78528">
        <ele>180.60000610352</ele>
        <time>2014-08-01T11:56:30.000Z</time>
      </trkpt>
      <trkpt lat="48.73266" lon="1.78522">
        <ele>181</ele>
        <time>2014-08-01T11:56:39.000Z</time>
      </trkpt>
      <trkpt lat="48.73263" lon="1.78518">
        <ele>181</ele>
        <time>2014-08-01T11:56:42.000Z</time>
      </trkpt>
      <trkpt lat="48.73262" lon="1.78515">
        <ele>181.19999694824</ele>
        <time>2014-08-01T11:56:45.000Z</time>
      </trkpt>
      <trkpt lat="48.73255" lon="1.7851">
        <ele>181.19999694824</ele>
        <time>2014-08-01T11:56:49.000Z</time>
      </trkpt>
      <trkpt lat="48.73242" lon="1.78501">
        <ele>181.39999389648</ele>
        <time>2014-08-01T11:56:58.000Z</time>
      </trkpt>
      <trkpt lat="48.7323" lon="1.78492">
        <ele>181.39999389648</ele>
        <time>2014-08-01T11:57:05.000Z</time>
      </trkpt>
      <trkpt lat="48.73223" lon="1.78483">
        <ele>181.60000610352</ele>
        <time>2014-08-01T11:57:12.000Z</time>
      </trkpt>
      <trkpt lat="48.73217" lon="1.78475">
        <ele>181.80000305176</ele>
        <time>2014-08-01T11:57:19.000Z</time>
      </trkpt>
      <trkpt lat="48.73214" lon="1.78474">
        <ele>181.80000305176</ele>
        <time>2014-08-01T11:57:21.000Z</time>
      </trkpt>
      <trkpt lat="48.73206" lon="1.78462">
        <ele>182</ele>
        <time>2014-08-01T11:57:30.000Z</time>
      </trkpt>
      <trkpt lat="48.73203" lon="1.78453">
        <ele>182.19999694824</ele>
        <time>2014-08-01T11:57:38.000Z</time>
      </trkpt>
      <trkpt lat="48.73192" lon="1.78445">
        <ele>182.39999389648</ele>
        <time>2014-08-01T11:57:48.000Z</time>
      </trkpt>
      <trkpt lat="48.73187" lon="1.78443">
        <ele>182.60000610352</ele>
        <time>2014-08-01T11:57:50.000Z</time>
      </trkpt>
      <trkpt lat="48.73176" lon="1.78437">
        <ele>182.80000305176</ele>
        <time>2014-08-01T11:57:56.000Z</time>
      </trkpt>
      <trkpt lat="48.73168" lon="1.78432">
        <ele>183</ele>
        <time>2014-08-01T11:58:02.000Z</time>
      </trkpt>
      <trkpt lat="48.73163" lon="1.78427">
        <ele>183</ele>
        <time>2014-08-01T11:58:06.000Z</time>
      </trkpt>
      <trkpt lat="48.73154" lon="1.78421">
        <ele>183.19999694824</ele>
        <time>2014-08-01T11:58:12.000Z</time>
      </trkpt>
      <trkpt lat="48.73141" lon="1.78416">
        <ele>183.39999389648</ele>
        <time>2014-08-01T11:58:19.000Z</time>
      </trkpt>
      <trkpt lat="48.73131" lon="1.78405">
        <ele>183.60000610352</ele>
        <time>2014-08-01T11:58:27.000Z</time>
      </trkpt>
      <trkpt lat="48.73123" lon="1.78395">
        <ele>183.60000610352</ele>
        <time>2014-08-01T11:58:36.000Z</time>
      </trkpt>
      <trkpt lat="48.73121" lon="1.78393">
        <ele>183.60000610352</ele>
        <time>2014-08-01T11:58:38.000Z</time>
      </trkpt>
      <trkpt lat="48.73115" lon="1.78386">
        <ele>183.60000610352</ele>
        <time>2014-08-01T11:58:44.000Z</time>
      </trkpt>
      <trkpt lat="48.731" lon="1.78375">
        <ele>183.60000610352</ele>
        <time>2014-08-01T11:58:54.000Z</time>
      </trkpt>
      <trkpt lat="48.73093" lon="1.78369">
        <ele>183.19999694824</ele>
        <time>2014-08-01T11:59:00.000Z</time>
      </trkpt>
      <trkpt lat="48.73085" lon="1.78359">
        <ele>182.80000305176</ele>
        <time>2014-08-01T11:59:07.000Z</time>
      </trkpt>
      <trkpt lat="48.73079" lon="1.78352">
        <ele>182.39999389648</ele>
        <time>2014-08-01T11:59:13.000Z</time>
      </trkpt>
      <trkpt lat="48.73074" lon="1.78347">
        <ele>182.19999694824</ele>
        <time>2014-08-01T11:59:17.000Z</time>
      </trkpt>
      <trkpt lat="48.73065" lon="1.78338">
        <ele>181.80000305176</ele>
        <time>2014-08-01T11:59:25.000Z</time>
      </trkpt>
      <trkpt lat="48.73057" lon="1.78331">
        <ele>181.39999389648</ele>
        <time>2014-08-01T11:59:31.000Z</time>
      </trkpt>
      <trkpt lat="48.73041" lon="1.78318">
        <ele>180.80000305176</ele>
        <time>2014-08-01T11:59:43.000Z</time>
      </trkpt>
      <trkpt lat="48.73029" lon="1.78306">
        <ele>180.19999694824</ele>
        <time>2014-08-01T11:59:53.000Z</time>
      </trkpt>
      <trkpt lat="48.73017" lon="1.78296">
        <ele>180</ele>
        <time>2014-08-01T12:00:02.000Z</time>
      </trkpt>
      <trkpt lat="48.73007" lon="1.78288">
        <ele>180</ele>
        <time>2014-08-01T12:00:10.000Z</time>
      </trkpt>
      <trkpt lat="48.72996" lon="1.78281">
        <ele>180</ele>
        <time>2014-08-01T12:00:17.000Z</time>
      </trkpt>
      <trkpt lat="48.7299" lon="1.78276">
        <ele>180</ele>
        <time>2014-08-01T12:00:22.000Z</time>
      </trkpt>
      <trkpt lat="48.72982" lon="1.78268">
        <ele>180</ele>
        <time>2014-08-01T12:00:29.000Z</time>
      </trkpt>
      <trkpt lat="48.72977" lon="1.78264">
        <ele>180</ele>
        <time>2014-08-01T12:00:33.000Z</time>
      </trkpt>
      <trkpt lat="48.72969" lon="1.78259">
        <ele>180</ele>
        <time>2014-08-01T12:00:39.000Z</time>
      </trkpt>
      <trkpt lat="48.72961" lon="1.78251">
        <ele>180</ele>
        <time>2014-08-01T12:00:46.000Z</time>
      </trkpt>
      <trkpt lat="48.72953" lon="1.78244">
        <ele>180</ele>
        <time>2014-08-01T12:00:52.000Z</time>
      </trkpt>
      <trkpt lat="48.72952" lon="1.78243">
        <ele>180</ele>
        <time>2014-08-01T12:00:53.000Z</time>
      </trkpt>
      <trkpt lat="48.72942" lon="1.78236">
        <ele>180</ele>
        <time>2014-08-01T12:01:00.000Z</time>
      </trkpt>
      <trkpt lat="48.72937" lon="1.78234">
        <ele>180</ele>
        <time>2014-08-01T12:01:04.000Z</time>
      </trkpt>
      <trkpt lat="48.72929" lon="1.78227">
        <ele>180</ele>
        <time>2014-08-01T12:01:10.000Z</time>
      </trkpt>
      <trkpt lat="48.72927" lon="1.78225">
        <ele>180</ele>
        <time>2014-08-01T12:01:11.000Z</time>
      </trkpt>
      <trkpt lat="48.72918" lon="1.78215">
        <ele>180</ele>
        <time>2014-08-01T12:01:19.000Z</time>
      </trkpt>
      <trkpt lat="48.72912" lon="1.78209">
        <ele>180</ele>
        <time>2014-08-01T12:01:26.000Z</time>
      </trkpt>
      <trkpt lat="48.72904" lon="1.78202">
        <ele>180</ele>
        <time>2014-08-01T12:01:32.000Z</time>
      </trkpt>
      <trkpt lat="48.72898" lon="1.78197">
        <ele>180</ele>
        <time>2014-08-01T12:01:36.000Z</time>
      </trkpt>
      <trkpt lat="48.72888" lon="1.78188">
        <ele>180</ele>
        <time>2014-08-01T12:01:44.000Z</time>
      </trkpt>
      <trkpt lat="48.72878" lon="1.78177">
        <ele>180</ele>
        <time>2014-08-01T12:01:53.000Z</time>
      </trkpt>
      <trkpt lat="48.72867" lon="1.78167">
        <ele>180</ele>
        <time>2014-08-01T12:02:02.000Z</time>
      </trkpt>
      <trkpt lat="48.72858" lon="1.7816">
        <ele>180</ele>
        <time>2014-08-01T12:02:09.000Z</time>
      </trkpt>
      <trkpt lat="48.72848" lon="1.7815">
        <ele>180</ele>
        <time>2014-08-01T12:02:17.000Z</time>
      </trkpt>
      <trkpt lat="48.72837" lon="1.78142">
        <ele>180</ele>
        <time>2014-08-01T12:02:23.000Z</time>
      </trkpt>
      <trkpt lat="48.72828" lon="1.78134">
        <ele>180</ele>
        <time>2014-08-01T12:02:30.000Z</time>
      </trkpt>
      <trkpt lat="48.72822" lon="1.78128">
        <ele>180</ele>
        <time>2014-08-01T12:02:35.000Z</time>
      </trkpt>
      <trkpt lat="48.72809" lon="1.78118">
        <ele>179.80000305176</ele>
        <time>2014-08-01T12:02:44.000Z</time>
      </trkpt>
      <trkpt lat="48.72795" lon="1.78109">
        <ele>179.80000305176</ele>
        <time>2014-08-01T12:02:52.000Z</time>
      </trkpt>
      <trkpt lat="48.72787" lon="1.78099">
        <ele>179.80000305176</ele>
        <time>2014-08-01T12:03:00.000Z</time>
      </trkpt>
      <trkpt lat="48.72776" lon="1.78089">
        <ele>179.80000305176</ele>
        <time>2014-08-01T12:03:08.000Z</time>
      </trkpt>
      <trkpt lat="48.72763" lon="1.7808">
        <ele>179.80000305176</ele>
        <time>2014-08-01T12:03:16.000Z</time>
      </trkpt>
      <trkpt lat="48.72752" lon="1.7807">
        <ele>180</ele>
        <time>2014-08-01T12:03:24.000Z</time>
      </trkpt>
      <trkpt lat="48.72742" lon="1.78061">
        <ele>180.19999694824</ele>
        <time>2014-08-01T12:03:32.000Z</time>
      </trkpt>
      <trkpt lat="48.72735" lon="1.78054">
        <ele>180.19999694824</ele>
        <time>2014-08-01T12:03:38.000Z</time>
      </trkpt>
      <trkpt lat="48.72727" lon="1.78045">
        <ele>180.39999389648</ele>
        <time>2014-08-01T12:03:45.000Z</time>
      </trkpt>
      <trkpt lat="48.72723" lon="1.78039">
        <ele>180.39999389648</ele>
        <time>2014-08-01T12:03:50.000Z</time>
      </trkpt>
      <trkpt lat="48.72724" lon="1.7804">
        <ele>180.39999389648</ele>
        <time>2014-08-01T12:03:53.000Z</time>
      </trkpt>
      <trkpt lat="48.72717" lon="1.78032">
        <ele>180.39999389648</ele>
        <time>2014-08-01T12:04:10.000Z</time>
      </trkpt>
      <trkpt lat="48.72708" lon="1.78024">
        <ele>180.60000610352</ele>
        <time>2014-08-01T12:04:15.000Z</time>
      </trkpt>
      <trkpt lat="48.72701" lon="1.78009">
        <ele>180.80000305176</ele>
        <time>2014-08-01T12:04:23.000Z</time>
      </trkpt>
      <trkpt lat="48.72696" lon="1.78002">
        <ele>180.80000305176</ele>
        <time>2014-08-01T12:04:27.000Z</time>
      </trkpt>
      <trkpt lat="48.72688" lon="1.77989">
        <ele>181</ele>
        <time>2014-08-01T12:04:34.000Z</time>
      </trkpt>
      <trkpt lat="48.72683" lon="1.77977">
        <ele>181.39999389648</ele>
        <time>2014-08-01T12:04:40.000Z</time>
      </trkpt>
      <trkpt lat="48.72681" lon="1.77974">
        <ele>181.39999389648</ele>
        <time>2014-08-01T12:04:42.000Z</time>
      </trkpt>
      <trkpt lat="48.72674" lon="1.77967">
        <ele>181.39999389648</ele>
        <time>2014-08-01T12:04:49.000Z</time>
      </trkpt>
      <trkpt lat="48.72667" lon="1.77961">
        <ele>181.39999389648</ele>
        <time>2014-08-01T12:04:55.000Z</time>
      </trkpt>
      <trkpt lat="48.72661" lon="1.77959">
        <ele>181.19999694824</ele>
        <time>2014-08-01T12:05:00.000Z</time>
      </trkpt>
      <trkpt lat="48.72658" lon="1.77959">
        <ele>181</ele>
        <time>2014-08-01T12:05:04.000Z</time>
      </trkpt>
      <trkpt lat="48.72647" lon="1.77957">
        <ele>180.39999389648</ele>
        <time>2014-08-01T12:05:12.000Z</time>
      </trkpt>
      <trkpt lat="48.72637" lon="1.77961">
        <ele>179.60000610352</ele>
        <time>2014-08-01T12:05:19.000Z</time>
      </trkpt>
      <trkpt lat="48.72635" lon="1.77964">
        <ele>179.39999389648</ele>
        <time>2014-08-01T12:05:21.000Z</time>
      </trkpt>
      <trkpt lat="48.7263" lon="1.77967">
        <ele>178.80000305176</ele>
        <time>2014-08-01T12:05:27.000Z</time>
      </trkpt>
      <trkpt lat="48.72621" lon="1.7797">
        <ele>178.19999694824</ele>
        <time>2014-08-01T12:05:32.000Z</time>
      </trkpt>
      <trkpt lat="48.7261" lon="1.7797">
        <ele>177.39999389648</ele>
        <time>2014-08-01T12:05:40.000Z</time>
      </trkpt>
      <trkpt lat="48.72603" lon="1.77976">
        <ele>176.60000610352</ele>
        <time>2014-08-01T12:05:45.000Z</time>
      </trkpt>
      <trkpt lat="48.72599" lon="1.77977">
        <ele>176.19999694824</ele>
        <time>2014-08-01T12:05:48.000Z</time>
      </trkpt>
      <trkpt lat="48.72591" lon="1.77986">
        <ele>176</ele>
        <time>2014-08-01T12:05:55.000Z</time>
      </trkpt>
      <trkpt lat="48.72588" lon="1.77988">
        <ele>176</ele>
        <time>2014-08-01T12:05:57.000Z</time>
      </trkpt>
      <trkpt lat="48.72576" lon="1.77993">
        <ele>175.80000305176</ele>
        <time>2014-08-01T12:06:03.000Z</time>
      </trkpt>
      <trkpt lat="48.72565" lon="1.78001">
        <ele>175.60000610352</ele>
        <time>2014-08-01T12:06:09.000Z</time>
      </trkpt>
      <trkpt lat="48.72564" lon="1.78003">
        <ele>175.60000610352</ele>
        <time>2014-08-01T12:06:10.000Z</time>
      </trkpt>
      <trkpt lat="48.72554" lon="1.77998">
        <ele>175.80000305176</ele>
        <time>2014-08-01T12:06:16.000Z</time>
      </trkpt>
      <trkpt lat="48.72546" lon="1.77995">
        <ele>175.80000305176</ele>
        <time>2014-08-01T12:06:21.000Z</time>
      </trkpt>
      <trkpt lat="48.72536" lon="1.77991">
        <ele>176</ele>
        <time>2014-08-01T12:06:28.000Z</time>
      </trkpt>
      <trkpt lat="48.72528" lon="1.77985">
        <ele>176</ele>
        <time>2014-08-01T12:06:33.000Z</time>
      </trkpt>
      <trkpt lat="48.72515" lon="1.7798">
        <ele>175.60000610352</ele>
        <time>2014-08-01T12:06:40.000Z</time>
      </trkpt>
      <trkpt lat="48.72509" lon="1.77971">
        <ele>175.39999389648</ele>
        <time>2014-08-01T12:06:46.000Z</time>
      </trkpt>
      <trkpt lat="48.72506" lon="1.77967">
        <ele>175.19999694824</ele>
        <time>2014-08-01T12:06:50.000Z</time>
      </trkpt>
      <trkpt lat="48.72504" lon="1.77965">
        <ele>175.19999694824</ele>
        <time>2014-08-01T12:06:52.000Z</time>
      </trkpt>
      <trkpt lat="48.72499" lon="1.77958">
        <ele>174.80000305176</ele>
        <time>2014-08-01T12:06:57.000Z</time>
      </trkpt>
      <trkpt lat="48.72497" lon="1.77955">
        <ele>174.80000305176</ele>
        <time>2014-08-01T12:06:59.000Z</time>
      </trkpt>
      <trkpt lat="48.72491" lon="1.77949">
        <ele>174.39999389648</ele>
        <time>2014-08-01T12:07:03.000Z</time>
      </trkpt>
      <trkpt lat="48.72486" lon="1.77943">
        <ele>174.19999694824</ele>
        <time>2014-08-01T12:07:08.000Z</time>
      </trkpt>
      <trkpt lat="48.7248" lon="1.77933">
        <ele>173.80000305176</ele>
        <time>2014-08-01T12:07:15.000Z</time>
      </trkpt>
      <trkpt lat="48.7248" lon="1.7793">
        <ele>173.80000305176</ele>
        <time>2014-08-01T12:07:16.000Z</time>
      </trkpt>
      <trkpt lat="48.72469" lon="1.77922">
        <ele>173.39999389648</ele>
        <time>2014-08-01T12:07:22.000Z</time>
      </trkpt>
      <trkpt lat="48.72466" lon="1.77921">
        <ele>173.19999694824</ele>
        <time>2014-08-01T12:07:24.000Z</time>
      </trkpt>
      <trkpt lat="48.72454" lon="1.77917">
        <ele>172.80000305176</ele>
        <time>2014-08-01T12:07:31.000Z</time>
      </trkpt>
      <trkpt lat="48.72451" lon="1.77914">
        <ele>172.60000610352</ele>
        <time>2014-08-01T12:07:33.000Z</time>
      </trkpt>
      <trkpt lat="48.72447" lon="1.77908">
        <ele>172.39999389648</ele>
        <time>2014-08-01T12:07:37.000Z</time>
      </trkpt>
      <trkpt lat="48.72441" lon="1.77905">
        <ele>172.19999694824</ele>
        <time>2014-08-01T12:07:41.000Z</time>
      </trkpt>
      <trkpt lat="48.72432" lon="1.779">
        <ele>171.60000610352</ele>
        <time>2014-08-01T12:07:47.000Z</time>
      </trkpt>
      <trkpt lat="48.7243" lon="1.77899">
        <ele>171.39999389648</ele>
        <time>2014-08-01T12:07:48.000Z</time>
      </trkpt>
      <trkpt lat="48.72414" lon="1.77899">
        <ele>170</ele>
        <time>2014-08-01T12:07:56.000Z</time>
      </trkpt>
      <trkpt lat="48.7241" lon="1.77899">
        <ele>169.60000610352</ele>
        <time>2014-08-01T12:07:58.000Z</time>
      </trkpt>
      <trkpt lat="48.724" lon="1.77899">
        <ele>168.60000610352</ele>
        <time>2014-08-01T12:08:03.000Z</time>
      </trkpt>
      <trkpt lat="48.72391" lon="1.77909">
        <ele>167.80000305176</ele>
        <time>2014-08-01T12:08:09.000Z</time>
      </trkpt>
      <trkpt lat="48.72379" lon="1.77913">
        <ele>166.60000610352</ele>
        <time>2014-08-01T12:08:16.000Z</time>
      </trkpt>
      <trkpt lat="48.72368" lon="1.77914">
        <ele>165.80000305176</ele>
        <time>2014-08-01T12:08:22.000Z</time>
      </trkpt>
      <trkpt lat="48.72356" lon="1.77905">
        <ele>164.19999694824</ele>
        <time>2014-08-01T12:08:31.000Z</time>
      </trkpt>
      <trkpt lat="48.72354" lon="1.77905">
        <ele>164</ele>
        <time>2014-08-01T12:08:32.000Z</time>
      </trkpt>
      <trkpt lat="48.72337" lon="1.77898">
        <ele>165.39999389648</ele>
        <time>2014-08-01T12:08:40.000Z</time>
      </trkpt>
      <trkpt lat="48.72331" lon="1.77887">
        <ele>165</ele>
        <time>2014-08-01T12:08:45.000Z</time>
      </trkpt>
      <trkpt lat="48.72325" lon="1.77875">
        <ele>164.80000305176</ele>
        <time>2014-08-01T12:08:51.000Z</time>
      </trkpt>
      <trkpt lat="48.72321" lon="1.77862">
        <ele>165</ele>
        <time>2014-08-01T12:08:58.000Z</time>
      </trkpt>
      <trkpt lat="48.72316" lon="1.77851">
        <ele>165.19999694824</ele>
        <time>2014-08-01T12:09:05.000Z</time>
      </trkpt>
      <trkpt lat="48.72312" lon="1.77839">
        <ele>165.60000610352</ele>
        <time>2014-08-01T12:09:12.000Z</time>
      </trkpt>
      <trkpt lat="48.72311" lon="1.77839">
        <ele>165.60000610352</ele>
        <time>2014-08-01T12:09:14.000Z</time>
      </trkpt>
      <trkpt lat="48.72311" lon="1.77842">
        <ele>165.39999389648</ele>
        <time>2014-08-01T12:09:28.000Z</time>
      </trkpt>
      <trkpt lat="48.7231" lon="1.77847">
        <ele>165.39999389648</ele>
        <time>2014-08-01T12:09:31.000Z</time>
      </trkpt>
      <trkpt lat="48.72305" lon="1.77834">
        <ele>165.60000610352</ele>
        <time>2014-08-01T12:09:38.000Z</time>
      </trkpt>
      <trkpt lat="48.723" lon="1.77823">
        <ele>166</ele>
        <time>2014-08-01T12:09:43.000Z</time>
      </trkpt>
      <trkpt lat="48.723" lon="1.77821">
        <ele>166</ele>
        <time>2014-08-01T12:09:45.000Z</time>
      </trkpt>
      <trkpt lat="48.72293" lon="1.7781">
        <ele>165.60000610352</ele>
        <time>2014-08-01T12:09:52.000Z</time>
      </trkpt>
      <trkpt lat="48.72287" lon="1.778">
        <ele>165.19999694824</ele>
        <time>2014-08-01T12:10:00.000Z</time>
      </trkpt>
      <trkpt lat="48.72287" lon="1.77799">
        <ele>165.19999694824</ele>
        <time>2014-08-01T12:10:01.000Z</time>
      </trkpt>
      <trkpt lat="48.72276" lon="1.77797">
        <ele>165.19999694824</ele>
        <time>2014-08-01T12:10:08.000Z</time>
      </trkpt>
      <trkpt lat="48.72265" lon="1.77784">
        <ele>164.80000305176</ele>
        <time>2014-08-01T12:10:17.000Z</time>
      </trkpt>
      <trkpt lat="48.72253" lon="1.77772">
        <ele>164.80000305176</ele>
        <time>2014-08-01T12:10:25.000Z</time>
      </trkpt>
      <trkpt lat="48.72239" lon="1.77762">
        <ele>165</ele>
        <time>2014-08-01T12:10:32.000Z</time>
      </trkpt>
      <trkpt lat="48.72233" lon="1.77746">
        <ele>164.60000610352</ele>
        <time>2014-08-01T12:10:40.000Z</time>
      </trkpt>
      <trkpt lat="48.72229" lon="1.77739">
        <ele>164.60000610352</ele>
        <time>2014-08-01T12:10:44.000Z</time>
      </trkpt>
      <trkpt lat="48.72229" lon="1.7773">
        <ele>164.19999694824</ele>
        <time>2014-08-01T12:10:48.000Z</time>
      </trkpt>
      <trkpt lat="48.72226" lon="1.77719">
        <ele>163.80000305176</ele>
        <time>2014-08-01T12:10:53.000Z</time>
      </trkpt>
      <trkpt lat="48.72223" lon="1.77709">
        <ele>163.19999694824</ele>
        <time>2014-08-01T12:10:58.000Z</time>
      </trkpt>
      <trkpt lat="48.72217" lon="1.77694">
        <ele>162.80000305176</ele>
        <time>2014-08-01T12:11:05.000Z</time>
      </trkpt>
      <trkpt lat="48.72212" lon="1.77685">
        <ele>162.60000610352</ele>
        <time>2014-08-01T12:11:09.000Z</time>
      </trkpt>
      <trkpt lat="48.72209" lon="1.77674">
        <ele>162.39999389648</ele>
        <time>2014-08-01T12:11:14.000Z</time>
      </trkpt>
      <trkpt lat="48.72197" lon="1.77671">
        <ele>162.39999389648</ele>
        <time>2014-08-01T12:11:34.000Z</time>
      </trkpt>
      <trkpt lat="48.72176" lon="1.77647">
        <ele>161.80000305176</ele>
        <time>2014-08-01T12:11:42.000Z</time>
      </trkpt>
      <trkpt lat="48.72163" lon="1.77621">
        <ele>160.60000610352</ele>
        <time>2014-08-01T12:11:50.000Z</time>
      </trkpt>
      <trkpt lat="48.72155" lon="1.77608">
        <ele>160.19999694824</ele>
        <time>2014-08-01T12:11:55.000Z</time>
      </trkpt>
      <trkpt lat="48.72145" lon="1.77592">
        <ele>159.39999389648</ele>
        <time>2014-08-01T12:12:00.000Z</time>
      </trkpt>
      <trkpt lat="48.72135" lon="1.77579">
        <ele>159</ele>
        <time>2014-08-01T12:12:05.000Z</time>
      </trkpt>
      <trkpt lat="48.72133" lon="1.7757">
        <ele>158.80000305176</ele>
        <time>2014-08-01T12:12:12.000Z</time>
      </trkpt>
      <trkpt lat="48.72136" lon="1.77574">
        <ele>158.80000305176</ele>
        <time>2014-08-01T12:12:26.000Z</time>
      </trkpt>
      <trkpt lat="48.7214" lon="1.77578">
        <ele>159</ele>
        <time>2014-08-01T12:12:33.000Z</time>
      </trkpt>
      <trkpt lat="48.72139" lon="1.77581">
        <ele>159</ele>
        <time>2014-08-01T12:12:34.000Z</time>
      </trkpt>
      <trkpt lat="48.72133" lon="1.77578">
        <ele>158.80000305176</ele>
        <time>2014-08-01T12:12:41.000Z</time>
      </trkpt>
      <trkpt lat="48.72114" lon="1.77568">
        <ele>158.19999694824</ele>
        <time>2014-08-01T12:14:52.000Z</time>
      </trkpt>
      <trkpt lat="48.72101" lon="1.77561">
        <ele>158</ele>
        <time>2014-08-01T12:15:01.000Z</time>
      </trkpt>
      <trkpt lat="48.72092" lon="1.77556">
        <ele>158</ele>
        <time>2014-08-01T12:15:08.000Z</time>
      </trkpt>
      <trkpt lat="48.72078" lon="1.77552">
        <ele>158.19999694824</ele>
        <time>2014-08-01T12:15:16.000Z</time>
      </trkpt>
      <trkpt lat="48.72067" lon="1.77549">
        <ele>158.80000305176</ele>
        <time>2014-08-01T12:15:22.000Z</time>
      </trkpt>
      <trkpt lat="48.72053" lon="1.7755">
        <ele>160.19999694824</ele>
        <time>2014-08-01T12:15:29.000Z</time>
      </trkpt>
      <trkpt lat="48.72039" lon="1.77555">
        <ele>161.80000305176</ele>
        <time>2014-08-01T12:15:38.000Z</time>
      </trkpt>
      <trkpt lat="48.72036" lon="1.77555">
        <ele>162</ele>
        <time>2014-08-01T12:15:42.000Z</time>
      </trkpt>
      <trkpt lat="48.72029" lon="1.77547">
        <ele>162</ele>
        <time>2014-08-01T12:15:57.000Z</time>
      </trkpt>
      <trkpt lat="48.72026" lon="1.77545">
        <ele>162</ele>
        <time>2014-08-01T12:15:58.000Z</time>
      </trkpt>
      <trkpt lat="48.72016" lon="1.77532">
        <ele>161.80000305176</ele>
        <time>2014-08-01T12:16:08.000Z</time>
      </trkpt>
      <trkpt lat="48.72014" lon="1.7753">
        <ele>161.80000305176</ele>
        <time>2014-08-01T12:16:12.000Z</time>
      </trkpt>
      <trkpt lat="48.72011" lon="1.77521">
        <ele>161.39999389648</ele>
        <time>2014-08-01T12:16:18.000Z</time>
      </trkpt>
      <trkpt lat="48.72007" lon="1.77514">
        <ele>161.19999694824</ele>
        <time>2014-08-01T12:16:22.000Z</time>
      </trkpt>
      <trkpt lat="48.72006" lon="1.77511">
        <ele>161</ele>
        <time>2014-08-01T12:16:27.000Z</time>
      </trkpt>
      <trkpt lat="48.72003" lon="1.77504">
        <ele>160.60000610352</ele>
        <time>2014-08-01T12:16:37.000Z</time>
      </trkpt>
      <trkpt lat="48.72002" lon="1.77501">
        <ele>160.60000610352</ele>
        <time>2014-08-01T12:16:38.000Z</time>
      </trkpt>
      <trkpt lat="48.71999" lon="1.77495">
        <ele>160.19999694824</ele>
        <time>2014-08-01T12:16:41.000Z</time>
      </trkpt>
      <trkpt lat="48.71994" lon="1.77487">
        <ele>160.19999694824</ele>
        <time>2014-08-01T12:16:47.000Z</time>
      </trkpt>
      <trkpt lat="48.7198" lon="1.77478">
        <ele>161</ele>
        <time>2014-08-01T12:16:55.000Z</time>
      </trkpt>
      <trkpt lat="48.71978" lon="1.77474">
        <ele>161</ele>
        <time>2014-08-01T12:16:58.000Z</time>
      </trkpt>
      <trkpt lat="48.71967" lon="1.7747">
        <ele>162</ele>
        <time>2014-08-01T12:17:04.000Z</time>
      </trkpt>
      <trkpt lat="48.7196" lon="1.77468">
        <ele>162.60000610352</ele>
        <time>2014-08-01T12:17:07.000Z</time>
      </trkpt>
      <trkpt lat="48.71956" lon="1.77464">
        <ele>162.60000610352</ele>
        <time>2014-08-01T12:17:11.000Z</time>
      </trkpt>
      <trkpt lat="48.71953" lon="1.77456">
        <ele>162.39999389648</ele>
        <time>2014-08-01T12:17:17.000Z</time>
      </trkpt>
      <trkpt lat="48.71951" lon="1.77455">
        <ele>162.60000610352</ele>
        <time>2014-08-01T12:17:18.000Z</time>
      </trkpt>
      <trkpt lat="48.71941" lon="1.77447">
        <ele>163</ele>
        <time>2014-08-01T12:17:26.000Z</time>
      </trkpt>
      <trkpt lat="48.7194" lon="1.77446">
        <ele>163.19999694824</ele>
        <time>2014-08-01T12:17:27.000Z</time>
      </trkpt>
      <trkpt lat="48.71936" lon="1.77444">
        <ele>163.39999389648</ele>
        <time>2014-08-01T12:17:33.000Z</time>
      </trkpt>
      <trkpt lat="48.71935" lon="1.77444">
        <ele>163.39999389648</ele>
        <time>2014-08-01T12:17:35.000Z</time>
      </trkpt>
      <trkpt lat="48.71928" lon="1.77438">
        <ele>163</ele>
        <time>2014-08-01T12:17:44.000Z</time>
      </trkpt>
      <trkpt lat="48.71924" lon="1.77431">
        <ele>162.60000610352</ele>
        <time>2014-08-01T12:17:47.000Z</time>
      </trkpt>
      <trkpt lat="48.71913" lon="1.77417">
        <ele>161.80000305176</ele>
        <time>2014-08-01T12:17:56.000Z</time>
      </trkpt>
      <trkpt lat="48.71907" lon="1.77411">
        <ele>161.60000610352</ele>
        <time>2014-08-01T12:18:03.000Z</time>
      </trkpt>
      <trkpt lat="48.71905" lon="1.7741">
        <ele>161.60000610352</ele>
        <time>2014-08-01T12:18:05.000Z</time>
      </trkpt>
      <trkpt lat="48.71898" lon="1.77406">
        <ele>161.60000610352</ele>
        <time>2014-08-01T12:18:10.000Z</time>
      </trkpt>
      <trkpt lat="48.71895" lon="1.77404">
        <ele>161.39999389648</ele>
        <time>2014-08-01T12:18:12.000Z</time>
      </trkpt>
      <trkpt lat="48.71886" lon="1.77404">
        <ele>161.80000305176</ele>
        <time>2014-08-01T12:18:18.000Z</time>
      </trkpt>
      <trkpt lat="48.71875" lon="1.774">
        <ele>161.80000305176</ele>
        <time>2014-08-01T12:18:25.000Z</time>
      </trkpt>
      <trkpt lat="48.71863" lon="1.77404">
        <ele>162.60000610352</ele>
        <time>2014-08-01T12:18:32.000Z</time>
      </trkpt>
      <trkpt lat="48.71861" lon="1.77405">
        <ele>162.80000305176</ele>
        <time>2014-08-01T12:18:33.000Z</time>
      </trkpt>
      <trkpt lat="48.71853" lon="1.77413">
        <ele>163.80000305176</ele>
        <time>2014-08-01T12:18:41.000Z</time>
      </trkpt>
      <trkpt lat="48.7185" lon="1.77422">
        <ele>164.39999389648</ele>
        <time>2014-08-01T12:18:45.000Z</time>
      </trkpt>
      <trkpt lat="48.71839" lon="1.77422">
        <ele>164</ele>
        <time>2014-08-01T12:18:52.000Z</time>
      </trkpt>
      <trkpt lat="48.71836" lon="1.77422">
        <ele>163.80000305176</ele>
        <time>2014-08-01T12:18:57.000Z</time>
      </trkpt>
      <trkpt lat="48.71834" lon="1.77426">
        <ele>164.19999694824</ele>
        <time>2014-08-01T12:19:03.000Z</time>
      </trkpt>
      <trkpt lat="48.71828" lon="1.77427">
        <ele>164</ele>
        <time>2014-08-01T12:19:10.000Z</time>
      </trkpt>
      <trkpt lat="48.71827" lon="1.77428">
        <ele>164</ele>
        <time>2014-08-01T12:19:11.000Z</time>
      </trkpt>
      <trkpt lat="48.71821" lon="1.77437">
        <ele>164.60000610352</ele>
        <time>2014-08-01T12:19:15.000Z</time>
      </trkpt>
      <trkpt lat="48.71818" lon="1.77438">
        <ele>164.60000610352</ele>
        <time>2014-08-01T12:19:18.000Z</time>
      </trkpt>
      <trkpt lat="48.71805" lon="1.77442">
        <ele>164</ele>
        <time>2014-08-01T12:19:26.000Z</time>
      </trkpt>
      <trkpt lat="48.71801" lon="1.77444">
        <ele>163.60000610352</ele>
        <time>2014-08-01T12:19:29.000Z</time>
      </trkpt>
      <trkpt lat="48.71793" lon="1.77446">
        <ele>162.80000305176</ele>
        <time>2014-08-01T12:19:36.000Z</time>
      </trkpt>
      <trkpt lat="48.7179" lon="1.77448">
        <ele>162.39999389648</ele>
        <time>2014-08-01T12:19:38.000Z</time>
      </trkpt>
      <trkpt lat="48.71783" lon="1.77454">
        <ele>161.80000305176</ele>
        <time>2014-08-01T12:19:43.000Z</time>
      </trkpt>
      <trkpt lat="48.71775" lon="1.77469">
        <ele>161</ele>
        <time>2014-08-01T12:19:50.000Z</time>
      </trkpt>
      <trkpt lat="48.71767" lon="1.77484">
        <ele>161</ele>
        <time>2014-08-01T12:19:57.000Z</time>
      </trkpt>
      <trkpt lat="48.71756" lon="1.77497">
        <ele>162</ele>
        <time>2014-08-01T12:20:05.000Z</time>
      </trkpt>
      <trkpt lat="48.71747" lon="1.77497">
        <ele>162.60000610352</ele>
        <time>2014-08-01T12:20:11.000Z</time>
      </trkpt>
      <trkpt lat="48.71737" lon="1.77495">
        <ele>163.19999694824</ele>
        <time>2014-08-01T12:20:16.000Z</time>
      </trkpt>
      <trkpt lat="48.71721" lon="1.77484">
        <ele>163.80000305176</ele>
        <time>2014-08-01T12:20:26.000Z</time>
      </trkpt>
      <trkpt lat="48.71719" lon="1.77484">
        <ele>163.80000305176</ele>
        <time>2014-08-01T12:20:27.000Z</time>
      </trkpt>
      <trkpt lat="48.7171" lon="1.77489">
        <ele>164.60000610352</ele>
        <time>2014-08-01T12:20:34.000Z</time>
      </trkpt>
      <trkpt lat="48.71705" lon="1.77494">
        <ele>165</ele>
        <time>2014-08-01T12:20:39.000Z</time>
      </trkpt>
      <trkpt lat="48.71699" lon="1.77494">
        <ele>165.39999389648</ele>
        <time>2014-08-01T12:20:45.000Z</time>
      </trkpt>
      <trkpt lat="48.71694" lon="1.77493">
        <ele>165.60000610352</ele>
        <time>2014-08-01T12:20:50.000Z</time>
      </trkpt>
      <trkpt lat="48.71692" lon="1.77491">
        <ele>165.80000305176</ele>
        <time>2014-08-01T12:20:55.000Z</time>
      </trkpt>
      <trkpt lat="48.71684" lon="1.77487">
        <ele>166.19999694824</ele>
        <time>2014-08-01T12:21:04.000Z</time>
      </trkpt>
      <trkpt lat="48.71679" lon="1.77483">
        <ele>166.19999694824</ele>
        <time>2014-08-01T12:21:07.000Z</time>
      </trkpt>
      <trkpt lat="48.71677" lon="1.77482">
        <ele>166</ele>
        <time>2014-08-01T12:21:09.000Z</time>
      </trkpt>
      <trkpt lat="48.71669" lon="1.77469">
        <ele>165.60000610352</ele>
        <time>2014-08-01T12:21:18.000Z</time>
      </trkpt>
      <trkpt lat="48.71668" lon="1.77468">
        <ele>165.39999389648</ele>
        <time>2014-08-01T12:21:19.000Z</time>
      </trkpt>
      <trkpt lat="48.71662" lon="1.77462">
        <ele>165.39999389648</ele>
        <time>2014-08-01T12:21:24.000Z</time>
      </trkpt>
      <trkpt lat="48.71654" lon="1.77457">
        <ele>165.39999389648</ele>
        <time>2014-08-01T12:21:30.000Z</time>
      </trkpt>
      <trkpt lat="48.71653" lon="1.77457">
        <ele>165.39999389648</ele>
        <time>2014-08-01T12:21:31.000Z</time>
      </trkpt>
      <trkpt lat="48.71647" lon="1.77457">
        <ele>166</ele>
        <time>2014-08-01T12:21:35.000Z</time>
      </trkpt>
      <trkpt lat="48.71638" lon="1.77464">
        <ele>167.19999694824</ele>
        <time>2014-08-01T12:21:43.000Z</time>
      </trkpt>
      <trkpt lat="48.71631" lon="1.77466">
        <ele>167.80000305176</ele>
        <time>2014-08-01T12:21:48.000Z</time>
      </trkpt>
      <trkpt lat="48.7163" lon="1.77466">
        <ele>168</ele>
        <time>2014-08-01T12:21:49.000Z</time>
      </trkpt>
      <trkpt lat="48.71627" lon="1.77463">
        <ele>167.80000305176</ele>
        <time>2014-08-01T12:21:52.000Z</time>
      </trkpt>
      <trkpt lat="48.71622" lon="1.77452">
        <ele>167.19999694824</ele>
        <time>2014-08-01T12:21:59.000Z</time>
      </trkpt>
      <trkpt lat="48.71622" lon="1.77451">
        <ele>167.19999694824</ele>
        <time>2014-08-01T12:22:02.000Z</time>
      </trkpt>
      <trkpt lat="48.71615" lon="1.77446">
        <ele>167.19999694824</ele>
        <time>2014-08-01T12:22:11.000Z</time>
      </trkpt>
      <trkpt lat="48.71608" lon="1.77444">
        <ele>167.39999389648</ele>
        <time>2014-08-01T12:22:14.000Z</time>
      </trkpt>
      <trkpt lat="48.71604" lon="1.77445">
        <ele>167.80000305176</ele>
        <time>2014-08-01T12:22:17.000Z</time>
      </trkpt>
      <trkpt lat="48.71593" lon="1.77444">
        <ele>168.19999694824</ele>
        <time>2014-08-01T12:22:24.000Z</time>
      </trkpt>
      <trkpt lat="48.7158" lon="1.77452">
        <ele>169.39999389648</ele>
        <time>2014-08-01T12:22:32.000Z</time>
      </trkpt>
      <trkpt lat="48.71568" lon="1.77453">
        <ele>169.80000305176</ele>
        <time>2014-08-01T12:22:38.000Z</time>
      </trkpt>
      <trkpt lat="48.71559" lon="1.77455">
        <ele>169.19999694824</ele>
        <time>2014-08-01T12:22:44.000Z</time>
      </trkpt>
      <trkpt lat="48.71555" lon="1.77451">
        <ele>169</ele>
        <time>2014-08-01T12:22:48.000Z</time>
      </trkpt>
      <trkpt lat="48.71546" lon="1.77448">
        <ele>168.39999389648</ele>
        <time>2014-08-01T12:22:55.000Z</time>
      </trkpt>
      <trkpt lat="48.71535" lon="1.77453">
        <ele>167.60000610352</ele>
        <time>2014-08-01T12:23:01.000Z</time>
      </trkpt>
      <trkpt lat="48.71533" lon="1.77454">
        <ele>167.39999389648</ele>
        <time>2014-08-01T12:23:03.000Z</time>
      </trkpt>
      <trkpt lat="48.71528" lon="1.77457">
        <ele>167</ele>
        <time>2014-08-01T12:23:08.000Z</time>
      </trkpt>
      <trkpt lat="48.71518" lon="1.77461">
        <ele>166.19999694824</ele>
        <time>2014-08-01T12:23:15.000Z</time>
      </trkpt>
      <trkpt lat="48.71511" lon="1.77467">
        <ele>166.19999694824</ele>
        <time>2014-08-01T12:23:20.000Z</time>
      </trkpt>
      <trkpt lat="48.71502" lon="1.77473">
        <ele>166</ele>
        <time>2014-08-01T12:23:26.000Z</time>
      </trkpt>
      <trkpt lat="48.71501" lon="1.77473">
        <ele>166</ele>
        <time>2014-08-01T12:23:27.000Z</time>
      </trkpt>
      <trkpt lat="48.71492" lon="1.77479">
        <ele>166</ele>
        <time>2014-08-01T12:23:34.000Z</time>
      </trkpt>
      <trkpt lat="48.71489" lon="1.77482">
        <ele>166</ele>
        <time>2014-08-01T12:23:38.000Z</time>
      </trkpt>
      <trkpt lat="48.71492" lon="1.77481">
        <ele>166</ele>
        <time>2014-08-01T12:23:51.000Z</time>
      </trkpt>
      <trkpt lat="48.71492" lon="1.77479">
        <ele>166</ele>
        <time>2014-08-01T12:24:07.000Z</time>
      </trkpt>
      <trkpt lat="48.71489" lon="1.77483">
        <ele>166</ele>
        <time>2014-08-01T12:24:12.000Z</time>
      </trkpt>
      <trkpt lat="48.71484" lon="1.77484">
        <ele>166</ele>
        <time>2014-08-01T12:24:18.000Z</time>
      </trkpt>
      <trkpt lat="48.71472" lon="1.77493">
        <ele>166.19999694824</ele>
        <time>2014-08-01T12:24:25.000Z</time>
      </trkpt>
      <trkpt lat="48.7147" lon="1.77494">
        <ele>166.19999694824</ele>
        <time>2014-08-01T12:24:26.000Z</time>
      </trkpt>
      <trkpt lat="48.71461" lon="1.77487">
        <ele>166</ele>
        <time>2014-08-01T12:24:32.000Z</time>
      </trkpt>
      <trkpt lat="48.71457" lon="1.77485">
        <ele>166</ele>
        <time>2014-08-01T12:24:40.000Z</time>
      </trkpt>
      <trkpt lat="48.71453" lon="1.77484">
        <ele>166</ele>
        <time>2014-08-01T12:24:44.000Z</time>
      </trkpt>
      <trkpt lat="48.7145" lon="1.77484">
        <ele>166</ele>
        <time>2014-08-01T12:24:47.000Z</time>
      </trkpt>
      <trkpt lat="48.71443" lon="1.77491">
        <ele>166</ele>
        <time>2014-08-01T12:24:53.000Z</time>
      </trkpt>
      <trkpt lat="48.71442" lon="1.77499">
        <ele>166.19999694824</ele>
        <time>2014-08-01T12:24:59.000Z</time>
      </trkpt>
      <trkpt lat="48.71438" lon="1.77505">
        <ele>166.19999694824</ele>
        <time>2014-08-01T12:25:03.000Z</time>
      </trkpt>
      <trkpt lat="48.71426" lon="1.77523">
        <ele>166.39999389648</ele>
        <time>2014-08-01T12:25:10.000Z</time>
      </trkpt>
      <trkpt lat="48.71419" lon="1.77541">
        <ele>166.60000610352</ele>
        <time>2014-08-01T12:25:16.000Z</time>
      </trkpt>
      <trkpt lat="48.71412" lon="1.77554">
        <ele>166.80000305176</ele>
        <time>2014-08-01T12:25:22.000Z</time>
      </trkpt>
      <trkpt lat="48.71407" lon="1.77561">
        <ele>166.80000305176</ele>
        <time>2014-08-01T12:25:28.000Z</time>
      </trkpt>
      <trkpt lat="48.71402" lon="1.77567">
        <ele>167</ele>
        <time>2014-08-01T12:25:34.000Z</time>
      </trkpt>
      <trkpt lat="48.71397" lon="1.77576">
        <ele>167.19999694824</ele>
        <time>2014-08-01T12:25:39.000Z</time>
      </trkpt>
      <trkpt lat="48.71395" lon="1.77583">
        <ele>167.60000610352</ele>
        <time>2014-08-01T12:25:44.000Z</time>
      </trkpt>
      <trkpt lat="48.71389" lon="1.77589">
        <ele>167.80000305176</ele>
        <time>2014-08-01T12:25:49.000Z</time>
      </trkpt>
      <trkpt lat="48.71383" lon="1.77595">
        <ele>168.19999694824</ele>
        <time>2014-08-01T12:25:56.000Z</time>
      </trkpt>
      <trkpt lat="48.71377" lon="1.77598">
        <ele>168.19999694824</ele>
        <time>2014-08-01T12:26:00.000Z</time>
      </trkpt>
      <trkpt lat="48.71372" lon="1.77602">
        <ele>168.39999389648</ele>
        <time>2014-08-01T12:26:05.000Z</time>
      </trkpt>
      <trkpt lat="48.71365" lon="1.77609">
        <ele>168.60000610352</ele>
        <time>2014-08-01T12:26:13.000Z</time>
      </trkpt>
      <trkpt lat="48.71361" lon="1.77612">
        <ele>168.60000610352</ele>
        <time>2014-08-01T12:26:17.000Z</time>
      </trkpt>
      <trkpt lat="48.71352" lon="1.77618">
        <ele>168.60000610352</ele>
        <time>2014-08-01T12:26:24.000Z</time>
      </trkpt>
      <trkpt lat="48.71343" lon="1.77628">
        <ele>169</ele>
        <time>2014-08-01T12:26:30.000Z</time>
      </trkpt>
      <trkpt lat="48.71335" lon="1.7764">
        <ele>169.19999694824</ele>
        <time>2014-08-01T12:26:37.000Z</time>
      </trkpt>
      <trkpt lat="48.71334" lon="1.77642">
        <ele>169.39999389648</ele>
        <time>2014-08-01T12:26:38.000Z</time>
      </trkpt>
      <trkpt lat="48.7133" lon="1.77647">
        <ele>169.39999389648</ele>
        <time>2014-08-01T12:26:43.000Z</time>
      </trkpt>
      <trkpt lat="48.71328" lon="1.7765">
        <ele>169.60000610352</ele>
        <time>2014-08-01T12:26:50.000Z</time>
      </trkpt>
      <trkpt lat="48.71326" lon="1.77654">
        <ele>169.60000610352</ele>
        <time>2014-08-01T12:26:54.000Z</time>
      </trkpt>
      <trkpt lat="48.71325" lon="1.77658">
        <ele>169.80000305176</ele>
        <time>2014-08-01T12:26:59.000Z</time>
      </trkpt>
      <trkpt lat="48.71323" lon="1.77667">
        <ele>170</ele>
        <time>2014-08-01T12:27:05.000Z</time>
      </trkpt>
      <trkpt lat="48.7132" lon="1.77675">
        <ele>170</ele>
        <time>2014-08-01T12:27:09.000Z</time>
      </trkpt>
      <trkpt lat="48.71314" lon="1.77684">
        <ele>170.19999694824</ele>
        <time>2014-08-01T12:27:14.000Z</time>
      </trkpt>
      <trkpt lat="48.71306" lon="1.77691">
        <ele>170.39999389648</ele>
        <time>2014-08-01T12:27:21.000Z</time>
      </trkpt>
      <trkpt lat="48.71303" lon="1.77695">
        <ele>170.39999389648</ele>
        <time>2014-08-01T12:27:26.000Z</time>
      </trkpt>
      <trkpt lat="48.71301" lon="1.77694">
        <ele>170.39999389648</ele>
        <time>2014-08-01T12:27:32.000Z</time>
      </trkpt>
      <trkpt lat="48.71295" lon="1.77705">
        <ele>170.80000305176</ele>
        <time>2014-08-01T12:27:38.000Z</time>
      </trkpt>
      <trkpt lat="48.71287" lon="1.77718">
        <ele>171.19999694824</ele>
        <time>2014-08-01T12:27:44.000Z</time>
      </trkpt>
      <trkpt lat="48.71281" lon="1.77727">
        <ele>171.60000610352</ele>
        <time>2014-08-01T12:28:02.000Z</time>
      </trkpt>
      <trkpt lat="48.7128" lon="1.77728">
        <ele>171.60000610352</ele>
        <time>2014-08-01T12:28:05.000Z</time>
      </trkpt>
      <trkpt lat="48.71279" lon="1.77732">
        <ele>171.80000305176</ele>
        <time>2014-08-01T12:28:08.000Z</time>
      </trkpt>
      <trkpt lat="48.71277" lon="1.77741">
        <ele>172</ele>
        <time>2014-08-01T12:28:11.000Z</time>
      </trkpt>
      <trkpt lat="48.71272" lon="1.77744">
        <ele>172.19999694824</ele>
        <time>2014-08-01T12:28:15.000Z</time>
      </trkpt>
      <trkpt lat="48.71263" lon="1.77757">
        <ele>172.19999694824</ele>
        <time>2014-08-01T12:28:22.000Z</time>
      </trkpt>
      <trkpt lat="48.71256" lon="1.77768">
        <ele>172.39999389648</ele>
        <time>2014-08-01T12:28:28.000Z</time>
      </trkpt>
      <trkpt lat="48.71251" lon="1.77775">
        <ele>172.39999389648</ele>
        <time>2014-08-01T12:28:34.000Z</time>
      </trkpt>
      <trkpt lat="48.71249" lon="1.77779">
        <ele>172.39999389648</ele>
        <time>2014-08-01T12:28:41.000Z</time>
      </trkpt>
      <trkpt lat="48.71254" lon="1.77785">
        <ele>172.80000305176</ele>
        <time>2014-08-01T12:29:26.000Z</time>
      </trkpt>
      <trkpt lat="48.71252" lon="1.77795">
        <ele>173</ele>
        <time>2014-08-01T12:29:35.000Z</time>
      </trkpt>
      <trkpt lat="48.71253" lon="1.77799">
        <ele>173</ele>
        <time>2014-08-01T12:29:37.000Z</time>
      </trkpt>
      <trkpt lat="48.71253" lon="1.77815">
        <ele>173.19999694824</ele>
        <time>2014-08-01T12:29:44.000Z</time>
      </trkpt>
      <trkpt lat="48.71253" lon="1.77821">
        <ele>173.19999694824</ele>
        <time>2014-08-01T12:29:49.000Z</time>
      </trkpt>
      <trkpt lat="48.71246" lon="1.77819">
        <ele>172.80000305176</ele>
        <time>2014-08-01T12:29:55.000Z</time>
      </trkpt>
      <trkpt lat="48.71234" lon="1.77809">
        <ele>172.19999694824</ele>
        <time>2014-08-01T12:30:03.000Z</time>
      </trkpt>
      <trkpt lat="48.71227" lon="1.77799">
        <ele>172</ele>
        <time>2014-08-01T12:30:09.000Z</time>
      </trkpt>
      <trkpt lat="48.7122" lon="1.77798">
        <ele>171.60000610352</ele>
        <time>2014-08-01T12:30:15.000Z</time>
      </trkpt>
      <trkpt lat="48.71218" lon="1.77798">
        <ele>171.60000610352</ele>
        <time>2014-08-01T12:30:16.000Z</time>
      </trkpt>
      <trkpt lat="48.71212" lon="1.77787">
        <ele>171.19999694824</ele>
        <time>2014-08-01T12:30:22.000Z</time>
      </trkpt>
      <trkpt lat="48.71207" lon="1.77782">
        <ele>171</ele>
        <time>2014-08-01T12:30:27.000Z</time>
      </trkpt>
      <trkpt lat="48.71204" lon="1.77778">
        <ele>170.80000305176</ele>
        <time>2014-08-01T12:30:31.000Z</time>
      </trkpt>
      <trkpt lat="48.71197" lon="1.77776">
        <ele>170.39999389648</ele>
        <time>2014-08-01T12:30:36.000Z</time>
      </trkpt>
      <trkpt lat="48.71193" lon="1.77765">
        <ele>170.19999694824</ele>
        <time>2014-08-01T12:30:43.000Z</time>
      </trkpt>
      <trkpt lat="48.71188" lon="1.77755">
        <ele>170</ele>
        <time>2014-08-01T12:30:49.000Z</time>
      </trkpt>
      <trkpt lat="48.71186" lon="1.77754">
        <ele>170</ele>
        <time>2014-08-01T12:30:50.000Z</time>
      </trkpt>
      <trkpt lat="48.71173" lon="1.77745">
        <ele>169.80000305176</ele>
        <time>2014-08-01T12:30:58.000Z</time>
      </trkpt>
      <trkpt lat="48.71163" lon="1.77742">
        <ele>169.80000305176</ele>
        <time>2014-08-01T12:31:04.000Z</time>
      </trkpt>
      <trkpt lat="48.71162" lon="1.77741">
        <ele>169.60000610352</ele>
        <time>2014-08-01T12:31:05.000Z</time>
      </trkpt>
      <trkpt lat="48.71153" lon="1.77738">
        <ele>169.60000610352</ele>
        <time>2014-08-01T12:31:10.000Z</time>
      </trkpt>
      <trkpt lat="48.71136" lon="1.77739">
        <ele>169.39999389648</ele>
        <time>2014-08-01T12:31:19.000Z</time>
      </trkpt>
      <trkpt lat="48.71129" lon="1.77741">
        <ele>169.39999389648</ele>
        <time>2014-08-01T12:31:23.000Z</time>
      </trkpt>
      <trkpt lat="48.7112" lon="1.77747">
        <ele>169.19999694824</ele>
        <time>2014-08-01T12:31:28.000Z</time>
      </trkpt>
      <trkpt lat="48.71111" lon="1.77749">
        <ele>169.19999694824</ele>
        <time>2014-08-01T12:31:35.000Z</time>
      </trkpt>
      <trkpt lat="48.71111" lon="1.77748">
        <ele>169.19999694824</ele>
        <time>2014-08-01T12:31:36.000Z</time>
      </trkpt>
      <trkpt lat="48.71104" lon="1.77749">
        <ele>169.19999694824</ele>
        <time>2014-08-01T12:31:45.000Z</time>
      </trkpt>
      <trkpt lat="48.71098" lon="1.7774">
        <ele>169.19999694824</ele>
        <time>2014-08-01T12:31:50.000Z</time>
      </trkpt>
      <trkpt lat="48.71094" lon="1.7773">
        <ele>169.39999389648</ele>
        <time>2014-08-01T12:31:57.000Z</time>
      </trkpt>
      <trkpt lat="48.71094" lon="1.77727">
        <ele>169.39999389648</ele>
        <time>2014-08-01T12:32:05.000Z</time>
      </trkpt>
      <trkpt lat="48.71095" lon="1.77722">
        <ele>169.39999389648</ele>
        <time>2014-08-01T12:32:16.000Z</time>
      </trkpt>
      <trkpt lat="48.71096" lon="1.7772">
        <ele>169.39999389648</ele>
        <time>2014-08-01T12:32:17.000Z</time>
      </trkpt>
      <trkpt lat="48.71086" lon="1.77713">
        <ele>169.80000305176</ele>
        <time>2014-08-01T12:32:23.000Z</time>
      </trkpt>
      <trkpt lat="48.71081" lon="1.777">
        <ele>170</ele>
        <time>2014-08-01T12:32:30.000Z</time>
      </trkpt>
      <trkpt lat="48.71076" lon="1.77686">
        <ele>170.19999694824</ele>
        <time>2014-08-01T12:32:37.000Z</time>
      </trkpt>
      <trkpt lat="48.7107" lon="1.77676">
        <ele>170.60000610352</ele>
        <time>2014-08-01T12:32:44.000Z</time>
      </trkpt>
      <trkpt lat="48.71062" lon="1.77664">
        <ele>170.80000305176</ele>
        <time>2014-08-01T12:32:51.000Z</time>
      </trkpt>
      <trkpt lat="48.71056" lon="1.77651">
        <ele>171.19999694824</ele>
        <time>2014-08-01T12:32:58.000Z</time>
      </trkpt>
      <trkpt lat="48.71051" lon="1.77636">
        <ele>171.19999694824</ele>
        <time>2014-08-01T12:33:05.000Z</time>
      </trkpt>
      <trkpt lat="48.71047" lon="1.77624">
        <ele>171.39999389648</ele>
        <time>2014-08-01T12:33:11.000Z</time>
      </trkpt>
      <trkpt lat="48.71047" lon="1.77622">
        <ele>171.39999389648</ele>
        <time>2014-08-01T12:33:12.000Z</time>
      </trkpt>
      <trkpt lat="48.71044" lon="1.77614">
        <ele>171.39999389648</ele>
        <time>2014-08-01T12:33:16.000Z</time>
      </trkpt>
      <trkpt lat="48.71039" lon="1.77602">
        <ele>171.60000610352</ele>
        <time>2014-08-01T12:33:22.000Z</time>
      </trkpt>
      <trkpt lat="48.71032" lon="1.77585">
        <ele>171.80000305176</ele>
        <time>2014-08-01T12:33:30.000Z</time>
      </trkpt>
      <trkpt lat="48.71029" lon="1.77575">
        <ele>172</ele>
        <time>2014-08-01T12:33:35.000Z</time>
      </trkpt>
      <trkpt lat="48.71025" lon="1.77566">
        <ele>172.19999694824</ele>
        <time>2014-08-01T12:33:40.000Z</time>
      </trkpt>
      <trkpt lat="48.71024" lon="1.77562">
        <ele>172.19999694824</ele>
        <time>2014-08-01T12:33:42.000Z</time>
      </trkpt>
      <trkpt lat="48.7102" lon="1.77544">
        <ele>172.60000610352</ele>
        <time>2014-08-01T12:33:50.000Z</time>
      </trkpt>
      <trkpt lat="48.71016" lon="1.77533">
        <ele>173</ele>
        <time>2014-08-01T12:33:56.000Z</time>
      </trkpt>
      <trkpt lat="48.7101" lon="1.77515">
        <ele>173.39999389648</ele>
        <time>2014-08-01T12:34:05.000Z</time>
      </trkpt>
      <trkpt lat="48.71004" lon="1.77501">
        <ele>173.60000610352</ele>
        <time>2014-08-01T12:34:13.000Z</time>
      </trkpt>
      <trkpt lat="48.70998" lon="1.77487">
        <ele>174</ele>
        <time>2014-08-01T12:34:20.000Z</time>
      </trkpt>
      <trkpt lat="48.7099" lon="1.77475">
        <ele>174.19999694824</ele>
        <time>2014-08-01T12:34:28.000Z</time>
      </trkpt>
      <trkpt lat="48.70986" lon="1.77466">
        <ele>174.19999694824</ele>
        <time>2014-08-01T12:34:33.000Z</time>
      </trkpt>
      <trkpt lat="48.70977" lon="1.77446">
        <ele>174.60000610352</ele>
        <time>2014-08-01T12:34:44.000Z</time>
      </trkpt>
      <trkpt lat="48.70971" lon="1.77432">
        <ele>174.80000305176</ele>
        <time>2014-08-01T12:34:51.000Z</time>
      </trkpt>
      <trkpt lat="48.70967" lon="1.77418">
        <ele>175.19999694824</ele>
        <time>2014-08-01T12:34:58.000Z</time>
      </trkpt>
      <trkpt lat="48.70962" lon="1.77407">
        <ele>175.60000610352</ele>
        <time>2014-08-01T12:35:04.000Z</time>
      </trkpt>
      <trkpt lat="48.70956" lon="1.77394">
        <ele>175.80000305176</ele>
        <time>2014-08-01T12:35:11.000Z</time>
      </trkpt>
      <trkpt lat="48.70946" lon="1.77372">
        <ele>176.39999389648</ele>
        <time>2014-08-01T12:35:22.000Z</time>
      </trkpt>
      <trkpt lat="48.7094" lon="1.77362">
        <ele>176.60000610352</ele>
        <time>2014-08-01T12:35:28.000Z</time>
      </trkpt>
      <trkpt lat="48.7093" lon="1.77348">
        <ele>177</ele>
        <time>2014-08-01T12:35:37.000Z</time>
      </trkpt>
      <trkpt lat="48.70921" lon="1.7733">
        <ele>177.39999389648</ele>
        <time>2014-08-01T12:35:48.000Z</time>
      </trkpt>
      <trkpt lat="48.70914" lon="1.77316">
        <ele>177.60000610352</ele>
        <time>2014-08-01T12:35:56.000Z</time>
      </trkpt>
      <trkpt lat="48.70907" lon="1.77299">
        <ele>177.39999389648</ele>
        <time>2014-08-01T12:36:04.000Z</time>
      </trkpt>
      <trkpt lat="48.70901" lon="1.77281">
        <ele>177</ele>
        <time>2014-08-01T12:36:14.000Z</time>
      </trkpt>
      <trkpt lat="48.70894" lon="1.77271">
        <ele>176.80000305176</ele>
        <time>2014-08-01T12:36:20.000Z</time>
      </trkpt>
      <trkpt lat="48.70887" lon="1.77262">
        <ele>176.60000610352</ele>
        <time>2014-08-01T12:36:26.000Z</time>
      </trkpt>
      <trkpt lat="48.7088" lon="1.7725">
        <ele>176.19999694824</ele>
        <time>2014-08-01T12:36:33.000Z</time>
      </trkpt>
      <trkpt lat="48.70876" lon="1.77247">
        <ele>176.19999694824</ele>
        <time>2014-08-01T12:36:39.000Z</time>
      </trkpt>
      <trkpt lat="48.70876" lon="1.77246">
        <ele>176.19999694824</ele>
        <time>2014-08-01T12:36:40.000Z</time>
      </trkpt>
      <trkpt lat="48.70867" lon="1.77247">
        <ele>176.19999694824</ele>
        <time>2014-08-01T12:37:02.000Z</time>
      </trkpt>
      <trkpt lat="48.70865" lon="1.77246">
        <ele>176.19999694824</ele>
        <time>2014-08-01T12:37:04.000Z</time>
      </trkpt>
      <trkpt lat="48.7086" lon="1.77247">
        <ele>176.19999694824</ele>
        <time>2014-08-01T12:37:08.000Z</time>
      </trkpt>
      <trkpt lat="48.70851" lon="1.77248">
        <ele>176.19999694824</ele>
        <time>2014-08-01T12:37:14.000Z</time>
      </trkpt>
      <trkpt lat="48.70842" lon="1.77246">
        <ele>176</ele>
        <time>2014-08-01T12:37:21.000Z</time>
      </trkpt>
      <trkpt lat="48.70832" lon="1.77246">
        <ele>176</ele>
        <time>2014-08-01T12:37:28.000Z</time>
      </trkpt>
      <trkpt lat="48.70827" lon="1.77245">
        <ele>176</ele>
        <time>2014-08-01T12:37:32.000Z</time>
      </trkpt>
      <trkpt lat="48.70821" lon="1.77246">
        <ele>176</ele>
        <time>2014-08-01T12:37:36.000Z</time>
      </trkpt>
      <trkpt lat="48.70814" lon="1.77245">
        <ele>176</ele>
        <time>2014-08-01T12:37:40.000Z</time>
      </trkpt>
      <trkpt lat="48.70808" lon="1.77245">
        <ele>176</ele>
        <time>2014-08-01T12:37:46.000Z</time>
      </trkpt>
      <trkpt lat="48.70798" lon="1.77245">
        <ele>176</ele>
        <time>2014-08-01T12:37:52.000Z</time>
      </trkpt>
      <trkpt lat="48.70782" lon="1.77245">
        <ele>176</ele>
        <time>2014-08-01T12:38:02.000Z</time>
      </trkpt>
      <trkpt lat="48.70771" lon="1.77246">
        <ele>176</ele>
        <time>2014-08-01T12:38:10.000Z</time>
      </trkpt>
      <trkpt lat="48.70758" lon="1.77247">
        <ele>176.19999694824</ele>
        <time>2014-08-01T12:38:19.000Z</time>
      </trkpt>
      <trkpt lat="48.70748" lon="1.77251">
        <ele>176.19999694824</ele>
        <time>2014-08-01T12:38:25.000Z</time>
      </trkpt>
      <trkpt lat="48.70738" lon="1.77253">
        <ele>176.39999389648</ele>
        <time>2014-08-01T12:38:32.000Z</time>
      </trkpt>
      <trkpt lat="48.7073" lon="1.77251">
        <ele>176.39999389648</ele>
        <time>2014-08-01T12:38:38.000Z</time>
      </trkpt>
      <trkpt lat="48.70721" lon="1.77252">
        <ele>176.60000610352</ele>
        <time>2014-08-01T12:38:44.000Z</time>
      </trkpt>
      <trkpt lat="48.70716" lon="1.77252">
        <ele>176.60000610352</ele>
        <time>2014-08-01T12:38:48.000Z</time>
      </trkpt>
      <trkpt lat="48.70705" lon="1.77253">
        <ele>176.80000305176</ele>
        <time>2014-08-01T12:38:55.000Z</time>
      </trkpt>
      <trkpt lat="48.70697" lon="1.77252">
        <ele>177</ele>
        <time>2014-08-01T12:39:02.000Z</time>
      </trkpt>
      <trkpt lat="48.70686" lon="1.77251">
        <ele>177.39999389648</ele>
        <time>2014-08-01T12:39:10.000Z</time>
      </trkpt>
      <trkpt lat="48.70676" lon="1.77248">
        <ele>177.80000305176</ele>
        <time>2014-08-01T12:39:18.000Z</time>
      </trkpt>
      <trkpt lat="48.70668" lon="1.77247">
        <ele>178.19999694824</ele>
        <time>2014-08-01T12:39:24.000Z</time>
      </trkpt>
      <trkpt lat="48.7066" lon="1.77246">
        <ele>178.39999389648</ele>
        <time>2014-08-01T12:39:30.000Z</time>
      </trkpt>
      <trkpt lat="48.70652" lon="1.77245">
        <ele>178.80000305176</ele>
        <time>2014-08-01T12:39:36.000Z</time>
      </trkpt>
      <trkpt lat="48.70647" lon="1.77245">
        <ele>179</ele>
        <time>2014-08-01T12:39:41.000Z</time>
      </trkpt>
      <trkpt lat="48.70637" lon="1.77244">
        <ele>179.60000610352</ele>
        <time>2014-08-01T12:39:47.000Z</time>
      </trkpt>
      <trkpt lat="48.7063" lon="1.77243">
        <ele>179.80000305176</ele>
        <time>2014-08-01T12:39:51.000Z</time>
      </trkpt>
      <trkpt lat="48.70617" lon="1.77242">
        <ele>180.39999389648</ele>
        <time>2014-08-01T12:39:59.000Z</time>
      </trkpt>
      <trkpt lat="48.70612" lon="1.77241">
        <ele>180.60000610352</ele>
        <time>2014-08-01T12:40:03.000Z</time>
      </trkpt>
      <trkpt lat="48.70603" lon="1.7724">
        <ele>181</ele>
        <time>2014-08-01T12:40:09.000Z</time>
      </trkpt>
      <trkpt lat="48.70598" lon="1.7724">
        <ele>181</ele>
        <time>2014-08-01T12:40:13.000Z</time>
      </trkpt>
      <trkpt lat="48.70592" lon="1.77238">
        <ele>181.19999694824</ele>
        <time>2014-08-01T12:40:20.000Z</time>
      </trkpt>
      <trkpt lat="48.70586" lon="1.77237">
        <ele>181.19999694824</ele>
        <time>2014-08-01T12:40:26.000Z</time>
      </trkpt>
      <trkpt lat="48.70582" lon="1.77237">
        <ele>181.19999694824</ele>
        <time>2014-08-01T12:40:29.000Z</time>
      </trkpt>
      <trkpt lat="48.70577" lon="1.77238">
        <ele>181.39999389648</ele>
        <time>2014-08-01T12:40:34.000Z</time>
      </trkpt>
      <trkpt lat="48.70572" lon="1.77237">
        <ele>181.39999389648</ele>
        <time>2014-08-01T12:40:38.000Z</time>
      </trkpt>
      <trkpt lat="48.70562" lon="1.77236">
        <ele>181.39999389648</ele>
        <time>2014-08-01T12:40:46.000Z</time>
      </trkpt>
      <trkpt lat="48.70553" lon="1.77237">
        <ele>181.60000610352</ele>
        <time>2014-08-01T12:40:53.000Z</time>
      </trkpt>
      <trkpt lat="48.70545" lon="1.77236">
        <ele>181.60000610352</ele>
        <time>2014-08-01T12:40:58.000Z</time>
      </trkpt>
      <trkpt lat="48.70538" lon="1.77234">
        <ele>181.60000610352</ele>
        <time>2014-08-01T12:41:05.000Z</time>
      </trkpt>
      <trkpt lat="48.70532" lon="1.77234">
        <ele>181.60000610352</ele>
        <time>2014-08-01T12:41:09.000Z</time>
      </trkpt>
      <trkpt lat="48.70524" lon="1.77234">
        <ele>181.60000610352</ele>
        <time>2014-08-01T12:41:15.000Z</time>
      </trkpt>
      <trkpt lat="48.70518" lon="1.77232">
        <ele>181.60000610352</ele>
        <time>2014-08-01T12:41:19.000Z</time>
      </trkpt>
      <trkpt lat="48.70513" lon="1.77232">
        <ele>181.80000305176</ele>
        <time>2014-08-01T12:41:23.000Z</time>
      </trkpt>
      <trkpt lat="48.70508" lon="1.77232">
        <ele>181.80000305176</ele>
        <time>2014-08-01T12:41:26.000Z</time>
      </trkpt>
      <trkpt lat="48.70501" lon="1.77229">
        <ele>181.60000610352</ele>
        <time>2014-08-01T12:41:32.000Z</time>
      </trkpt>
      <trkpt lat="48.70493" lon="1.77228">
        <ele>181.39999389648</ele>
        <time>2014-08-01T12:41:39.000Z</time>
      </trkpt>
      <trkpt lat="48.70491" lon="1.77227">
        <ele>181.39999389648</ele>
        <time>2014-08-01T12:41:42.000Z</time>
      </trkpt>
      <trkpt lat="48.70485" lon="1.77226">
        <ele>181.39999389648</ele>
        <time>2014-08-01T12:41:47.000Z</time>
      </trkpt>
      <trkpt lat="48.70475" lon="1.77225">
        <ele>181.19999694824</ele>
        <time>2014-08-01T12:41:54.000Z</time>
      </trkpt>
      <trkpt lat="48.70468" lon="1.77226">
        <ele>181</ele>
        <time>2014-08-01T12:41:59.000Z</time>
      </trkpt>
      <trkpt lat="48.70456" lon="1.77227">
        <ele>181</ele>
        <time>2014-08-01T12:42:06.000Z</time>
      </trkpt>
      <trkpt lat="48.70441" lon="1.77236">
        <ele>181</ele>
        <time>2014-08-01T12:42:15.000Z</time>
      </trkpt>
      <trkpt lat="48.70428" lon="1.77243">
        <ele>181</ele>
        <time>2014-08-01T12:42:24.000Z</time>
      </trkpt>
      <trkpt lat="48.70418" lon="1.77251">
        <ele>181</ele>
        <time>2014-08-01T12:42:32.000Z</time>
      </trkpt>
      <trkpt lat="48.70409" lon="1.77258">
        <ele>181.19999694824</ele>
        <time>2014-08-01T12:42:39.000Z</time>
      </trkpt>
      <trkpt lat="48.70401" lon="1.77265">
        <ele>181.19999694824</ele>
        <time>2014-08-01T12:42:46.000Z</time>
      </trkpt>
      <trkpt lat="48.70392" lon="1.77275">
        <ele>181.39999389648</ele>
        <time>2014-08-01T12:42:53.000Z</time>
      </trkpt>
      <trkpt lat="48.70382" lon="1.77285">
        <ele>181.19999694824</ele>
        <time>2014-08-01T12:43:00.000Z</time>
      </trkpt>
      <trkpt lat="48.70378" lon="1.77285">
        <ele>181.19999694824</ele>
        <time>2014-08-01T12:43:03.000Z</time>
      </trkpt>
      <trkpt lat="48.70376" lon="1.77283">
        <ele>181</ele>
        <time>2014-08-01T12:43:05.000Z</time>
      </trkpt>
      <trkpt lat="48.70372" lon="1.77278">
        <ele>181</ele>
        <time>2014-08-01T12:43:11.000Z</time>
      </trkpt>
      <trkpt lat="48.70368" lon="1.77272">
        <ele>180.80000305176</ele>
        <time>2014-08-01T12:43:16.000Z</time>
      </trkpt>
      <trkpt lat="48.70366" lon="1.77267">
        <ele>180.60000610352</ele>
        <time>2014-08-01T12:43:19.000Z</time>
      </trkpt>
      <trkpt lat="48.70363" lon="1.77264">
        <ele>180.60000610352</ele>
        <time>2014-08-01T12:43:22.000Z</time>
      </trkpt>
      <trkpt lat="48.70361" lon="1.77257">
        <ele>180.39999389648</ele>
        <time>2014-08-01T12:43:26.000Z</time>
      </trkpt>
      <trkpt lat="48.70361" lon="1.7724">
        <ele>180.19999694824</ele>
        <time>2014-08-01T12:43:34.000Z</time>
      </trkpt>
      <trkpt lat="48.70358" lon="1.77223">
        <ele>180.39999389648</ele>
        <time>2014-08-01T12:43:42.000Z</time>
      </trkpt>
      <trkpt lat="48.70358" lon="1.7721">
        <ele>180.80000305176</ele>
        <time>2014-08-01T12:43:47.000Z</time>
      </trkpt>
      <trkpt lat="48.70356" lon="1.77187">
        <ele>181.19999694824</ele>
        <time>2014-08-01T12:43:56.000Z</time>
      </trkpt>
      <trkpt lat="48.70355" lon="1.77169">
        <ele>181.60000610352</ele>
        <time>2014-08-01T12:44:03.000Z</time>
      </trkpt>
      <trkpt lat="48.70353" lon="1.77152">
        <ele>182</ele>
        <time>2014-08-01T12:44:12.000Z</time>
      </trkpt>
      <trkpt lat="48.70353" lon="1.77134">
        <ele>182</ele>
        <time>2014-08-01T12:44:20.000Z</time>
      </trkpt>
      <trkpt lat="48.70353" lon="1.77121">
        <ele>182</ele>
        <time>2014-08-01T12:44:26.000Z</time>
      </trkpt>
      <trkpt lat="48.70352" lon="1.77106">
        <ele>182</ele>
        <time>2014-08-01T12:44:33.000Z</time>
      </trkpt>
      <trkpt lat="48.70348" lon="1.77093">
        <ele>182.19999694824</ele>
        <time>2014-08-01T12:44:42.000Z</time>
      </trkpt>
      <trkpt lat="48.70345" lon="1.7708">
        <ele>182.19999694824</ele>
        <time>2014-08-01T12:44:48.000Z</time>
      </trkpt>
      <trkpt lat="48.70343" lon="1.77073">
        <ele>182.19999694824</ele>
        <time>2014-08-01T12:44:52.000Z</time>
      </trkpt>
      <trkpt lat="48.70341" lon="1.77052">
        <ele>182.19999694824</ele>
        <time>2014-08-01T12:45:00.000Z</time>
      </trkpt>
      <trkpt lat="48.70341" lon="1.77035">
        <ele>182.19999694824</ele>
        <time>2014-08-01T12:45:07.000Z</time>
      </trkpt>
      <trkpt lat="48.70341" lon="1.77023">
        <ele>182.19999694824</ele>
        <time>2014-08-01T12:45:13.000Z</time>
      </trkpt>
      <trkpt lat="48.7034" lon="1.77002">
        <ele>182.19999694824</ele>
        <time>2014-08-01T12:45:22.000Z</time>
      </trkpt>
      <trkpt lat="48.70338" lon="1.76995">
        <ele>182.19999694824</ele>
        <time>2014-08-01T12:45:28.000Z</time>
      </trkpt>
      <trkpt lat="48.70338" lon="1.76996">
        <ele>182.19999694824</ele>
        <time>2014-08-01T12:45:32.000Z</time>
      </trkpt>
      <trkpt lat="48.70339" lon="1.76983">
        <ele>182</ele>
        <time>2014-08-01T12:45:44.000Z</time>
      </trkpt>
      <trkpt lat="48.70338" lon="1.76966">
        <ele>181.60000610352</ele>
        <time>2014-08-01T12:45:50.000Z</time>
      </trkpt>
      <trkpt lat="48.70338" lon="1.76961">
        <ele>181.60000610352</ele>
        <time>2014-08-01T12:45:55.000Z</time>
      </trkpt>
      <trkpt lat="48.70333" lon="1.76967">
        <ele>181.80000305176</ele>
        <time>2014-08-01T12:46:02.000Z</time>
      </trkpt>
      <trkpt lat="48.70332" lon="1.7697">
        <ele>181.80000305176</ele>
        <time>2014-08-01T12:46:04.000Z</time>
      </trkpt>
      <trkpt lat="48.70328" lon="1.76967">
        <ele>181.80000305176</ele>
        <time>2014-08-01T12:46:09.000Z</time>
      </trkpt>
      <trkpt lat="48.70322" lon="1.76953">
        <ele>181.60000610352</ele>
        <time>2014-08-01T12:46:18.000Z</time>
      </trkpt>
      <trkpt lat="48.70319" lon="1.76939">
        <ele>181.19999694824</ele>
        <time>2014-08-01T12:46:26.000Z</time>
      </trkpt>
      <trkpt lat="48.70322" lon="1.76924">
        <ele>180.80000305176</ele>
        <time>2014-08-01T12:46:31.000Z</time>
      </trkpt>
      <trkpt lat="48.70319" lon="1.76909">
        <ele>180.60000610352</ele>
        <time>2014-08-01T12:46:38.000Z</time>
      </trkpt>
      <trkpt lat="48.70316" lon="1.76899">
        <ele>180.39999389648</ele>
        <time>2014-08-01T12:46:44.000Z</time>
      </trkpt>
      <trkpt lat="48.70313" lon="1.76893">
        <ele>180.19999694824</ele>
        <time>2014-08-01T12:46:47.000Z</time>
      </trkpt>
      <trkpt lat="48.70312" lon="1.76878">
        <ele>179.80000305176</ele>
        <time>2014-08-01T12:46:54.000Z</time>
      </trkpt>
      <trkpt lat="48.70312" lon="1.76873">
        <ele>179.80000305176</ele>
        <time>2014-08-01T12:46:56.000Z</time>
      </trkpt>
      <trkpt lat="48.70315" lon="1.7685">
        <ele>179.39999389648</ele>
        <time>2014-08-01T12:47:04.000Z</time>
      </trkpt>
      <trkpt lat="48.7032" lon="1.76827">
        <ele>179</ele>
        <time>2014-08-01T12:47:12.000Z</time>
      </trkpt>
      <trkpt lat="48.70323" lon="1.76808">
        <ele>179.19999694824</ele>
        <time>2014-08-01T12:47:18.000Z</time>
      </trkpt>
      <trkpt lat="48.70324" lon="1.76793">
        <ele>179.39999389648</ele>
        <time>2014-08-01T12:47:23.000Z</time>
      </trkpt>
      <trkpt lat="48.70324" lon="1.7678">
        <ele>179.19999694824</ele>
        <time>2014-08-01T12:47:28.000Z</time>
      </trkpt>
      <trkpt lat="48.70325" lon="1.76766">
        <ele>179</ele>
        <time>2014-08-01T12:47:34.000Z</time>
      </trkpt>
      <trkpt lat="48.70324" lon="1.76752">
        <ele>178.80000305176</ele>
        <time>2014-08-01T12:47:40.000Z</time>
      </trkpt>
      <trkpt lat="48.70325" lon="1.7674">
        <ele>178.80000305176</ele>
        <time>2014-08-01T12:47:45.000Z</time>
      </trkpt>
      <trkpt lat="48.70324" lon="1.76726">
        <ele>178.80000305176</ele>
        <time>2014-08-01T12:47:52.000Z</time>
      </trkpt>
      <trkpt lat="48.70324" lon="1.76709">
        <ele>178.80000305176</ele>
        <time>2014-08-01T12:47:59.000Z</time>
      </trkpt>
      <trkpt lat="48.70324" lon="1.76687">
        <ele>178.80000305176</ele>
        <time>2014-08-01T12:48:07.000Z</time>
      </trkpt>
      <trkpt lat="48.70322" lon="1.76661">
        <ele>178.80000305176</ele>
        <time>2014-08-01T12:48:15.000Z</time>
      </trkpt>
      <trkpt lat="48.70319" lon="1.76641">
        <ele>178.80000305176</ele>
        <time>2014-08-01T12:48:22.000Z</time>
      </trkpt>
      <trkpt lat="48.70319" lon="1.76639">
        <ele>178.80000305176</ele>
        <time>2014-08-01T12:48:23.000Z</time>
      </trkpt>
      <trkpt lat="48.70326" lon="1.76634">
        <ele>178.60000610352</ele>
        <time>2014-08-01T12:48:29.000Z</time>
      </trkpt>
      <trkpt lat="48.70331" lon="1.76627">
        <ele>178.60000610352</ele>
        <time>2014-08-01T12:48:36.000Z</time>
      </trkpt>
      <trkpt lat="48.70342" lon="1.76621">
        <ele>178.19999694824</ele>
        <time>2014-08-01T12:49:02.000Z</time>
      </trkpt>
      <trkpt lat="48.70345" lon="1.7662">
        <ele>178.19999694824</ele>
        <time>2014-08-01T12:49:25.000Z</time>
      </trkpt>
      <trkpt lat="48.70352" lon="1.76614">
        <ele>178</ele>
        <time>2014-08-01T12:49:32.000Z</time>
      </trkpt>
      <trkpt lat="48.70354" lon="1.76612">
        <ele>178</ele>
        <time>2014-08-01T12:49:35.000Z</time>
      </trkpt>
      <trkpt lat="48.70361" lon="1.76609">
        <ele>178.19999694824</ele>
        <time>2014-08-01T12:49:41.000Z</time>
      </trkpt>
      <trkpt lat="48.70367" lon="1.76608">
        <ele>178.39999389648</ele>
        <time>2014-08-01T12:49:46.000Z</time>
      </trkpt>
      <trkpt lat="48.70374" lon="1.76604">
        <ele>178.39999389648</ele>
        <time>2014-08-01T12:49:52.000Z</time>
      </trkpt>
      <trkpt lat="48.70379" lon="1.76602">
        <ele>178.60000610352</ele>
        <time>2014-08-01T12:49:56.000Z</time>
      </trkpt>
      <trkpt lat="48.70392" lon="1.76596">
        <ele>179</ele>
        <time>2014-08-01T12:50:03.000Z</time>
      </trkpt>
      <trkpt lat="48.704" lon="1.76593">
        <ele>179.39999389648</ele>
        <time>2014-08-01T12:50:10.000Z</time>
      </trkpt>
      <trkpt lat="48.70406" lon="1.76589">
        <ele>179.60000610352</ele>
        <time>2014-08-01T12:50:15.000Z</time>
      </trkpt>
      <trkpt lat="48.7041" lon="1.76593">
        <ele>179.80000305176</ele>
        <time>2014-08-01T12:50:20.000Z</time>
      </trkpt>
      <trkpt lat="48.70421" lon="1.7659">
        <ele>180.19999694824</ele>
        <time>2014-08-01T12:50:30.000Z</time>
      </trkpt>
      <trkpt lat="48.70427" lon="1.76588">
        <ele>180.39999389648</ele>
        <time>2014-08-01T12:50:35.000Z</time>
      </trkpt>
      <trkpt lat="48.70432" lon="1.76578">
        <ele>180.80000305176</ele>
        <time>2014-08-01T12:50:40.000Z</time>
      </trkpt>
      <trkpt lat="48.70435" lon="1.76565">
        <ele>181</ele>
        <time>2014-08-01T12:50:46.000Z</time>
      </trkpt>
      <trkpt lat="48.7044" lon="1.76554">
        <ele>181</ele>
        <time>2014-08-01T12:50:52.000Z</time>
      </trkpt>
      <trkpt lat="48.70441" lon="1.76551">
        <ele>181</ele>
        <time>2014-08-01T12:50:53.000Z</time>
      </trkpt>
      <trkpt lat="48.70445" lon="1.76538">
        <ele>181</ele>
        <time>2014-08-01T12:50:59.000Z</time>
      </trkpt>
      <trkpt lat="48.70452" lon="1.76519">
        <ele>181</ele>
        <time>2014-08-01T12:51:08.000Z</time>
      </trkpt>
      <trkpt lat="48.70452" lon="1.76502">
        <ele>181</ele>
        <time>2014-08-01T12:51:19.000Z</time>
      </trkpt>
      <trkpt lat="48.70451" lon="1.765">
        <ele>181.19999694824</ele>
        <time>2014-08-01T12:51:21.000Z</time>
      </trkpt>
      <trkpt lat="48.7045" lon="1.7649">
        <ele>181</ele>
        <time>2014-08-01T12:51:26.000Z</time>
      </trkpt>
      <trkpt lat="48.7045" lon="1.76482">
        <ele>180.80000305176</ele>
        <time>2014-08-01T12:51:30.000Z</time>
      </trkpt>
      <trkpt lat="48.70454" lon="1.76472">
        <ele>180</ele>
        <time>2014-08-01T12:51:35.000Z</time>
      </trkpt>
      <trkpt lat="48.70457" lon="1.76456">
        <ele>179</ele>
        <time>2014-08-01T12:51:41.000Z</time>
      </trkpt>
      <trkpt lat="48.70459" lon="1.76449">
        <ele>178.60000610352</ele>
        <time>2014-08-01T12:51:45.000Z</time>
      </trkpt>
      <trkpt lat="48.70461" lon="1.76435">
        <ele>177.80000305176</ele>
        <time>2014-08-01T12:51:51.000Z</time>
      </trkpt>
      <trkpt lat="48.7046" lon="1.76431">
        <ele>177.60000610352</ele>
        <time>2014-08-01T12:51:54.000Z</time>
      </trkpt>
      <trkpt lat="48.70461" lon="1.7642">
        <ele>177.39999389648</ele>
        <time>2014-08-01T12:51:59.000Z</time>
      </trkpt>
      <trkpt lat="48.70462" lon="1.76413">
        <ele>177.19999694824</ele>
        <time>2014-08-01T12:52:03.000Z</time>
      </trkpt>
      <trkpt lat="48.70459" lon="1.76402">
        <ele>177</ele>
        <time>2014-08-01T12:52:09.000Z</time>
      </trkpt>
      <trkpt lat="48.70457" lon="1.76392">
        <ele>176.60000610352</ele>
        <time>2014-08-01T12:52:15.000Z</time>
      </trkpt>
      <trkpt lat="48.70453" lon="1.76384">
        <ele>176.39999389648</ele>
        <time>2014-08-01T12:52:20.000Z</time>
      </trkpt>
      <trkpt lat="48.70451" lon="1.76376">
        <ele>176.19999694824</ele>
        <time>2014-08-01T12:52:25.000Z</time>
      </trkpt>
      <trkpt lat="48.7045" lon="1.76369">
        <ele>175.80000305176</ele>
        <time>2014-08-01T12:52:29.000Z</time>
      </trkpt>
      <trkpt lat="48.70449" lon="1.76359">
        <ele>175.39999389648</ele>
        <time>2014-08-01T12:52:34.000Z</time>
      </trkpt>
      <trkpt lat="48.70447" lon="1.76346">
        <ele>174.80000305176</ele>
        <time>2014-08-01T12:52:41.000Z</time>
      </trkpt>
      <trkpt lat="48.70445" lon="1.76333">
        <ele>174.19999694824</ele>
        <time>2014-08-01T12:52:48.000Z</time>
      </trkpt>
      <trkpt lat="48.70444" lon="1.76317">
        <ele>173.80000305176</ele>
        <time>2014-08-01T12:52:55.000Z</time>
      </trkpt>
      <trkpt lat="48.70442" lon="1.76312">
        <ele>173.80000305176</ele>
        <time>2014-08-01T12:52:59.000Z</time>
      </trkpt>
      <trkpt lat="48.70446" lon="1.76297">
        <ele>173.60000610352</ele>
        <time>2014-08-01T12:53:04.000Z</time>
      </trkpt>
      <trkpt lat="48.70448" lon="1.76289">
        <ele>173.60000610352</ele>
        <time>2014-08-01T12:53:08.000Z</time>
      </trkpt>
      <trkpt lat="48.70449" lon="1.76277">
        <ele>173.60000610352</ele>
        <time>2014-08-01T12:53:15.000Z</time>
      </trkpt>
      <trkpt lat="48.70451" lon="1.76262">
        <ele>173.60000610352</ele>
        <time>2014-08-01T12:53:24.000Z</time>
      </trkpt>
      <trkpt lat="48.70455" lon="1.76256">
        <ele>173.39999389648</ele>
        <time>2014-08-01T12:53:29.000Z</time>
      </trkpt>
      <trkpt lat="48.70458" lon="1.76245">
        <ele>172.80000305176</ele>
        <time>2014-08-01T12:53:34.000Z</time>
      </trkpt>
      <trkpt lat="48.70458" lon="1.76229">
        <ele>173</ele>
        <time>2014-08-01T12:53:41.000Z</time>
      </trkpt>
      <trkpt lat="48.70457" lon="1.76225">
        <ele>173.19999694824</ele>
        <time>2014-08-01T12:53:44.000Z</time>
      </trkpt>
      <trkpt lat="48.70456" lon="1.7621">
        <ele>173.39999389648</ele>
        <time>2014-08-01T12:53:50.000Z</time>
      </trkpt>
      <trkpt lat="48.70453" lon="1.76199">
        <ele>174</ele>
        <time>2014-08-01T12:53:57.000Z</time>
      </trkpt>
      <trkpt lat="48.7045" lon="1.76195">
        <ele>174.19999694824</ele>
        <time>2014-08-01T12:54:00.000Z</time>
      </trkpt>
      <trkpt lat="48.70447" lon="1.76181">
        <ele>174.80000305176</ele>
        <time>2014-08-01T12:54:06.000Z</time>
      </trkpt>
      <trkpt lat="48.70446" lon="1.76175">
        <ele>175</ele>
        <time>2014-08-01T12:54:09.000Z</time>
      </trkpt>
      <trkpt lat="48.70446" lon="1.76164">
        <ele>175.19999694824</ele>
        <time>2014-08-01T12:54:15.000Z</time>
      </trkpt>
      <trkpt lat="48.70447" lon="1.76162">
        <ele>175.19999694824</ele>
        <time>2014-08-01T12:54:17.000Z</time>
      </trkpt>
      <trkpt lat="48.70451" lon="1.76144">
        <ele>175.39999389648</ele>
        <time>2014-08-01T12:54:23.000Z</time>
      </trkpt>
      <trkpt lat="48.70451" lon="1.76143">
        <ele>175.39999389648</ele>
        <time>2014-08-01T12:54:24.000Z</time>
      </trkpt>
      <trkpt lat="48.70451" lon="1.76131">
        <ele>175.60000610352</ele>
        <time>2014-08-01T12:54:29.000Z</time>
      </trkpt>
      <trkpt lat="48.70452" lon="1.76117">
        <ele>175.80000305176</ele>
        <time>2014-08-01T12:54:35.000Z</time>
      </trkpt>
      <trkpt lat="48.70454" lon="1.76111">
        <ele>175.80000305176</ele>
        <time>2014-08-01T12:54:38.000Z</time>
      </trkpt>
      <trkpt lat="48.70454" lon="1.76104">
        <ele>175.80000305176</ele>
        <time>2014-08-01T12:54:42.000Z</time>
      </trkpt>
      <trkpt lat="48.70457" lon="1.76098">
        <ele>175.60000610352</ele>
        <time>2014-08-01T12:54:48.000Z</time>
      </trkpt>
      <trkpt lat="48.70455" lon="1.76091">
        <ele>176</ele>
        <time>2014-08-01T12:54:53.000Z</time>
      </trkpt>
      <trkpt lat="48.70461" lon="1.76078">
        <ele>175.80000305176</ele>
        <time>2014-08-01T12:54:58.000Z</time>
      </trkpt>
      <trkpt lat="48.70461" lon="1.76075">
        <ele>175.80000305176</ele>
        <time>2014-08-01T12:55:04.000Z</time>
      </trkpt>
      <trkpt lat="48.70465" lon="1.76064">
        <ele>176</ele>
        <time>2014-08-01T12:55:09.000Z</time>
      </trkpt>
      <trkpt lat="48.70469" lon="1.7605">
        <ele>176.39999389648</ele>
        <time>2014-08-01T12:55:16.000Z</time>
      </trkpt>
      <trkpt lat="48.70472" lon="1.76045">
        <ele>176.60000610352</ele>
        <time>2014-08-01T12:55:18.000Z</time>
      </trkpt>
      <trkpt lat="48.70472" lon="1.76037">
        <ele>177</ele>
        <time>2014-08-01T12:55:24.000Z</time>
      </trkpt>
      <trkpt lat="48.70472" lon="1.76027">
        <ele>177.39999389648</ele>
        <time>2014-08-01T12:55:28.000Z</time>
      </trkpt>
      <trkpt lat="48.70473" lon="1.76013">
        <ele>178.19999694824</ele>
        <time>2014-08-01T12:55:34.000Z</time>
      </trkpt>
      <trkpt lat="48.70476" lon="1.76">
        <ele>178.80000305176</ele>
        <time>2014-08-01T12:55:39.000Z</time>
      </trkpt>
      <trkpt lat="48.70477" lon="1.75994">
        <ele>179.19999694824</ele>
        <time>2014-08-01T12:55:43.000Z</time>
      </trkpt>
      <trkpt lat="48.70478" lon="1.75989">
        <ele>179.39999389648</ele>
        <time>2014-08-01T12:55:46.000Z</time>
      </trkpt>
      <trkpt lat="48.70483" lon="1.75981">
        <ele>179.39999389648</ele>
        <time>2014-08-01T12:55:51.000Z</time>
      </trkpt>
      <trkpt lat="48.70484" lon="1.75979">
        <ele>179.39999389648</ele>
        <time>2014-08-01T12:55:52.000Z</time>
      </trkpt>
      <trkpt lat="48.70485" lon="1.75977">
        <ele>179.39999389648</ele>
        <time>2014-08-01T12:55:54.000Z</time>
      </trkpt>
      <trkpt lat="48.70487" lon="1.75975">
        <ele>179.39999389648</ele>
        <time>2014-08-01T12:55:56.000Z</time>
      </trkpt>
      <trkpt lat="48.70489" lon="1.75974">
        <ele>179.19999694824</ele>
        <time>2014-08-01T12:55:58.000Z</time>
      </trkpt>
      <trkpt lat="48.70495" lon="1.75966">
        <ele>179.19999694824</ele>
        <time>2014-08-01T12:56:04.000Z</time>
      </trkpt>
      <trkpt lat="48.70501" lon="1.75958">
        <ele>179.39999389648</ele>
        <time>2014-08-01T12:56:10.000Z</time>
      </trkpt>
      <trkpt lat="48.70508" lon="1.75945">
        <ele>180</ele>
        <time>2014-08-01T12:56:17.000Z</time>
      </trkpt>
      <trkpt lat="48.70511" lon="1.75936">
        <ele>180.39999389648</ele>
        <time>2014-08-01T12:56:23.000Z</time>
      </trkpt>
      <trkpt lat="48.70517" lon="1.75928">
        <ele>180.80000305176</ele>
        <time>2014-08-01T12:56:28.000Z</time>
      </trkpt>
      <trkpt lat="48.70517" lon="1.75922">
        <ele>181.19999694824</ele>
        <time>2014-08-01T12:56:32.000Z</time>
      </trkpt>
      <trkpt lat="48.70519" lon="1.75917">
        <ele>181.39999389648</ele>
        <time>2014-08-01T12:56:36.000Z</time>
      </trkpt>
      <trkpt lat="48.70524" lon="1.75913">
        <ele>181.39999389648</ele>
        <time>2014-08-01T12:56:40.000Z</time>
      </trkpt>
      <trkpt lat="48.70526" lon="1.75906">
        <ele>181.60000610352</ele>
        <time>2014-08-01T12:56:44.000Z</time>
      </trkpt>
      <trkpt lat="48.7053" lon="1.75898">
        <ele>181.39999389648</ele>
        <time>2014-08-01T12:56:48.000Z</time>
      </trkpt>
      <trkpt lat="48.70535" lon="1.75887">
        <ele>181.39999389648</ele>
        <time>2014-08-01T12:56:56.000Z</time>
      </trkpt>
      <trkpt lat="48.70539" lon="1.7588">
        <ele>181.19999694824</ele>
        <time>2014-08-01T12:57:00.000Z</time>
      </trkpt>
      <trkpt lat="48.70544" lon="1.7587">
        <ele>181</ele>
        <time>2014-08-01T12:57:06.000Z</time>
      </trkpt>
      <trkpt lat="48.70548" lon="1.75862">
        <ele>181</ele>
        <time>2014-08-01T12:57:11.000Z</time>
      </trkpt>
      <trkpt lat="48.70552" lon="1.75853">
        <ele>181</ele>
        <time>2014-08-01T12:57:17.000Z</time>
      </trkpt>
      <trkpt lat="48.70555" lon="1.75846">
        <ele>180.60000610352</ele>
        <time>2014-08-01T12:57:21.000Z</time>
      </trkpt>
      <trkpt lat="48.7056" lon="1.7584">
        <ele>179.80000305176</ele>
        <time>2014-08-01T12:57:26.000Z</time>
      </trkpt>
      <trkpt lat="48.70564" lon="1.75833">
        <ele>179.39999389648</ele>
        <time>2014-08-01T12:57:31.000Z</time>
      </trkpt>
      <trkpt lat="48.70565" lon="1.75826">
        <ele>179.19999694824</ele>
        <time>2014-08-01T12:57:36.000Z</time>
      </trkpt>
      <trkpt lat="48.70571" lon="1.75818">
        <ele>178.60000610352</ele>
        <time>2014-08-01T12:57:41.000Z</time>
      </trkpt>
      <trkpt lat="48.70574" lon="1.75809">
        <ele>178.39999389648</ele>
        <time>2014-08-01T12:57:47.000Z</time>
      </trkpt>
      <trkpt lat="48.70578" lon="1.75802">
        <ele>178</ele>
        <time>2014-08-01T12:57:52.000Z</time>
      </trkpt>
      <trkpt lat="48.70584" lon="1.75791">
        <ele>177.80000305176</ele>
        <time>2014-08-01T12:57:59.000Z</time>
      </trkpt>
      <trkpt lat="48.70585" lon="1.7579">
        <ele>177.80000305176</ele>
        <time>2014-08-01T12:58:00.000Z</time>
      </trkpt>
      <trkpt lat="48.7059" lon="1.75783">
        <ele>177.80000305176</ele>
        <time>2014-08-01T12:58:04.000Z</time>
      </trkpt>
      <trkpt lat="48.70598" lon="1.75771">
        <ele>177.80000305176</ele>
        <time>2014-08-01T12:58:13.000Z</time>
      </trkpt>
      <trkpt lat="48.70601" lon="1.75766">
        <ele>177.80000305176</ele>
        <time>2014-08-01T12:58:17.000Z</time>
      </trkpt>
      <trkpt lat="48.70603" lon="1.75762">
        <ele>177.80000305176</ele>
        <time>2014-08-01T12:58:20.000Z</time>
      </trkpt>
      <trkpt lat="48.70606" lon="1.75755">
        <ele>178</ele>
        <time>2014-08-01T12:58:26.000Z</time>
      </trkpt>
      <trkpt lat="48.70612" lon="1.75746">
        <ele>178.19999694824</ele>
        <time>2014-08-01T12:58:32.000Z</time>
      </trkpt>
      <trkpt lat="48.70616" lon="1.75741">
        <ele>178.19999694824</ele>
        <time>2014-08-01T12:58:36.000Z</time>
      </trkpt>
      <trkpt lat="48.70621" lon="1.7573">
        <ele>178.39999389648</ele>
        <time>2014-08-01T12:58:42.000Z</time>
      </trkpt>
      <trkpt lat="48.70626" lon="1.75723">
        <ele>178.80000305176</ele>
        <time>2014-08-01T12:58:47.000Z</time>
      </trkpt>
      <trkpt lat="48.7063" lon="1.75714">
        <ele>179.19999694824</ele>
        <time>2014-08-01T12:58:53.000Z</time>
      </trkpt>
      <trkpt lat="48.70635" lon="1.75711">
        <ele>179</ele>
        <time>2014-08-01T12:59:07.000Z</time>
      </trkpt>
      <trkpt lat="48.70639" lon="1.75672">
        <ele>180.39999389648</ele>
        <time>2014-08-01T12:59:56.000Z</time>
      </trkpt>
      <trkpt lat="48.70638" lon="1.75662">
        <ele>180.80000305176</ele>
        <time>2014-08-01T13:00:01.000Z</time>
      </trkpt>
      <trkpt lat="48.70636" lon="1.75649">
        <ele>181</ele>
        <time>2014-08-01T13:00:08.000Z</time>
      </trkpt>
      <trkpt lat="48.70636" lon="1.75646">
        <ele>180.80000305176</ele>
        <time>2014-08-01T13:00:11.000Z</time>
      </trkpt>
      <trkpt lat="48.70636" lon="1.75633">
        <ele>180.60000610352</ele>
        <time>2014-08-01T13:00:17.000Z</time>
      </trkpt>
      <trkpt lat="48.70637" lon="1.75627">
        <ele>180.19999694824</ele>
        <time>2014-08-01T13:00:21.000Z</time>
      </trkpt>
      <trkpt lat="48.70642" lon="1.75621">
        <ele>179.60000610352</ele>
        <time>2014-08-01T13:00:26.000Z</time>
      </trkpt>
      <trkpt lat="48.70642" lon="1.75617">
        <ele>179.60000610352</ele>
        <time>2014-08-01T13:00:28.000Z</time>
      </trkpt>
      <trkpt lat="48.70645" lon="1.75606">
        <ele>179</ele>
        <time>2014-08-01T13:00:34.000Z</time>
      </trkpt>
      <trkpt lat="48.70646" lon="1.75604">
        <ele>179</ele>
        <time>2014-08-01T13:00:35.000Z</time>
      </trkpt>
      <trkpt lat="48.70646" lon="1.75598">
        <ele>178.80000305176</ele>
        <time>2014-08-01T13:00:38.000Z</time>
      </trkpt>
      <trkpt lat="48.70648" lon="1.75593">
        <ele>178.80000305176</ele>
        <time>2014-08-01T13:00:42.000Z</time>
      </trkpt>
      <trkpt lat="48.70654" lon="1.75587">
        <ele>178.19999694824</ele>
        <time>2014-08-01T13:00:48.000Z</time>
      </trkpt>
      <trkpt lat="48.70655" lon="1.75582">
        <ele>178</ele>
        <time>2014-08-01T13:00:54.000Z</time>
      </trkpt>
      <trkpt lat="48.7066" lon="1.75575">
        <ele>177.60000610352</ele>
        <time>2014-08-01T13:01:04.000Z</time>
      </trkpt>
      <trkpt lat="48.70664" lon="1.7557">
        <ele>177.19999694824</ele>
        <time>2014-08-01T13:01:08.000Z</time>
      </trkpt>
      <trkpt lat="48.70669" lon="1.75561">
        <ele>175.60000610352</ele>
        <time>2014-08-01T13:01:15.000Z</time>
      </trkpt>
      <trkpt lat="48.70671" lon="1.75553">
        <ele>174.80000305176</ele>
        <time>2014-08-01T13:01:21.000Z</time>
      </trkpt>
      <trkpt lat="48.70672" lon="1.7555">
        <ele>174.60000610352</ele>
        <time>2014-08-01T13:01:23.000Z</time>
      </trkpt>
      <trkpt lat="48.70675" lon="1.75546">
        <ele>174.60000610352</ele>
        <time>2014-08-01T13:01:28.000Z</time>
      </trkpt>
      <trkpt lat="48.70679" lon="1.75538">
        <ele>174.39999389648</ele>
        <time>2014-08-01T13:01:33.000Z</time>
      </trkpt>
      <trkpt lat="48.70682" lon="1.7553">
        <ele>174</ele>
        <time>2014-08-01T13:01:38.000Z</time>
      </trkpt>
      <trkpt lat="48.70683" lon="1.75526">
        <ele>174</ele>
        <time>2014-08-01T13:01:40.000Z</time>
      </trkpt>
      <trkpt lat="48.70687" lon="1.75517">
        <ele>173.60000610352</ele>
        <time>2014-08-01T13:01:46.000Z</time>
      </trkpt>
      <trkpt lat="48.70691" lon="1.75505">
        <ele>173.19999694824</ele>
        <time>2014-08-01T13:01:53.000Z</time>
      </trkpt>
      <trkpt lat="48.70693" lon="1.75495">
        <ele>172.80000305176</ele>
        <time>2014-08-01T13:01:58.000Z</time>
      </trkpt>
      <trkpt lat="48.70694" lon="1.75493">
        <ele>172.80000305176</ele>
        <time>2014-08-01T13:01:59.000Z</time>
      </trkpt>
      <trkpt lat="48.70696" lon="1.75482">
        <ele>172.60000610352</ele>
        <time>2014-08-01T13:02:04.000Z</time>
      </trkpt>
      <trkpt lat="48.70697" lon="1.75479">
        <ele>172.60000610352</ele>
        <time>2014-08-01T13:02:09.000Z</time>
      </trkpt>
      <trkpt lat="48.70698" lon="1.7548">
        <ele>172.60000610352</ele>
        <time>2014-08-01T13:02:15.000Z</time>
      </trkpt>
      <trkpt lat="48.70699" lon="1.75477">
        <ele>172.39999389648</ele>
        <time>2014-08-01T13:02:19.000Z</time>
      </trkpt>
      <trkpt lat="48.70701" lon="1.75463">
        <ele>172</ele>
        <time>2014-08-01T13:02:33.000Z</time>
      </trkpt>
      <trkpt lat="48.70701" lon="1.75455">
        <ele>171.80000305176</ele>
        <time>2014-08-01T13:02:36.000Z</time>
      </trkpt>
      <trkpt lat="48.70702" lon="1.75451">
        <ele>171.80000305176</ele>
        <time>2014-08-01T13:02:38.000Z</time>
      </trkpt>
      <trkpt lat="48.70705" lon="1.7545">
        <ele>171.60000610352</ele>
        <time>2014-08-01T13:02:43.000Z</time>
      </trkpt>
      <trkpt lat="48.70704" lon="1.75455">
        <ele>171.80000305176</ele>
        <time>2014-08-01T13:02:47.000Z</time>
      </trkpt>
      <trkpt lat="48.70703" lon="1.75471">
        <ele>172.19999694824</ele>
        <time>2014-08-01T13:02:49.000Z</time>
      </trkpt>
      <trkpt lat="48.70701" lon="1.75481">
        <ele>172.60000610352</ele>
        <time>2014-08-01T13:02:54.000Z</time>
      </trkpt>
      <trkpt lat="48.70701" lon="1.7548">
        <ele>172.39999389648</ele>
        <time>2014-08-01T13:03:04.000Z</time>
      </trkpt>
      <trkpt lat="48.70702" lon="1.7547">
        <ele>172.19999694824</ele>
        <time>2014-08-01T13:03:07.000Z</time>
      </trkpt>
      <trkpt lat="48.70705" lon="1.75456">
        <ele>171.80000305176</ele>
        <time>2014-08-01T13:03:13.000Z</time>
      </trkpt>
      <trkpt lat="48.70707" lon="1.75453">
        <ele>171.60000610352</ele>
        <time>2014-08-01T13:03:15.000Z</time>
      </trkpt>
      <trkpt lat="48.70709" lon="1.75449">
        <ele>171.60000610352</ele>
        <time>2014-08-01T13:03:17.000Z</time>
      </trkpt>
      <trkpt lat="48.70711" lon="1.75446">
        <ele>171.39999389648</ele>
        <time>2014-08-01T13:03:20.000Z</time>
      </trkpt>
      <trkpt lat="48.70711" lon="1.75445">
        <ele>171.39999389648</ele>
        <time>2014-08-01T13:03:25.000Z</time>
      </trkpt>
      <trkpt lat="48.70711" lon="1.75448">
        <ele>171.39999389648</ele>
        <time>2014-08-01T13:03:27.000Z</time>
      </trkpt>
      <trkpt lat="48.70711" lon="1.75449">
        <ele>171.39999389648</ele>
        <time>2014-08-01T13:03:30.000Z</time>
      </trkpt>
      <trkpt lat="48.70698" lon="1.75448">
        <ele>171.80000305176</ele>
        <time>2014-08-01T13:03:46.000Z</time>
      </trkpt>
      <trkpt lat="48.70692" lon="1.75448">
        <ele>172</ele>
        <time>2014-08-01T13:03:49.000Z</time>
      </trkpt>
      <trkpt lat="48.70683" lon="1.75449">
        <ele>172</ele>
        <time>2014-08-01T13:03:57.000Z</time>
      </trkpt>
      <trkpt lat="48.7067" lon="1.75443">
        <ele>172</ele>
        <time>2014-08-01T13:04:07.000Z</time>
      </trkpt>
      <trkpt lat="48.70669" lon="1.75442">
        <ele>172</ele>
        <time>2014-08-01T13:04:08.000Z</time>
      </trkpt>
    </trkseg>
  </trk>
</gpx>